     2              OBSERVATION DATA    GPS                 RINEX VERSION / TYPE
ASHTORIN MIT 28 - OCT - 96 11:09                            PGM / RUN BY / DATE
                                                            COMMENT
--> THIS IS THE START OF A NEW SITE <---                    COMMENT
--> THIS IS THE START OF A NEW SITE <---                    COMMENT
Original Marker Name: GS19                                  COMMENT
Campaign Name: China Lake Nov 1996                          COMMENT
4-Character Station Name: GS19                              COMMENT
6-Character Antenna Code: ASHP12                            COMMENT
Vertical Measurement Point: TGP                             COMMENT
Vertical Offset to Rinex Ref. Point: 0.0640                 COMMENT
Radial Measurement Point: OOH                               COMMENT
Radial Offset to Rinex Ref. Point: 0.1318                   COMMENT
Antenna Height from Field Measurement: 0.9980 m             COMMENT
Additional Antenna Identification Info.:                    COMMENT
Ashtech L1/L2 Revision B (700228DE)                         COMMENT
Original XYZ: -2455781.9300 -4602727.8900 3658823.2300      COMMENT
New XYZ position is based on association with SCEC monument COMMENT
E1F4D6R5+0011. Position of that monument is believed to be  COMMENT
valid to within 1 m horizontally; vertical accuracy         COMMENT
should be no worse than 3-times this value.                 COMMENT
                                                            COMMENT
Revised Rinex header created by UCSD GPS archive for        COMMENT
GSAC on 01-Aug-2000 (2000:214) 04:16:35 GMT                 COMMENT
For assistance contact dagnew@ucsd.edu                      COMMENT
or anderson@python.ucsd.edu                                 COMMENT
                                                            COMMENT
SNORT A 1950                                                MARKER NAME
                                                            MARKER NUMBER
LCS US DEFENSE MAPPING AGENCY                               OBSERVER / AGENCY
940 ASHTECH Z-XII3 1E861D0                                  REC # / TYPE / VERS
351 ASHTECH GEODETIC P                                      ANT # / TYPE
 -2415084.7300 -4592334.8302  3697983.7270                  APPROX POSITION XYZ
        0.9253        0.0000        0.0000                  ANTENNA: DELTA H/E/N
     1     1     0                                          WAVELENGTH FACT L1/2
     7    L1    L2    C1    P1    P2    D1    D2            # / TYPES OF OBSERV
    30                                                      INTERVAL
  1996    10     8    15     6    0.000000                  TIME OF FIRST OBS
  1996    10     8    21    29   60.000000                  TIME OF LAST OBS
                                                            END OF HEADER
 96 10  8 15  6  0.0000000  0  8 23 22 30 28  6 26 17 10            -0.000240867
    -25726.05819     -4982.59054  22191572.641           0.0005          0.0005
      2785.691        2170.668
    -17616.84219     -3342.26952  23940049.474           0.0005          0.0005
      1872.146        1458.815
     34302.05019      6011.85452  23146232.611           0.0005          0.0005
     -3359.574       -2617.850
    -32550.03419     -5818.54354  23179245.937           0.0005          0.0005
      3253.010        2534.813
      1271.71119       417.10058  20124403.596           0.0005   20124407.5185
       -62.730         -48.881
    -17959.77219     -3236.08654  22560612.080           0.0005          0.0005
      1808.732        1409.402
    -12392.51319     -2472.64753  21156195.124           0.0005          0.0005
      1380.071        1075.380
     20111.52919      5863.45452  23862745.855           0.0005          0.0005
     -3283.614       -2558.660
 96 10  8 15  6 30.0000000  3  2
GS19                                                        MARKER NAME
--> THIS IS THE START OF A NEW SITE <---                    COMMENT
 96 10  8 15  6 30.0000000  0  8 23 22 30 28  6 26 17 10            -0.000242787
   -109590.140 9    -70331.29558  22175612.665    22175612.1255   22175617.2425
      2805.308        2185.954
    -74008.351 9    -47284.21556  23929317.356           0.0004   23929322.4555
      1887.180        1470.530
    134690.720 9     84236.78757  23165336.911           0.0004   23165342.9835
     -3332.952       -2597.105
   -130543.477 9    -82177.06957  23160597.985    23160597.4775   23160602.1825
      3279.913        2555.776
      2913.450 9      1696.38148  20124715.846    20124715.5315   20124720.3684
       -46.864         -36.517
    -72455.428 9    -45700.31257  22550241.221    22550241.2945   22550245.9345
      1824.472        1421.666
    -54162.878 9    -35021.35958  21148246.041    21148245.3835   21148250.7485
      1404.620        1094.509
    118227.004 9     82317.39956  23881417.354           0.0004          0.0005
     -3257.459       -2538.280
 96 10  8 15  6 59.9990000  0  8 23 22 30 28  6 26 17 10            -0.000244653
   -193996.199 9   -136102.22648  22159550.553    22159549.8064   22159555.3284
      2821.058        2198.227
   -130801.954 9    -91538.95046  23918510.359    23918509.6575   23918515.4734
      1898.359        1479.241
    234323.831 9    161872.93547  23184296.743    23184296.2325   23184301.9484
     -3310.381       -2579.518
   -229298.926 9   -159129.345 8  23141805.407    23141805.008    23141809.670
      3303.115        2573.856
      4130.834 9      2644.98848  20124947.442    20124947.1034   20124952.0044
       -35.190         -27.421
   -127379.537 9    -88498.29547  22539789.455    22539789.3044   22539794.0424
      1836.372        1430.939
    -96618.409 9    -68103.56848  21140167.227    21140166.3264   21140171.7974
      1424.869        1110.288
    215596.378 9    158189.56156  23899945.515           0.0004   23899950.5555
     -3235.018       -2520.793
 96 10  8 15  7 29.9990000  0  8 23 22 30 28  6 26 17 10            -0.000247566
   -278808.785 9   -202189.92948  22143411.265    22143410.5294   22143416.0574
      2832.929        2207.477
   -187871.804 9   -136008.95146  23907650.669    23907649.4094   23907655.5024
      1906.091        1485.266
    333346.632 9    239033.52447  23203139.998    23203139.9434   23203145.4714
     -3291.473       -2564.784
   -328689.894 9   -236576.831 8  23122892.542    23122891.460    23122896.218
      3322.801        2589.196
      5063.528 9      3371.75748  20125124.888    20125124.5864   20125129.4774
       -27.086         -21.106
   -182598.880 9   -131526.34347  22529280.763    22529281.3674   22529286.1804
      1844.766        1437.480
   -139620.403 9   -101611.59648  21131983.843    21131983.2914   21131988.7104
      1441.832        1123.505
    312362.721 9    233591.86546  23918359.735    23918358.6245   23918364.6284
     -3216.349       -2506.246
 96 10  8 15  7 59.9990000  0  8 23 22 30 28  6 26 17 10            -0.000250829
   -363904.168 9   -268497.99148  22127217.994    22127217.4204   22127222.9244
      2839.965        2212.960
   -245087.859 9   -180592.87446  23896763.457    23896761.6404   23896767.6264
      1907.987        1486.743
    431890.419 9    315820.85147  23221892.367    23221892.1884   23221897.7684
     -3278.229       -2554.464
   -428594.442 9   -314424.506 8  23103881.455    23103880.240    23103884.998
      3337.325        2600.513
      5828.850 9      3968.11048  20125270.631    20125270.2724   20125275.0954
       -24.266         -18.909
   -237994.658 9   -174691.86647  22518739.733    22518739.9404   22518744.6714
      1848.011        1440.009
   -183052.912 9   -135455.09048  21123718.772    21123718.3154   21123723.7474
      1453.306        1132.446
    408645.407 9    308617.31246  23936681.949    23936681.0634   23936686.7094
     -3202.789       -2495.680
 96 10  8 15  8 29.9990000  0  8 23 22 30 28  6 26 17 10            -0.000254411
   -449188.143 9   -334953.01048  22110989.052    22110988.4224   22110993.9894
      2844.750        2216.688
   -302333.567 9   -225199.92446  23885869.333    23885868.0754   23885874.2034
      1907.627        1486.463
    530056.715 9    392314.02647  23240572.623    23240572.5564   23240578.2304
     -3266.897       -2545.634
   -528913.552 9   -392595.215 8  23084790.988    23084790.134    23084794.854
      3349.804        2610.237
      6548.807 9      4529.11948  20125407.759    20125407.3384   20125412.0964
       -24.552         -19.131
   -293453.011 9   -217906.15347  22508186.639    22508186.6084   22508191.3514
      1848.476        1440.371
   -226797.704 9   -169541.92648  21115394.605    21115393.9904   21115399.3764
      1462.062        1139.269
    504540.129 9    383340.45646  23954930.282    23954929.1054   23954934.8884
     -3191.145       -2486.606
 96 10  8 15  8 59.9990000  0  8 23 22 30 28  6 26 17 10            -0.000258263
   -534584.066 9   -401495.25848  22094738.806    22094738.1224   22094743.7244
      2847.790        2219.057
   -359546.113 9   -269781.12846  23874982.115    23874980.9284   23874987.0514
      1905.978        1485.178
    627915.761 9    468567.78447  23259194.595    23259194.5354   23259200.2404
     -3257.496       -2538.309
   -629577.580 9   -471034.706 8  23065635.111    23065634.381    23065639.084
      3360.510        2618.579
      7304.342 9      5117.84348  20125551.577    20125551.1544   20125555.8744
       -26.274         -20.473
   -348901.337 9   -261112.64247  22497635.152    22497635.1464   22497639.9314
      1847.584        1439.676
   -270764.805 9   -203801.99248  21107028.043    21107027.3214   21107032.6994
      1468.572        1144.342
    600113.826 9    457813.44146  23973117.380    23973116.2054   23973122.0334
     -3181.003       -2478.704
 96 10  8 15  9 29.9990000  0  8 23 22 30 28  6 26 17 10            -0.000262366
   -620059.491 9   -468099.46548  22078473.429    22078472.6974   22078478.3524
      2850.450        2221.130
   -416686.860 9   -314306.37746  23864108.487    23864107.3724   23864113.6004
      1903.207        1483.018
    725497.066 9    544605.11547  23277763.783    23277763.7054   23277769.3664
     -3247.922       -2530.848
   -730544.372 9   -549710.110 8  23046421.669    23046420.990    23046425.727
      3370.440        2626.317
      8126.975 9      5758.85048  20125708.136    20125707.7424   20125712.4744
       -28.780         -22.426
   -404312.613 9   -304290.24747  22487090.741    22487090.7354   22487095.5594
      1846.521        1438.848
   -314918.094 9   -238207.13548  21098625.982    21098625.2334   21098630.6274
      1474.840        1149.226
    695402.430 9    532064.26646  23991250.152    23991248.9964   23991254.8614
     -3171.657       -2471.421
 96 10  8 15  9 59.9990000  0  9 23 22 21 30 28  6 26 17 10         -0.000266722
   -705612.426 9   -534764.06848  22062193.270    22062192.5274   22062198.2304
      2853.223        2223.291
   -473733.383 9   -358758.20346  23853252.906    23853251.8094   23853258.1764
      1900.156        1480.641
   -296022.64119   -206402.04154  25374413.849           0.0005          0.0005
      3579.561        2789.268
    822791.508 9    620418.92147  23296278.373    23296278.3344   23296283.8254
     -3237.996       -2523.114
   -831801.804 9   -628611.990 8  23027152.927    23027152.327    23027157.053
      3380.193        2633.917
      9035.428 9      6466.73448  20125881.008    20125880.6324   20125885.3654
       -31.582         -24.609
   -459693.659 9   -347444.29147  22476552.126    22476552.1024   22476556.8914
      1845.752        1438.248
   -359245.465 9   -272747.92948  21090190.742    21090189.9934   21090195.3624
      1480.453        1153.600
    790409.321 9    606095.57046  24009329.355    24009328.1964   24009334.0654
     -3162.118       -2463.988
 96 10  8 15 10 29.9990000  0  9 23 22 21 30 28  6 26 17 10         -0.000271348
   -791251.933 9   -601496.12548  22045896.653    22045895.8744   22045901.6024
      2856.127        2225.553
   -530702.810 9   -403149.95446  23842411.918    23842410.8634   23842417.2654
      1897.979        1478.945
   -403568.701 9    -34292.25352  25353948.798           0.0005          0.0005
      3590.393        2797.709
    919767.890 9    695984.90847  23314732.463    23314732.4154   23314737.8704
     -3226.943       -2514.501
   -933361.649 9   -707749.513 8  23007826.677    23007826.120    23007830.826
      3390.517        2641.961
     10010.496 9      7226.52448  20126066.582    20126066.2004   20126070.9274
       -33.233         -25.896
   -515068.977 9   -390593.87347  22466014.610    22466014.5784   22466019.3004
      1846.128        1438.541
   -403748.132 9   -307425.31648  21081722.232    21081721.4494   21081726.7824
      1486.578        1158.372
    885118.613 9    679894.98746  24027351.974    24027350.8324   24027356.5964
     -3151.778       -2455.931
 96 10  8 15 10 59.9990000  0  9 23 22 21 30 28  6 26 17 10         -0.000276256
   -876995.353 9   -668309.15748  22029580.263    22029579.4644   22029585.1854
      2860.248        2228.765
   -587620.735 9   -447501.57646  23831580.776    23831579.7374   23831586.2244
      1896.655        1477.913
   -511458.116 9   -118364.13954  25333417.899           0.0004          0.0005
      3602.300        2806.987
   1016398.532 9    771281.48147  23333120.745    23333120.7114   23333126.0794
     -3214.920       -2505.132
  -1035242.091 9   -787136.850 8  22988439.451    22988438.908    22988443.592
      3401.632        2650.622
     11016.243 9      8010.21648  20126257.951    20126257.6054   20126262.3474
       -33.834         -26.364
   -570471.728 9   -433764.83847  22455471.864    22455471.8124   22455476.5594
      1847.321        1439.471
   -448458.183 9   -342264.30248  21073214.262    21073213.4604   21073218.7434
      1494.384        1164.455
    979495.419 9    753435.31946  24045311.329    24045310.1394   24045315.9044
     -3139.915       -2446.687
 96 10  8 15 11 29.9990000  0  9 23 22 21 30 28  6 26 17 10         -0.000281461
   -962862.081 9   -735218.26648  22013240.342    22013239.5524   22013245.3144
      2864.196        2231.841
   -644503.350 9   -491825.69546  23820756.472    23820755.4524   23820761.8114
      1895.656        1477.135
   -619705.588 9   -202715.46754  25312819.119           0.0004          0.0005
      3614.426        2816.436
   1112657.276 9    846288.26746  23351438.263    23351438.2754   23351443.5224
     -3202.288       -2495.289
  -1137460.098 9   -866787.228 8  22968987.961    22968987.452    22968992.087
      3412.976        2659.462
     12047.422 9      8813.73048  20126454.237    20126453.8744   20126458.5894
       -34.887         -27.185
   -625901.211 9   -476956.63547  22444923.973    22444923.9774   22444928.7204
      1847.888        1439.913
   -493417.259 9   -377297.33148  21064658.861    21064658.0354   21064663.3134
      1502.943        1171.124
   1073506.765 9    826690.86746  24063201.171    24063199.9954   24063205.7084
     -3127.516       -2437.025
 96 10  8 15 11 59.9990000  0  9 23 22 21 30 28  6 26 17 10         -0.000286964
  -1048846.840 9   -802219.35148  21996878.014    21996877.1844   21996882.9464
      2868.112        2234.892
   -701367.168 9   -536135.15846  23809935.797    23809934.7524   23809940.9534
      1895.371        1476.912
   -728333.734 9    -27586.55552  25292148.025           0.0005          0.0005
      3627.593        2826.696
   1208535.336 9    920998.40846  23369683.406    23369683.3834   23369688.5504
     -3189.523       -2485.343
  -1240023.110 9   -946706.436 8  22949470.816    22949470.368    22949474.958
      3424.579        2668.503
     13100.817 9      9634.55948  20126654.748    20126654.3704   20126659.0394
       -35.265         -27.479
   -681338.870 9   -520154.79047  22434374.569    22434374.5514   22434379.3314
      1847.904        1439.925
   -538636.594 9   -412533.16448  21056053.913    21056053.1024   21056058.3874
      1511.782        1178.012
   1167138.508 9    899650.62946  24081018.690    24081017.5044   24081023.2494
     -3114.675       -2427.019
 96 10  8 15 12 29.9990000  0  9 23 22 21 30 28  6 26 17 10         -0.000292768
  -1134955.603 9   -869317.06848  21980492.004    21980491.2254   21980496.9864
      2872.389        2238.225
   -758232.635 9   -580445.91446  23799114.705    23799113.6844   23799119.7624
      1895.463        1476.984
   -837375.547 9   -112553.63655  25271398.207           0.0004          0.0005
      3641.756        2837.732
   1304020.241 9    995402.20846  23387853.752    23387853.6424   23387858.7754
     -3176.397       -2475.115
  -1342940.022 9  -1026901.414 8  22929886.361    22929885.963    22929890.505
      3436.352        2677.677
     14162.099 9     10461.52848  20126856.748    20126856.3654   20126860.9874
       -35.831         -27.920
   -736781.158 9   -563356.56847  22423824.262    22423824.2194   22423829.0364
      1848.105        1440.082
   -584131.663 9   -447983.84948  21047396.536    21047395.6934   21047400.9494
      1521.016        1185.207
   1260375.806 9    972303.03246  24098761.102    24098759.9424   24098765.7394
     -3101.331       -2416.622
 96 10  8 15 12 59.9990000  0  9 23 22 21 30 28  6 26 17 10         -0.000298881
  -1221203.008 9   -936522.80848  21964079.641    21964078.8734   21964084.6554
      2876.948        2241.778
   -815105.207 9   -624762.21046  23788292.252    23788291.2804   23788297.2084
      1895.740        1477.200
   -946845.849 9   -197855.35156  25250566.779           0.0005   25250572.3155
      3655.948        2848.791
   1399123.211 9   1069508.38746  23405951.357    23405951.2614   23405956.3344
     -3164.134       -2465.559
  -1446209.279 9  -1107370.944 8  22910234.970    22910234.501    22910239.010
      3447.919        2686.690
     15251.717 9     11310.57648  20127064.126    20127063.7614   20127068.3874
       -37.081         -28.894
   -792228.901 9   -606562.58647  22413272.850    22413272.8064   22413277.5994
      1848.058        1440.045
   -629910.770 9   -483655.86848  21038685.042    21038684.1994   21038689.4404
      1530.560        1192.644
   1353209.293 9   1044640.77746  24116426.754    24116425.5984   24116431.4104
     -3088.129       -2406.334
 96 10  8 15 13 29.9990000  0  9 23 22 21 30 28  6 26 17 10         -0.000305297
  -1307577.495 9  -1003827.57848  21947643.165    21947642.3914   21947648.1234
      2881.063        2244.984
   -871996.667 9   -669093.22046  23777466.227    23777465.2164   23777470.9754
      1896.667        1477.922
  -1056739.627 9   -283486.81446  25229654.711    25229654.3945   25229661.2024
      3670.040        2859.771
   1493855.067 9   1143325.39146  23423978.299    23423978.1414   23423983.2594
     -3151.638       -2455.822
  -1549826.391 9  -1188111.529 8  22890517.289    22890516.799    22890521.290
      3459.542        2695.747
     16371.728 9     12183.30848  20127277.339    20127276.9404   20127281.5994
       -37.706         -29.381
   -847675.553 9   -649767.75547  22402721.727    22402721.6764   22402726.4074
      1848.134        1440.104
   -675972.789 9   -519548.33948  21029919.759    21029918.9114   21029924.1504
      1539.802        1199.846
   1445655.768 9   1116676.96446  24134018.794    24134017.6134   24134023.3334
     -3075.488       -2396.484
 96 10  8 15 13 59.9990000  0  9 23 22 21 30 28  6 26 17 10         -0.000312002
  -1394068.839 9  -1071223.40348  21931184.429    21931183.6414   21931189.3314
      2884.884        2247.961
   -928900.882 9   -713434.15746  23766637.685    23766636.7304   23766642.3884
      1896.628        1477.892
  -1167045.326 9   -369439.29246  25208664.211    25208663.7944   25208670.4564
      3683.348        2870.141
   1588230.596 9   1216864.73946  23441937.374    23441937.2414   23441942.3694
     -3140.114       -2446.842
  -1653778.413 9  -1269113.090 8  22870735.894    22870735.405    22870739.820
      3470.403        2704.210
     17512.388 9     13072.12348  20127494.401    20127494.0284   20127498.6944
       -38.468         -29.975
   -903116.186 9   -692968.24547  22392171.768    22392171.7234   22392176.4424
      1847.812        1439.854
   -722288.446 9   -555638.44948  21021106.169    21021105.3494   21021110.6104
      1547.862        1206.126
   1537737.249 9   1188428.72346  24151541.305    24151540.0764   24151545.7814
     -3063.703       -2387.301
 96 10  8 15 14 29.9990000  0  9 23 22 21 30 28  6 26 17 10         -0.000318991
  -1480679.112 9  -1138711.90148  21914703.062    21914702.2644   21914707.9074
      2888.829        2251.035
   -985801.715 9   -757772.47146  23755809.773    23755808.8844   23755814.4884
      1896.364        1477.686
  -1277737.708 9   -455693.05246  25187600.165    25187599.6624   25187606.5254
      3695.699        2879.765
   1682259.790 9   1290134.22146  23459830.556    23459830.4484   23459835.5384
     -3128.732       -2437.973
  -1758054.389 9  -1350367.090 8  22850892.895    22850892.396    22850896.727
      3481.068        2712.521
     18680.911 9     13982.65948  20127716.750    20127716.3704   20127721.0764
       -39.577         -30.839
   -958557.047 9   -736168.89747  22381621.788    22381621.6874   22381626.4154
      1847.924        1439.941
   -768848.456 9   -591918.96848  21012246.133    21012245.2964   21012250.5424
      1555.825        1212.331
   1629467.099 9   1259906.48546  24168997.004    24168995.7124   24169001.4894
     -3052.029       -2378.204
 96 10  8 15 14 59.9990000  0  9 23 22 21 30 28  6 26 17 10         -0.000326249
  -1567385.678 9  -1206275.43248  21898203.387    21898202.5764   21898208.1784
      2891.374        2253.019
  -1042676.456 9   -802090.44946  23744986.999    23744986.0364   23744991.4244
      1895.054        1476.665
  -1388773.067 9   -542214.06646  25166470.807    25166470.4004   25166477.1824
      3706.562        2888.230
   1775956.534 9   1363144.65046  23477660.495    23477660.3794   23477665.4524
     -3117.522       -2429.238
  -1862638.394 9  -1431861.098 8  22830991.252    22830990.780    22830995.024
      3491.093        2720.332
     19882.522 9     14918.97848  20127945.457    20127945.0844   20127949.7714
       -40.408         -31.487
  -1013981.034 9   -779356.40547  22371074.994    22371074.8994   22371079.5924
      1846.826        1439.085
   -815636.449 9   -628377.13148  21003342.716    21003341.8804   21003347.0974
      1563.330        1218.179
   1720855.239 9   1331117.99446  24186387.676    24186386.3684   24186392.0824
     -3040.766       -2369.428
 96 10  8 15 15 29.9990000  0  9 23 22 21 30 28  6 26 17 10         -0.000333756
  -1654153.083 9  -1273886.37048  21881692.089    21881691.2914   21881696.8614
      2892.956        2254.251
  -1099491.967 9   -846362.26746  23734175.390    23734174.4594   23734179.7084
      1892.172        1474.420
  -1500120.218 9   -628978.02046  25145282.229    25145281.6674   25145288.5634
      3716.469        2895.950
   1869305.663 9   1435884.19846  23495424.239    23495424.1334   23495429.2744
     -3105.893       -2420.176
  -1967512.847 9  -1513581.433 8  22811034.362    22811033.862    22811038.113
      3500.228        2727.450
     21111.130 9     15876.33848  20128179.312    20128178.9454   20128183.6124
       -41.902         -32.651
  -1069354.987 9   -822504.92147  22360537.688    22360537.6004   22360542.2934
      1844.451        1437.235
   -862635.190 9   -664999.51548  20994399.148    20994398.3344   20994403.5314
      1569.572        1223.043
   1811918.308 9   1402076.19846  24203716.467    24203715.1494   24203720.7824
     -3030.261       -2361.242
 96 10  8 15 15 59.9990000  0  9 23 22 21 30 28  6 26 17 10         -0.000341506
  -1740963.198 9  -1341530.59348  21865172.686    21865171.8804   21865177.4294
      2894.162        2255.191
  -1156205.198 9   -890554.39946  23723383.356    23723382.3384   23723387.5274
      1888.514        1471.569
  -1611761.933 9   -715971.49546  25124037.502    25124036.9244   25124043.8304
      3726.148        2903.492
   1962302.474 9   1508349.22046  23513120.931    23513120.7594   23513126.0674
     -3094.030       -2410.932
  -2072653.815 9  -1595509.440 8  22791026.714    22791026.243    22791030.517
      3508.946        2734.244
     22395.536 9     16877.16748  20128423.750    20128423.3994   20128428.0874
       -43.943         -34.241
  -1124647.028 9   -865589.61247  22350015.993    22350015.9194   22350020.5964
      1841.632        1435.038
   -909809.882 9   -701759.01048  20985422.128    20985421.2994   20985426.5054
      1575.360        1227.553
   1902661.417 9   1472785.09346  24220984.421    24220983.0664   24220988.7144
     -3019.617       -2352.948
 96 10  8 15 16 29.9990000  0  9 23 22 21 30 28  6 26 17 10         -0.000349489
  -1827783.850 9  -1409183.02148  21848651.254    21848650.4354   21848655.9924
      2894.149        2255.181
  -1212789.660 9   -934646.18846  23712615.738    23712614.7724   23712619.9114
      1884.102        1468.131
  -1723680.648 8   -803180.83446  25102740.080    25102739.4884   25102746.3594
      3735.421        2910.718
   2054955.430 9   1580546.29646  23530752.176    23530752.0144   23530757.3854
     -3082.567       -2402.000
  -2178037.257 9  -1677626.394 8  22770972.945    22770972.504    22770976.770
      3516.819        2740.378
     23760.609 9     17940.85948  20128683.529    20128683.1834   20128687.9004
       -46.841         -36.499
  -1179837.588 9   -908595.21947  22339513.562    22339513.4894   22339518.1464
      1837.950        1432.169
   -957148.054 9   -738645.88548  20976414.010    20976413.1594   20976418.3704
      1580.639        1231.667
   1993095.836 9   1543253.43846  24238193.562    24238192.2264   24238197.8714
     -3009.304       -2344.912
 96 10  8 15 16 59.9990000  0  9 23 22 21 30 28  6 26 17 10         -0.000357696
  -1914587.267 9  -1476822.01948  21832133.140    21832132.3064   21832137.8664
      2892.838        2254.159
  -1269236.762 9   -978630.93446  23701874.300    23701873.3354   23701878.4584
      1878.999        1464.155
  -1835880.222 8   -890609.00946  25081389.140    25081388.4954   25081395.4164
      3744.459        2917.760
   2147270.607 9   1652480.16046  23548319.156    23548319.0054   23548324.4164
     -3071.775       -2393.591
  -2283643.993 9  -1759917.339 9  22750876.723    22750876.235    22750880.560
      3523.548        2745.622
     25226.137 9     19082.82448  20128962.500    20128962.1324   20128966.8134
       -51.074         -39.798
  -1234897.289 9   -951498.86347  22329036.069    22329036.0264   22329040.6774
      1832.697        1428.076
  -1004629.154 9   -775644.13948  20967378.674    20967377.8284   20967383.0314
      1584.796        1234.906
   2083233.654 9   1613490.67746  24255346.254    24255344.9194   24255350.6694
     -3000.110       -2337.748
 96 10  8 15 17 29.9990000  0  9 23 22 21 30 28  6 26 17 10         -0.000366121
  -2001364.610 9  -1544440.70148  21815619.931    21815619.1194   21815624.6984
      2892.015        2253.518
  -1325534.331 9  -1022499.17246  23691161.342    23691160.4124   23691165.4604
      1873.775        1460.084
  -1948353.181 8   -978250.19446  25059985.989    25059985.3834   25059992.6024
      3753.239        2924.602
   2239271.794 9   1724169.36046  23565826.365    23565826.2424   23565831.7124
     -3062.179       -2386.113
  -2389450.039 9  -1842363.594 9  22730742.521    22730742.035    22730746.382
      3529.756        2750.459
     26835.876 9     20337.16348  20129268.900    20129268.5034   20129273.1524
       -56.781         -44.245
  -1289801.147 9   -994281.06947  22318588.237    22318588.2094   22318592.8234
      1827.265        1423.843
  -1052233.139 9   -812738.13848  20958319.928    20958319.0934   20958324.3134
      1588.389        1237.706
   2173101.555 9   1683517.57046  24272447.595    24272446.2014   24272451.9784
     -2991.560       -2331.086
 96 10  8 15 17 59.9990000  0  9 23 22 21 30 28  6 26 17 10         -0.000374760
  -2088115.955 9  -1612039.12848  21799111.710    21799110.8794   21799116.4844
      2890.876        2252.631
  -1381669.792 9  -1066241.09246  23680479.229    23680478.2584   23680483.3334
      1868.050        1455.623
  -2061081.105 8  -1066090.06745  25038534.505    25038533.9164   25038541.2444
      3761.265        2930.856
   2331004.591 9   1795649.42846  23583282.425    23583282.3814   23583287.9014
     -3054.163       -2379.867
  -2495433.880 9  -1924948.386 9  22710574.457    22710573.995    22710578.398
      3535.268        2754.754
     28623.896 9     21730.41848  20129609.197    20129608.7914   20129613.4024
       -63.072         -49.147
  -1344546.065 9  -1036939.43147  22308170.668    22308170.6114   22308175.2224
      1821.855        1419.627
  -1099938.998 9   -849911.52748  20949241.833    20949241.0054   20949246.2234
      1591.526        1240.150
   2262721.235 9   1753351.06246  24289501.684    24289500.3424   24289506.2164
     -2983.802       -2325.041
 96 10  8 15 18 29.9990000  0  9 23 22 21 30 28  6 26 17 10         -0.000383592
  -2174830.781 9  -1679609.09348  21782610.418    21782609.5804   21782615.2174
      2889.940        2251.901
  -1437625.086 9  -1109842.61847  23669831.421    23669830.4564   23669835.5104
      1862.018        1450.923
  -2174040.324 8  -1154110.18245  25017039.119    25017038.4844   25017045.7874
      3769.097        2936.959
   2422517.152 9   1866957.87746  23600696.759    23600696.7394   23600702.2234
     -3046.935       -2374.235
  -2601574.481 9  -2007655.330 9  22690376.548    22690376.098    22690380.578
      3540.494        2758.826
     30615.532 9     23282.34448  20129988.222    20129987.8164   20129992.3964
       -70.053         -54.587
  -1399120.157 9  -1079464.67747  22297785.586    22297785.5144   22297790.1384
      1816.065        1415.116
  -1147741.529 9   -887160.24348  20940145.276    20940144.4484   20940149.6954
      1594.937        1242.808
   2352117.644 9   1823010.57246  24306513.357    24306512.0034   24306517.9064
     -2976.259       -2319.163
 96 10  8 15 18 59.9990000  0  9 23 22 21 30 28  6 26 17 10         -0.000392613
  -2261507.175 9  -1747149.12248  21766116.429    21766115.6124   21766121.2374
      2888.629        2250.880
  -1493382.237 9  -1153289.74047  23659221.331    23659220.2994   23659225.3974
      1855.112        1445.542
  -2287208.953 8  -1242293.46946  24995503.780    24995503.2794   24995510.5274
      3775.500        2941.948
   2513824.124 9   1938106.13646  23618072.064    23618071.9784   23618077.5104
     -3040.133       -2368.935
  -2707856.099 9  -2090472.161 9  22670151.806    22670151.369    22670155.908
      3545.013        2762.348
     32838.316 9     25014.37848  20130411.219    20130410.8004   20130415.3624
       -77.895         -60.697
  -1453499.023 9  -1121837.80047  22287437.597    22287437.5654   22287442.1284
      1809.228        1409.788
  -1195625.502 9   -924472.42448  20931033.287    20931032.4634   20931037.7044
      1597.497        1244.803
   2441302.253 9   1892505.04246  24323484.621    24323483.3044   24323489.2424
     -2969.309       -2313.747
 96 10  8 15 19 29.9990000  0  9 23 22 21 30 28  6 26 17 10         -0.000401812
  -2348146.439 9  -1814660.21148  21749629.554    21749628.7084   21749634.3474
      2887.178        2249.749
  -1548919.427 9  -1196565.48947  23648652.978    23648651.9744   23648657.1004
      1847.308        1439.461
  -2400556.453 8  -1330616.15546  24973934.546    24973933.9664   24973941.2844
      3781.129        2946.334
   2604934.185 9   2009100.94846  23635409.859    23635409.7294   23635415.2884
     -3033.807       -2364.005
  -2814268.030 9  -2173390.528 9  22649902.254    22649901.849    22649906.415
      3549.085        2765.521
     35292.626 9     26926.82248  20130878.269    20130877.8614   20130882.3884
       -85.608         -66.708
  -1507672.912 9  -1164051.20447  22277128.606    22277128.5664   22277133.1344
      1802.264        1404.361
  -1243586.911 9   -961844.94348  20921906.553    20921905.7304   20921910.9794
      1599.866        1246.649
   2530280.010 9   1961838.32346  24340416.562    24340415.2224   24340421.2304
     -2962.611       -2308.528
 96 10  8 15 19 59.9990000  0  9 23 22 21 30 28  6 26 17 10         -0.000411173
  -2434727.455 9  -1882125.92048  21733153.750    21733152.9164   21733158.5154
      2884.790        2247.888
  -1604216.369 9  -1239654.01946  23638130.330    23638129.3184   23638134.5044
      1839.217        1433.156
  -2514074.941 9  -1419072.09446  24952332.777    24952332.0804   24952339.4264
      3786.644        2950.632
   2695850.610 9   2079944.87846  23652710.759    23652710.6194   23652716.1614
     -3027.169       -2358.833
  -2920795.748 9  -2256399.116 9  22629630.683    22629630.285    22629634.895
      3552.697        2768.335
     37976.191 9     29017.90748  20131388.949    20131388.5654   20131393.0534
       -93.303         -72.704
  -1561625.024 9  -1206091.79247  22266861.902    22266861.8174   22266866.3464
      1794.368        1398.209
  -1291611.647 9   -999266.79948  20912767.774    20912766.9434   20912772.1954
      1601.832        1248.181
   2619056.719 9   2031014.93546  24357310.306    24357309.0114   24357314.9264
     -2955.906       -2303.303
 96 10  8 15 20 29.9990000  0  9 23 22 21 30 28  6 26 17 10         -0.000420696
  -2521234.149 9  -1949533.71748  21716692.071    21716691.2394   21716696.8454
      2882.533        2246.130
  -1659284.204 9  -1282564.02546  23627651.282    23627650.2904   23627655.3954
      1832.311        1427.775
  -2627758.927 9  -1507656.99146  24930699.561    24930698.8444   24930705.9954
      3792.618        2955.287
   2786546.965 9   2150617.33746  23669969.683    23669969.6064   23669975.1724
     -3018.867       -2352.364
  -3027438.964 9  -2339497.710 9  22609337.132    22609336.742    22609341.381
      3557.092        2771.760
     40881.904 9     31282.09948  20131941.956    20131941.5654   20131945.9964
      -100.065         -77.973
  -1615334.136 9  -1247943.04247  22256641.420    22256641.3634   22256645.8574
      1786.546        1392.114
  -1339710.687 9  -1036746.56248  20903614.809    20903614.0284   20903619.2494
      1604.918        1250.585
   2707625.465 9   2100029.49946  24374164.498    24374163.1364   24374169.0654
     -2948.506       -2297.537
 96 10  8 15 20 59.9990000  0  9 23 22 21 30 28  6 26 17 10         -0.000430381
  -2607653.720 9  -2016873.62748  21700246.971    21700246.1544   21700251.7504
      2878.891        2243.292
  -1714129.639 9  -1325300.72346  23617214.489    23617213.4894   23617218.6224
      1824.133        1421.402
  -2741601.045 9  -1596365.12246  24909036.261    24909035.4834   24909042.4684
      3796.984        2958.689
   2877003.510 9   2221102.90846  23687183.041    23687182.9314   23687188.5374
     -3011.512       -2346.633
  -3134195.624 9  -2422684.701 9  22589022.015    22589021.618    22589026.293
      3560.122        2774.121
     43997.306 9     33709.67548  20132534.796    20132534.4194   20132538.8864
      -107.538         -83.796
  -1668794.404 9  -1289600.37447  22246468.252    22246468.1934   22246472.6734
      1777.707        1385.226
  -1387871.367 9  -1074274.35348  20894450.158    20894449.3384   20894454.5524
      1606.006        1251.433
   2795992.061 9   2168886.55146  24390980.151    24390978.8734   24390984.6384
     -2942.535       -2292.884
 96 10  8 15 21 29.9990000  0  9 23 22 21 30 28  6 26 17 10         -0.000440227
  -2693981.161 9  -2084141.74748  21683819.391    21683818.5874   21683824.1474
      2875.969        2241.015
  -1768747.773 9  -1367860.31346  23606820.989    23606819.9484   23606825.1014
      1816.855        1415.731
  -2855595.720 9  -1685192.11646  24887343.880    24887343.1544   24887349.9834
      3802.465        2962.960
   2967226.374 9   2291406.39946  23704351.886    23704351.7294   23704357.3574
     -3003.588       -2340.458
  -3241062.410 9  -2505957.501 9  22568685.942    22568685.550    22568690.259
      3564.099        2777.220
     47321.878 9     36300.24348  20133167.425    20133167.0774   20133171.5534
      -114.452         -89.183
  -1722023.347 9  -1331077.45147  22236339.138    22236339.0794   22236343.5764
      1770.591        1379.681
  -1436092.224 9  -1111849.03648  20885274.066    20885273.2494   20885278.4564
      1608.377        1253.281
   2884159.216 9   2237588.18746  24407757.909    24407756.6204   24407762.4104
     -2935.668       -2287.534
 96 10  8 15 21 59.9990000  0  9 23 22 21 30 28  6 26 17 10         -0.000450244
  -2780208.357 9  -2151331.75148  21667410.902    21667410.1054   21667415.6224
      2872.396        2238.231
  -1823150.905 9  -1410252.36746  23596468.400    23596467.3424   23596472.5244
      1809.782        1410.220
  -2969748.185 9  -1774142.06446  24865621.345    24865620.7154   24865627.2784
      3807.357        2966.772
   3057212.283 9   2361525.26646  23721475.628    23721475.5614   23721481.1574
     -2995.713       -2334.322
  -3348042.947 9  -2589318.937 9  22548328.220    22548327.823    22548332.570
      3567.733        2780.052
     50857.246 9     39055.06748  20133840.225    20133839.8594   20133844.3594
      -121.527         -94.696
  -1775033.255 9  -1372383.85347  22226251.690    22226251.6144   22226256.1854
      1763.221        1373.938
  -1484376.605 9  -1149473.22148  20876085.859    20876085.0244   20876090.2704
      1610.432        1254.882
   2972120.305 9   2306129.26146  24424496.377    24424495.0934   24424500.8794
     -2928.669       -2282.080
 96 10  8 15 22 29.9990000  0  9 23 22 21 30 28  6 26 17 10         -0.000460433
  -2866334.817 9  -2218443.25848  21651021.558    21651020.7704   21651026.2514
      2869.151        2235.702
  -1877337.060 9  -1452475.33946  23586157.137    23586156.0034   23586161.1864
      1802.289        1404.381
  -3084041.822 9  -1863202.02846  24843871.981    24843871.4004   24843877.8234
      3812.199        2970.545
   3146960.649 9   2431459.01346  23738554.157    23738554.1444   23738559.7844
     -2987.869       -2328.210
  -3455136.096 9  -2672768.123 9  22527949.103    22527948.680    22527953.449
      3571.548        2783.024
     54605.052 9     41975.42548  20134553.467    20134553.0904   20134557.5684
      -128.580        -100.192
  -1827830.419 9  -1413524.47647  22216204.693    22216204.6294   22216209.2114
      1756.503        1368.704
  -1532729.969 9  -1187151.15748  20866884.508    20866883.6824   20866888.9284
      1612.725        1256.669
   3059866.071 9   2374502.55346  24441193.943    24441192.6874   24441198.3524
     -2921.359       -2276.384
 96 10  8 15 22 59.9990000  0  9 23 22 21 30 28  6 26 17 10         -0.000470800
  -2952364.831 9  -2285479.61548  21634650.621    21634649.8054   21634655.2544
      2866.071        2233.302
  -1931286.585 9  -1494513.94746  23575890.774    23575889.7074   23575894.8184
      1794.214        1398.089
  -3198483.922 9  -1952377.68145  24822094.347    24822093.7874   24822100.0244
      3817.227        2974.463
   3236478.681 9   2501213.28746  23755588.958    23755588.8924   23755594.5234
     -2980.048       -2322.115
  -3562338.926 9  -2756302.776 9  22507549.071    22507548.663    22507553.462
      3575.241        2785.902
     58574.257 9     45068.30848  20135308.807    20135308.4464   20135312.9084
      -136.102        -106.053
  -1880429.149 9  -1454510.48147  22206195.480    22206195.4494   22206200.0084
      1749.937        1363.587
  -1581138.316 9  -1224871.93848  20857672.722    20857671.9114   20857677.1194
      1614.614        1258.141
   3147382.105 9   2442696.82246  24457847.876    24457846.5374   24457852.1784
     -2913.178       -2270.009
 96 10  8 15 23 29.9990000  0  9 23 22 21 30 28  6 26 17 10         -0.000481348
  -3038293.822 9  -2352437.25548  21618298.868    21618298.0894   21618303.4994
      2862.278        2230.346
  -1984996.553 9  -1536365.86546  23565670.068    23565669.0344   23565674.1464
      1786.355        1391.965
  -3313078.095 9  -2041671.80245  24800287.788    24800287.1944   24800293.4214
      3822.415        2978.505
   3325756.266 9   2570780.20546  23772577.909    23772577.8924   23772583.5354
     -2971.733       -2315.636
  -3669650.971 9  -2839922.540 9  22487128.222    22487127.827    22487132.683
      3578.787        2788.665
     62767.789 9     48335.98948  20136106.850    20136106.4844   20136110.9294
      -143.357        -111.707
  -1932822.289 9  -1495336.27947  22196225.449    22196225.4104   22196229.9114
      1742.564        1357.842
  -1629615.857 9  -1262646.63348  20848447.772    20848446.9644   20848452.1594
      1617.056        1260.044
   3234642.094 9   2510691.58046  24474453.013    24474451.6394   24474457.3144
     -2904.455       -2263.212
 96 10  8 15 23 59.9990000  0  9 23 22 21 30 28  6 26 17 10         -0.000492072
  -3124112.796 9  -2419309.16548  21601968.104    21601967.3194   21601972.6644
      2859.147        2227.907
  -2038474.980 9  -1578037.36246  23555493.450    23555492.4204   23555497.5414
      1778.881        1386.141
  -3427835.851 9  -2131093.43445  24778450.094    24778449.4084   24778455.5264
      3828.204        2983.016
   3414773.152 9   2640143.97246  23789517.353    23789517.3144   23789522.9654
     -2962.620       -2308.535
  -3777069.695 9  -2923625.425 9  22466687.081    22466686.722    22466691.611
      3582.580        2791.621
     67168.704 9     51765.27248  20136944.350    20136943.9874   20136948.4184
      -149.953        -116.846
  -1984980.506 9  -1535979.03547  22186300.077    22186300.0144   22186304.4904
      1734.789        1351.784
  -1678164.142 9  -1300476.45848  20839209.350    20839208.5264   20839213.7254
      1619.679        1262.088
   3321633.997 9   2578477.42746  24491007.011    24491005.7034   24491011.2614
     -2895.090       -2255.914
 96 10  8 15 24 29.9990000  0  9 23 22 21 30 28  6 26 17 10         -0.000502969
  -3209835.039 9  -2486105.70048  21585655.735    21585654.9284   21585660.2524
      2855.813        2225.309
  -2091715.668 9  -1619523.63546  23545362.117    23545361.1174   23545366.1704
      1770.775        1379.825
  -3542762.418 9  -2220646.57845  24756580.266    24756579.6084   24756585.7844
      3833.960        2987.501
   3503526.251 9   2709302.19246  23806406.537    23806406.4824   23806412.0844
     -2953.921       -2301.757
  -3884594.139 9  -3007410.688 9  22446225.892    22446225.499    22446230.405
      3585.933        2794.234
     71780.310 9     55358.72448  20137821.921    20137821.5274   20137825.9724
      -157.164        -122.465
  -2036896.346 9  -1576432.91247  22176420.818    22176420.7794   22176425.1914
      1726.516        1345.337
  -1726791.103 9  -1338367.58748  20829955.888    20829955.0884   20829960.3134
      1622.151        1264.014
   3408353.367 9   2646050.92546  24507509.200    24507507.9074   24507513.5444
     -2886.298       -2249.063
 96 10  8 15 24 59.9990000  0  9 23 22 21 30 28  6 26 17 10         -0.000514092
  -3295457.777 9  -2552824.69248  21569362.257    21569361.4544   21569366.8094
      2852.241        2222.525
  -2144720.157 9  -1660825.82746  23535275.738    23535274.6984   23535279.8094
      1762.613        1373.465
  -3657873.444 9  -2310343.47045  24734675.354    24734674.7534   24734680.9544
      3839.785        2992.040
   3592013.157 9   2778252.98446  23823245.060    23823245.0894   23823250.7214
     -2945.416       -2295.129
  -3992218.606 9  -3091273.895 9  22425745.625    22425745.239    22425750.131
      3588.763        2796.439
     76599.579 9     59113.99248  20138738.976    20138738.6144   20138743.0314
      -164.359        -128.072
  -2088556.911 9  -1616687.87947  22166590.145    22166590.0654   22166594.4674
      1717.260        1338.125
  -1775487.908 9  -1376313.14048  20820689.202    20820688.3944   20820693.6134
      1624.224        1265.629
   3494817.116 9   2713425.24046  24523962.743    24523961.5654   24523967.1214
     -2878.444       -2242.943
 96 10  8 15 25 29.9990000  0  9 23 22 21 30 28  6 26 17 10         -0.000525300
  -3380991.393 9  -2619474.24948  21553085.708    21553084.9474   21553090.3274
      2850.018        2220.793
  -2197498.428 9  -1701951.76346  23525232.444    23525231.4094   23525236.4364
      1755.849        1368.194
  -3773170.138 9  -2400185.01946  24712735.130    24712734.4344   24712740.9124
      3846.641        2997.383
   3680227.145 9   2846991.12146  23840031.704    23840031.7224   23840037.3284
     -2935.726       -2287.579
  -4099940.267 9  -3175212.845 9  22405246.897    22405246.466    22405251.379
      3592.615        2799.440
     81617.284 9     63023.87948  20139693.846    20139693.4584   20139697.8504
      -170.284        -132.689
  -2139952.350 9  -1656736.25447  22156809.926    22156809.8554   22156814.2024
      1709.072        1331.744
  -1824263.056 9  -1414319.74548  20811407.589    20811406.7764   20811411.9944
      1627.281        1268.011
   3581041.135 9   2780612.75246  24540370.660    24540369.5574   24540375.0234
     -2870.161       -2236.489
 96 10  8 15 25 59.9990000  0  9 23 22 21 30 28  6 26 17 10         -0.000536667
  -3466450.587 9  -2686065.80548  21536823.337    21536822.5904   21536828.0474
      2848.078        2219.282
  -2250049.492 9  -1742900.64346  23515232.322    23515231.2614   23515236.2534
      1748.437        1362.418
  -3888647.789 9  -2490167.58746  24690760.460    24690759.7154   24690766.3334
      3852.710        3002.112
   3768185.867 9   2915530.34046  23856769.758    23856769.8204   23856775.3724
     -2927.324       -2281.032
  -4207756.598 9  -3259225.557 9  22384730.132    22384729.696    22384734.604
      3595.977        2802.060
     86840.943 9     67094.25748  20140687.911    20140687.5104   20140691.8684
      -177.271        -138.133
  -2191092.530 9  -1696585.73147  22147078.279    22147078.2094   22147082.5554
      1701.257        1325.655
  -1873102.289 9  -1452376.28248  20802113.758    20802112.9464   20802118.1854
      1629.531        1269.764
   3667046.191 9   2847629.63646  24556737.047    24556735.7734   24556741.2684
     -2862.814       -2230.764
 96 10  8 15 26 29.9990000  0  9 23 22 21 30 28  6 26 17 10         -0.000548201
  -3551835.736 9  -2752599.66448  21520575.064    21520574.3244   21520579.8544
      2845.016        2216.896
  -2302372.979 9  -1783672.18446  23505275.452    23505274.4684   23505279.4214
      1740.652        1356.352
  -4004298.221 9  -2580284.76646  24668752.925    24668752.1914   24668758.7324
      3858.142        3006.344
   3855899.548 9   2983878.61146  23873461.118    23873461.2244   23873466.7784
     -2919.391       -2274.850
  -4315665.798 9  -3343310.632 9  22364195.720    22364195.276    22364200.152
      3598.699        2804.181
     92283.431 9     71335.15248  20141723.591    20141723.1894   20141727.5364
      -184.782        -143.986
  -2241991.061 9  -1736246.89947  22137392.594    22137392.5494   22137396.9414
      1692.742        1319.020
  -1922001.648 9  -1490479.67648  20792808.431    20792807.6624   20792812.9314
      1631.064        1270.959
   3752841.024 9   2914482.70646  24573063.314    24573062.0304   24573067.6834
     -2856.084       -2225.520
 96 10  8 15 26 59.9990000  0  9 23 22 21 30 28  6 26 17 10         -0.000559909
  -3637139.341 9  -2819069.98248  21504342.347    21504341.5884   21504347.1584
      2841.017        2213.779
  -2354477.209 9  -1824272.89446  23495360.213    23495359.2304   23495364.3814
      1732.053        1349.652
  -4120121.362 9  -2670536.52546  24646712.553    24646711.7024   24646718.3184
      3862.332        3009.609
   3943353.874 9   3052024.79646  23890103.164    23890103.2544   23890108.9134
     -2911.835       -2268.962
  -4423665.600 9  -3427466.316 9  22343644.069    22343643.620    22343648.446
      3600.362        2805.477
     97944.758 9     75746.56848  20142800.885    20142800.5024   20142804.8404
      -193.716        -150.948
  -2292643.572 9  -1775716.36947  22127753.794    22127753.7224   22127758.0964
      1683.245        1311.619
  -1970949.379 9  -1528620.76248  20783494.016    20783493.2264   20783498.4834
      1631.472        1271.277
   3838419.790 9   2981167.41346  24589348.304    24589347.0144   24589352.7894
     -2849.913       -2220.711
 96 10  8 15 27 29.9990000  0  9 23 22 21 30 28  6 26 17 10         -0.000571802
  -3722354.489 9  -2885471.37148  21488126.470    21488125.6954   21488131.2954
      2838.303        2211.665
  -2406360.713 9  -1864701.59646  23485487.175    23485486.1564   23485491.3084
      1725.213        1344.322
  -4236094.997 9  -2760905.53446  24624643.358    24624642.6214   24624649.3434
      3867.576        3013.696
   4030538.847 9   3119961.10746  23906694.055    23906694.0334   23906699.6244
     -2902.125       -2261.396
  -4531751.629 9  -3511689.181 9  22323075.952    22323075.534    22323080.315
      3603.753        2808.119
    103845.927 9     80344.87148  20143923.852    20143923.4584   20143927.8004
      -201.338        -156.887
  -2343051.095 9  -1814994.94047  22118161.497    22118161.4304   22118165.8144
      1675.738        1305.770
  -2019951.347 9  -1566804.10748  20774169.238    20774168.4474   20774173.7244
      1633.767        1273.065
   3923771.730 9   3047675.37146  24605590.146    24605588.8354   24605594.6964
     -2841.815       -2214.401
 96 10  8 15 27 59.9990000  0  9 23 22 21 30 28  6 26 17 10         -0.000583882
  -3807460.151 9  -2951787.44748  21471931.427    21471930.6434   21471936.2314
      2834.950        2209.052
  -2458017.070 9  -1904953.29246  23475657.211    23475656.2194   23475661.5484
      1718.021        1338.718
  -4352203.388 9  -2851379.55946  24602548.645    24602547.8844   24602554.6794
      3872.522        3017.550
   4117452.666 9   3187686.11246  23923233.302    23923233.2784   23923238.8384
     -2892.323       -2253.758
  -4639917.901 9  -3595974.577 9  22302492.634    22302492.177    22302496.906
      3606.839        2810.524
    110000.577 9     85140.69648  20145095.058    20145094.6414   20145098.9794
      -209.457        -163.213
  -2393209.754 9  -1854079.59347  22108616.616    22108616.5664   22108620.9374
      1667.687        1299.496
  -2069007.372 9  -1605029.57748  20764834.168    20764833.3614   20764838.6514
      1636.218        1274.975
   4008891.951 9   3114002.77446  24621787.911    24621786.7584   24621792.5894
     -2833.497       -2207.920
 96 10  8 15 28 29.9990000  0  9 23 22 21 30 28  6 26 17 10         -0.000596152
  -3892454.201 9  -3018016.55748  21455757.632    21455756.8274   21455762.4134
      2831.057        2206.018
  -2509447.741 9  -1945029.14446  23465870.261    23465869.2674   23465874.6834
      1710.308        1332.707
  -4468448.070 9  -2941959.78846  24580428.009    24580427.2634   24580434.1474
      3876.999        3021.038
   4204071.747 9   3255181.46446  23939716.270    23939716.3844   23939721.9474
     -2882.466       -2246.077
  -4748165.543 9  -3680323.374 9  22281893.790    22281893.331    22281898.036
      3609.428        2812.541
    116410.183 9     90135.18148  20146314.729    20146314.3594   20146318.7114
      -218.105        -169.952
  -2443110.524 9  -1892963.29647  22099120.794    22099120.7724   22099125.1654
      1658.795        1292.568
  -2118129.604 9  -1643306.63848  20755486.485    20755485.7144   20755490.9784
      1638.279        1276.581
   4093768.830 9   3180140.56046  24637939.499    24637938.3084   24637944.1404
     -2825.328       -2201.554
 96 10  8 15 28 59.9990000  0  9 23 22 21 30 28  6 26 17 10         -0.000608610
  -3977331.986 9  -3084155.07248  21439605.896    21439605.1184   21439610.6554
      2827.307        2203.096
  -2560638.438 9  -1984918.00546  23456129.041    23456128.0684   23456133.4774
      1702.218        1326.404
  -4584823.151 9  -3032641.63346  24558282.555    24558281.8034   24558288.7884
      3881.302        3024.391
   4290394.206 9   3322445.67746  23956142.934    23956142.9694   23956148.5614
     -2872.618       -2238.404
  -4856488.350 9  -3764730.746 9  22261280.613    22261280.181    22261284.887
      3611.998        2814.544
    123085.380 9     95336.62548  20147585.008    20147584.6234   20147588.9594
      -226.767        -176.702
  -2492747.202 9  -1931641.21847  22089675.269    22089675.1994   22089679.5874
      1650.211        1285.879
  -2167310.112 9  -1681629.11048  20746127.763    20746126.9954   20746132.2284
      1640.389        1278.225
   4178408.453 9   3246093.47346  24654045.973    24654044.7884   24654050.6384
     -2817.473       -2195.434
 96 10  8 15 29 29.9990000  0  9 23 22 21 30 28  6 26 17 10         -0.000621242
  -4062088.094 9  -3150198.76948  21423477.372    21423476.5624   21423482.0824
      2823.239        2199.926
  -2611576.974 9  -2024610.37146  23446435.818    23446434.8334   23446440.2784
      1693.808        1319.850
  -4701326.351 9  -3123423.29746  24536112.622    24536111.9844   24536119.0344
      3885.871        3027.951
   4376434.120 9   3389489.73846  23972515.847    23972515.8404   23972521.3804
     -2863.358       -2231.188
  -4964884.282 9  -3849195.098 9  22240653.566    22240653.127    22240657.815
      3614.527        2816.515
    130007.050 9    100730.12348  20148902.208    20148901.8014   20148906.1474
      -234.416        -182.662
  -2542121.396 9  -1970114.60847  22080279.689    22080279.6024   22080283.9744
      1641.601        1279.170
  -2216547.732 9  -1719996.08048  20736758.191    20736757.4094   20736762.6194
      1642.162        1279.607
   4262818.508 9   3311867.49546  24670108.713    24670107.4974   24670113.3604
     -2809.726       -2189.397
 96 10  8 15 29 59.9990000  0  9 23 22 21 30 28  6 26 17 10         -0.000634035
  -4146717.992 9  -3216144.12748  21407372.843    21407372.0374   21407377.5134
      2818.711        2196.398
  -2662258.771 9  -2064102.68846  23436791.422    23436790.4654   23436795.9694
      1684.897        1312.907
  -4817960.586 9  -3214307.07846  24513917.803    24513917.1934   24513924.3034
      3889.795        3031.009
   4462217.032 9   3456333.54246  23988839.841    23988839.8694   23988845.3684
     -2855.417       -2225.000
  -5073347.200 9  -3933711.643 9  22220013.798    22220013.335    22220018.013
      3616.246        2817.854
    137163.073 9    106306.22848  20150263.912    20150263.5354   20150267.9284
      -242.621        -189.055
  -2591226.152 9  -2008378.03947  22070935.371    22070935.2724   22070939.6664
      1632.022        1271.705
  -2265827.809 9  -1758396.14048  20727380.512    20727379.7304   20727384.9494
      1643.082        1280.324
   4346995.294 9   3377459.75346  24686126.982    24686125.8964   24686131.7594
     -2802.293       -2183.605
 96 10  8 15 30 29.9990000  0  9 23 22 21 30 28  6 26 17 10         -0.000646987
  -4231223.121 9  -3281992.26048  21391292.037    21391291.2394   21391296.6904
      2814.114        2192.816
  -2712685.745 9  -2103396.44246  23427195.503    23427194.5534   23427200.1044
      1676.102        1306.053
  -4934733.910 9  -3305299.22346  24491696.548    24491695.8884   24491703.1024
      3894.335        3034.547
   4547750.021 9   3522982.57046  24005116.291    24005116.2944   24005121.8514
     -2847.640       -2218.940
  -5181871.610 9  -4018276.107 9  22199362.316    22199361.836    22199366.503
      3617.875        2819.123
    144547.508 9    112060.32448  20151669.133    20151668.7544   20151673.1914
      -250.445        -195.152
  -2640061.331 9  -2046431.41347  22061642.332    22061642.2554   22061646.6344
      1622.950        1264.636
  -2315140.837 9  -1796821.87948  20717996.512    20717995.7874   20718001.0164
      1643.677        1280.787
   4430937.032 9   3442868.85646  24702100.606    24702099.5254   24702105.4204
     -2794.724       -2177.707
 96 10  8 15 30 59.9990000  0  9 23 22 21 30 28  6 26 17 10         -0.000660102
  -4315606.070 9  -3347745.18948  21375234.480    21375233.7094   21375239.1584
      2811.174        2190.525
  -2762863.311 9  -2142495.86246  23417647.133    23417646.1574   23417651.6244
      1668.807        1300.369
  -5051655.346 9  -3396406.78546  24469447.166    24469446.5124   24469453.6594
      3899.991        3038.954
   4633030.723 9   3589435.02746  24021344.596    24021344.6784   24021350.3144
     -2837.994       -2211.424
  -5290455.536 9  -4102886.947 9  22178699.452    22178698.966    22178703.639
      3620.719        2821.339
    152145.882 9    117981.11648  20153115.037    20153114.6604   20153119.1184
      -256.417        -199.805
  -2688646.492 9  -2084289.97247  22052396.876    22052396.7894   22052401.1764
      1615.739        1259.017
  -2364488.662 9  -1835274.72348  20708605.960    20708605.2144   20708610.4204
      1645.998        1282.596
   4514634.709 9   3508087.78446  24718027.702    24718026.6024   24718032.7124
     -2785.426       -2170.462
 96 10  8 15 31 29.9990000  0  9 23 22 21 30 28  6 26 17 10         -0.000673384
  -4399873.888 9  -3413408.39948  21359198.822    21359198.0314   21359203.5144
      2806.589        2186.952
  -2812800.891 9  -2181408.27246  23408144.401    23408143.4064   23408148.8314
      1660.305        1293.744
  -5168715.846 9  -3487622.72146  24447171.315    24447170.7284   24447177.6964
      3903.865        3041.973
   4718044.848 9   3655679.73346  24037522.155    24037522.3064   24037528.0254
     -2829.600       -2204.883
  -5399095.926 9  -4187541.786 9  22158025.796    22158025.373    22158030.032
      3621.842        2822.215
    159949.491 9    124061.83648  20154599.968    20154599.6164   20154604.0994
      -264.189        -205.862
  -2736989.403 9  -2121959.76347  22043197.554    22043197.4424   22043201.8374
      1607.131        1252.310
  -2413892.403 9  -1873771.14648  20699204.797    20699204.0434   20699209.2184
      1647.440        1283.719
   4598068.670 9   3573101.19546  24733904.655    24733903.4584   24733909.6764
     -2777.016       -2163.909
 96 10  8 15 31 59.9990000  0  9 23 22 21 30 28  6 26 17 10         -0.000686846
  -4484022.637 9  -3478978.83748  21343185.842    21343185.0634   21343190.5254
      2802.759        2183.968
  -2862506.708 9  -2220140.09246  23398685.686    23398684.7134   23398690.0704
      1652.711        1287.827
  -5285906.791 9  -3578940.31746  24424870.717    24424870.1004   24424877.0014
      3908.323        3045.446
   4802783.896 9   3721710.11846  24053647.482    24053647.6364   24053653.4234
     -2820.152       -2197.521
  -5507783.936 9  -4272233.729 9  22137343.137    22137342.718    22137347.362
      3623.380        2823.413
    167986.090 9    130324.11148  20156129.320    20156128.9724   20156133.4504
      -272.139        -212.056
  -2785089.772 9  -2159440.56447  22034044.314    22034044.2344   22034048.6224
      1598.889        1245.888
  -2463357.985 9  -1912315.75548  20689791.880    20689791.1134   20689796.2394
      1649.605        1285.406
   4681236.893 8   3637907.54746  24749731.170    24749729.8624   24749736.1484
     -2768.297       -2157.115
 96 10  8 15 32 29.9990000  0  9 23 22 21 30 28  6 26 17 10         -0.000700482
  -4568050.163 9  -3544454.81148  21327195.961    21327195.1734   21327200.6224
      2798.682        2180.791
  -2911967.660 9  -2258681.10346  23389273.569    23389272.6064   23389277.9444
      1644.244        1281.229
  -5403230.535 9  -3670361.38546  24402544.817    24402544.1464   24402550.9134
      3912.737        3048.886
   4887231.863 9   3787513.67546  24069717.454    24069717.4944   24069723.4214
     -2810.176       -2189.747
  -5616511.868 9  -4356956.787 9  22116652.867    22116652.466    22116657.105
      3624.725        2824.461
    176261.709 9    136772.63348  20157704.185    20157703.8054   20157708.2704
      -279.972        -218.160
  -2832935.595 9  -2196723.01947  22024939.593    22024939.5024   22024943.8814
      1590.308        1239.201
  -2512885.454 9  -1950908.58848  20680367.126    20680366.3784   20680371.4934
      1651.833        1287.143
   4764150.145 8   3702515.21246  24765508.967    24765507.8114   24765514.1444
     -2759.853       -2150.535
 96 10  8 15 32 59.9990000  0  9 23 22 21 30 28  6 26 17 10         -0.000714284
  -4651954.480 9  -3609834.78748  21311229.520    21311228.7404   21311234.1594
      2794.324        2177.395
  -2961167.016 9  -2297018.26546  23379911.279    23379910.2694   23379915.6154
      1635.232        1274.207
  -5520674.783 9  -3761876.35546  24380195.895    24380195.2384   24380201.8914
      3916.389        3051.732
   4971374.003 9   3853078.92346  24085729.270    24085729.2424   24085735.1734
     -2799.818       -2181.676
  -5725279.188 9  -4441710.536 9  22095955.170    22095954.748    22095959.393
      3625.938        2825.406
    184770.552 9    143402.88848  20159323.423    20159323.0354   20159327.4614
      -287.815        -224.271
  -2880512.954 9  -2233796.28347  22015885.926    22015885.8614   22015890.1904
      1580.810        1231.800
  -2562484.093 9  -1989556.87548  20670928.855    20670928.0884   20670933.1824
      1654.220        1289.003
   4846807.243 8   3766923.27245  24781237.991    24781237.0694   24781243.4064
     -2751.315       -2143.882
 96 10  8 15 33 29.9990000  0  9 23 22 21 30 28  6 26 17 10         -0.000728231
  -4735710.352 9  -3675099.08748  21295291.326    21295290.5564   21295295.9554
      2789.605        2173.718
  -3010086.030 9  -2335136.99946  23370602.332    23370601.3034   23370606.7304
      1626.048        1267.050
  -5638231.133 9  -3853478.68946  24357825.643    24357824.9444   24357831.5914
      3920.845        3055.204
   5055219.463 9   3918412.99246  24101684.630    24101684.6264   24101690.6084
     -2789.839       -2173.901
  -5834074.915 9  -4526486.416 9  22075252.053    22075251.629    22075256.269
      3627.240        2826.421
    193525.891 9    150225.22048  20160989.468    20160989.1154   20160993.5424
      -295.707        -230.421
  -2927780.639 9  -2270628.24547  22006891.260    22006891.1654   22006895.4214
      1570.477        1223.748
  -2612140.254 9  -2028249.98748  20661479.626    20661478.8604   20661483.9264
      1656.249        1290.584
   4929218.204 8   3831139.54345  24796920.227    24796919.3114   24796925.6474
     -2742.887       -2137.314
 96 10  8 15 33 59.9990000  0  9 23 22 21 30 28  6 26 17 10         -0.000742308
  -4819320.534 9  -3740249.85748  21279380.864    21279380.0724   21279385.4564
      2784.688        2169.887
  -3058709.243 9  -2373025.24046  23361349.667    23361348.6444   23361354.0594
      1615.605        1258.913
  -5755909.003 9  -3945175.72046  24335432.279    24335431.5644   24335438.1924
      3924.610        3058.138
   5138778.584 9   3983523.92546  24117585.508    24117585.5364   24117591.4834
     -2780.505       -2166.627
  -5942895.100 9  -4611281.357 9  22054544.311    22054543.846    22054548.493
      3627.676        2826.761
    202529.738 9    157241.19548  20162702.880    20162702.5074   20162706.9434
      -304.164        -237.011
  -2974716.121 9  -2307201.34847  21997959.808    21997959.6974   21997963.8754
      1558.861        1214.697
  -2661836.426 9  -2066974.27748  20652022.802    20652022.0264   20652027.0844
      1657.176        1291.306
   5011397.588 8   3895175.36446  24812558.580    24812557.5614   24812563.9024
     -2735.624       -2131.655
 96 10  8 15 34 29.9990000  0  9 23 22 21 30 28  6 26 17 10         -0.000756503
  -4902780.594 9  -3805283.66048  21263498.941    21263498.1674   21263503.5114
      2779.375        2165.747
  -3107013.166 9  -2410664.66646  23352157.710    23352156.7314   23352162.1294
      1604.832        1250.518
  -5873691.781 9  -4036954.48946  24313019.010    24313018.2394   24313024.8164
      3927.528        3060.411
   5222052.897 9   4048412.94046  24133432.297    24133432.3114   24133438.1204
     -2771.061       -2159.268
  -6051730.845 9  -4696088.422 9  22033833.523    22033833.110    22033837.739
      3628.065        2827.064
    211781.888 9    164450.64248  20164463.511    20164463.1344   20164467.5954
      -312.662        -243.633
  -3021309.791 9  -2343508.10748  21989093.333    21989093.2344   21989097.3254
      1547.639        1205.952
  -2711568.377 9  -2105726.44848  20642559.167    20642558.3904   20642563.4184
      1658.232        1292.129
   5093352.087 9   3959035.95445  24828154.180    24828153.0644   24828159.3284
     -2728.051       -2125.754
 96 10  8 15 34 59.9990000  0  9 23 22 21 30 28  6 26 17 10         -0.000770832
  -4986087.099 9  -3870197.80748  21247646.229    21247645.4554   21247650.7694
      2774.317        2161.805
  -3155003.371 9  -2448059.64946  23343025.460    23343024.5024   23343029.7814
      1594.512        1242.477
  -5991557.035 9  -4128797.52846  24290589.973    24290589.2724   24290595.7244
      3930.023        3062.356
   5305043.213 9   4113080.64746  24149224.996    24149225.0394   24149230.6564
     -2761.797       -2152.050
  -6160576.482 9  -4780903.194 9  22013120.930    22013120.503    22013125.073
      3628.170        2827.145
    221299.239 9    171866.74648  20166274.607    20166274.2324   20166278.7184
      -322.050        -250.948
  -3067574.882 9  -2379558.82647  21980289.318    21980289.2494   21980293.3004
      1536.675        1197.409
  -2761326.633 9  -2144499.11348  20633090.524    20633089.7604   20633094.7564
      1658.849        1292.610
   5175081.532 9   4022721.20145  24843706.946    24843705.6864   24843712.0294
     -2720.745       -2120.061
 96 10  8 15 35 29.9990000  0  9 23 22 21 30 28  6 26 17 10         -0.000785304
  -5069248.245 9  -3934998.68548  21231821.201    21231820.4384   21231825.6964
      2770.018        2158.456
  -3202690.220 9  -2485218.23446  23333950.908    23333949.9854   23333955.3244
      1584.798        1234.908
  -6109497.555 9  -4220699.19146  24268146.590    24268145.9284   24268152.3774
      3932.851        3064.559
   5387763.332 9   4177537.80946  24164966.303    24164966.3214   24164971.8304
     -2752.632       -2144.908
  -6269425.224 9  -4865720.386 9  21992407.685    21992407.299    21992411.867
      3628.624        2827.499
    231100.824 9    179504.32948  20168139.824    20168139.4524   20168143.9184
      -331.133        -258.026
  -3113522.453 9  -2415362.13647  21971545.730    21971545.6944   21971549.7504
      1526.765        1189.687
  -2811103.167 9  -2183286.02748  20623618.401    20623617.6244   20623622.6444
      1659.781        1293.336
   5256588.354 8   4086232.97445  24859217.249    24859216.0234   24859222.2484
     -2712.808       -2113.876
 96 10  8 15 35 59.9990000  0  9 23 22 21 30 28  6 26 17 10         -0.000799920
  -5152263.849 9  -3999686.15248  21216023.862    21216023.1124   21216028.2984
      2764.455        2154.121
  -3250069.479 9  -2522137.15646  23324934.951    23324934.0024   23324939.3324
      1574.195        1226.645
  -6227498.553 9  -4312648.00246  24245691.767    24245691.0984   24245697.5494
      3934.243        3065.644
   5470225.543 9   4241794.02746  24180658.425    24180658.5104   24180664.0094
     -2744.583       -2138.636
  -6378266.189 9  -4950531.514 9  21971695.971    21971695.574    21971700.100
      3627.728        2826.801
    241195.995 9    187370.68648  20170060.876    20170060.5104   20170064.9694
      -341.532        -266.129
  -3159157.272 9  -2450921.73548  21962861.718    21962861.6784   21962865.7844
      1515.828        1181.165
  -2860885.492 9  -2222077.44948  20614145.180    20614144.3884   20614149.4414
      1659.283        1292.948
   5337873.908 9   4149572.34145  24874685.332    24874683.9344   24874690.5474
     -2705.973       -2108.550
 96 10  8 15 36 29.9990000  0  9 23 22 21 30 28  6 26 17 10         -0.000814685
  -5235112.934 9  -4064243.86748  21200258.250    21200257.4724   21200262.5994
      2758.605        2149.562
  -3297146.658 9  -2558820.68546  23315976.526    23315975.5664   23315980.8774
      1564.116        1218.792
  -6345550.009 9  -4404636.12746  24223227.302    24223226.6474   24223233.1224
      3935.773        3066.836
   5552437.018 9   4305854.86146  24196302.769    24196302.8774   24196308.3884
     -2736.508       -2132.344
  -6487089.395 9  -5035328.810 9  21950987.645    21950987.234    21950991.743
      3626.879        2826.139
    251595.014 9    195473.80048  20172039.735    20172039.3874   20172043.8394
      -351.863        -274.179
  -3204477.951 9  -2486236.54847  21954237.569    21954237.4884   21954241.6134
      1505.190        1172.875
  -2910660.133 9  -2260862.88348  20604673.381    20604672.5864   20604677.6594
      1658.735        1292.521
   5418939.868 9   4212740.58845  24890111.651    24890110.3664   24890116.9174
     -2698.789       -2102.952
 96 10  8 15 36 59.9990000  0  9 23 22 21 30 28  6 26 17 10         -0.000829591
  -5317792.269 9  -4128669.30448  21184524.892    21184524.1164   21184529.2484
      2752.827        2145.060
  -3343923.125 9  -2595269.88846  23307075.256    23307074.3304   23307079.6174
      1553.937        1210.860
  -6463659.902 9  -4496669.77546  24200751.707    24200751.1104   24200757.5414
      3937.876        3068.475
   5634414.559 8   4369733.39146  24211902.555    24211902.6854   24211908.2094
     -2729.085       -2126.560
  -6595887.986 9  -5120106.919 9  21930283.941    21930283.559    21930288.051
      3625.950        2825.416
    262297.666 9    203813.51248  20174076.377    20174076.0504   20174080.5134
      -362.019        -282.093
  -3249470.643 9  -2521295.79048  21945675.794    21945675.7074   21945679.8214
      1493.839        1164.030
  -2960416.555 9  -2299634.11848  20595205.006    20595204.2274   20595209.3184
      1658.190        1292.096
   5499790.910 9   4275741.37645  24905497.164    24905495.8554   24905502.4544
     -2691.772       -2097.485
 96 10  8 15 37 29.9990000  0  9 23 22 21 30 28  6 26 17 10         -0.000844617
  -5400280.543 9  -4192945.87148  21168827.888    21168827.1194   21168832.2794
      2746.626        2140.228
  -3390392.456 9  -2631479.78346  23298232.515    23298231.6014   23298236.7724
      1544.410        1203.436
  -6581836.775 9  -4588755.62746  24178263.376    24178262.8434   24178269.1884
      3940.931        3070.855
   5716173.296 8   4433441.42745  24227460.712    24227460.8204   24227466.3744
     -2720.964       -2120.232
  -6704654.774 9  -5204860.258 9  21909586.354    21909585.938    21909590.410
      3625.452        2825.028
    273297.340 9    212384.66348  20176169.566    20176169.2354   20176173.7694
      -370.948        -289.050
  -3294112.367 9  -2556081.55547  21937180.809    21937180.7254   21937184.7994
      1482.470        1155.171
  -3010159.851 9  -2338395.13248  20585739.149    20585738.3874   20585743.4744
      1658.358        1292.227
   5580433.330 8   4338579.59045  24920842.921    24920841.6884   24920848.3254
     -2684.158       -2091.552
 96 10  8 15 37 59.9990000  0  9 23 22 21 30 28  6 26 17 10         -0.000859758
  -5482556.383 9  -4257056.89648  21153171.301    21153170.5384   21153175.7084
      2738.790        2134.122
  -3436560.756 9  -2667455.09346  23289447.088    23289446.1664   23289451.1834
      1533.834        1195.195
  -6700076.547 9  -4680890.48746  24155763.132    24155762.5454   24155768.8424
      3941.966        3071.662
   5797707.583 8   4496974.57945  24242976.127    24242976.1644   24242981.8444
     -2714.098       -2114.881
  -6813380.770 9  -5289581.806 9  21888896.492    21888896.098    21888900.501
      3623.299        2823.350
    284589.749 9    221183.92648  20178318.460    20178318.1264   20178322.7024
      -381.584        -297.338
  -3338381.798 9  -2590577.21448  21928756.627    21928756.5524   21928760.6484
      1469.304        1144.912
  -3059890.558 9  -2377146.32748  20576275.730    20576274.9774   20576280.0594
      1657.410        1291.488
   5660879.991 8   4401265.27045  24936151.407    24936150.2374   24936156.8304
     -2678.781       -2087.362
 96 10  8 15 38 29.9990000  0  8 23 22 21 30 28  6 26 17            -0.000875014
  -5564617.952 9  -4321000.95748  21137555.466    21137554.7274   21137559.9304
      2731.969        2128.807
  -3482431.621 9  -2703198.64246  23280718.247    23280717.3194   23280722.1634
      1524.125        1187.630
  -6818358.800 9  -4773058.43446  24133254.776    24133254.1934   24133260.4634
      3943.535        3072.884
   5879013.507 8   4560329.80445  24258448.209    24258448.0694   24258453.8334
     -2706.278       -2108.788
  -6922061.429 9  -5374268.026 9  21868215.306    21868214.889    21868219.227
      3621.975        2822.318
    296178.829 9    230214.35948  20180523.804    20180523.4624   20180528.0894
      -391.087        -304.743
  -3382279.650 9  -2624783.33748  21920403.170    21920403.1144   21920407.1994
      1457.172        1135.459
  -3109620.627 9  -2415897.03048  20566812.443    20566811.6884   20566816.7864
      1657.907        1291.876
 96 10  8 15 38 59.9990000  0  8 23 22 21 30 28  6 26 17            -0.000890372
  -5646457.488 9  -4384772.00448  21121981.887    21121981.1334   21121986.3894
      2724.130        2122.699
  -3527993.543 9  -2738701.44346  23272048.139    23272047.2184   23272052.0524
      1513.366        1179.246
  -6936670.678 9  -4865249.47946  24110740.764    24110740.1584   24110746.4174
      3943.794        3073.086
   5960098.042 8   4623512.49145  24273878.037    24273877.8624   24273883.8374
     -2698.999       -2103.116
  -7030683.363 9  -5458908.485 9  21847545.253    21847544.860    21847549.127
      3619.533        2820.415
    308071.451 9    239481.32348  20182786.916    20182786.5924   20182791.2334
      -401.808        -313.097
  -3425791.353 9  -2658688.56248  21912123.217    21912123.1174   21912127.2114
      1443.735        1124.988
  -3159353.610 9  -2454650.00448  20557348.561    20557347.8084   20557352.9424
      1657.617        1291.650
 96 10  8 15 39 29.9990000  0  8 23 22 21 30 28  6 26 17            -0.000905841
  -5728077.313 9  -4448371.84648  21106450.147    21106449.3984   21106454.6834
      2716.826        2117.007
  -3573243.200 9  -2773960.93946  23263437.486    23263436.5434   23263441.2454
      1502.653        1170.898
  -7054990.400 9  -4957446.65246  24088225.217    24088224.6504   24088230.8874
      3943.685        3073.001
   6040939.078 8   4686505.44245  24289261.608    24289261.3774   24289267.4454
     -2690.884       -2096.793
  -7139240.616 9  -5543498.541 9  21826887.536    21826887.099    21826891.354
      3617.053        2818.483
    320274.647 9    248990.29648  20185109.156    20185108.8214   20185113.4844
      -412.324        -321.291
  -3468912.022 9  -2692289.08648  21903917.647    21903917.5524   21903921.6234
      1430.374        1114.577
  -3209080.303 9  -2493398.07548  20547885.866    20547885.1434   20547890.2914
      1656.813        1291.023
 96 10  8 15 39 59.9990000  0  8 23 22 21 30 28  6 26 17            -0.000921417
  -5809492.993 9  -4511812.62248  21090957.265    21090956.5364   21090961.8174
      2710.671        2112.211
  -3618162.829 9  -2808963.26546  23254889.639    23254888.6674   23254893.3714
      1491.488        1162.198
  -7173306.713 9  -5049641.13746  24065710.398    24065709.7614   24065716.0484
      3943.947        3073.205
   6121533.615 9   4749306.34945  24304598.255    24304598.0594   24304604.1434
     -2682.349       -2090.142
  -7247726.582 9  -5628033.055 9  21806243.357    21806242.919    21806247.154
      3615.078        2816.944
    332798.636 9    258749.22848  20187492.393    20187492.0754   20187496.7504
      -422.872        -329.511
  -3511637.760 9  -2725581.87348  21895787.221    21895787.1074   21895791.1954
      1417.873        1104.836
  -3258777.988 9  -2532123.54148  20538428.699    20538427.9784   20538433.1454
      1656.039        1290.420
 96 10  8 15 40 29.9990000  0  8 23 22 21 30 28  6 26 17            -0.000937096
  -5890704.075 9  -4575093.96648  21075503.300    21075502.5924   21075507.8604
      2703.119        2106.326
  -3662716.154 9  -2843680.15446  23246411.445    23246410.4934   23246415.2534
      1478.451        1152.040
  -7291632.072 9  -5141842.68546  24043193.790    24043193.1384   24043199.4944
      3944.304        3073.484
   6201886.994 9   4811919.36345  24319889.081    24319888.9314   24319894.9144
     -2674.765       -2084.232
  -7356134.996 9  -5712507.137 9  21785613.892    21785613.463    21785617.718
      3611.893        2814.462
    345653.736 9    268766.17448  20189938.658    20189938.3234   20189943.0214
      -434.379        -338.477
  -3553970.107 9  -2758568.12148  21887731.639    21887731.5554   21887735.6504
      1403.979        1094.010
  -3308427.271 9  -2570811.29448  20528980.724    20528980.0294   20528985.2304
      1653.636        1288.548
 96 10  8 15 40 59.9990000  0  8 23 22 21 30 28  6 26 17            -0.000952875
  -5971698.221 9  -4638206.26848  21060090.654    21060089.9134   21060095.1914
      2695.987        2100.769
  -3706888.129 9  -2878099.89947  23238005.771    23238004.8294   23238009.6354
      1465.839        1142.212
  -7409984.627 9  -5234065.44446  24020671.963    24020671.3454   24020677.6184
      3945.349        3074.298
   6281992.566 9   4874339.25445  24335132.825    24335132.6734   24335138.4614
     -2665.977       -2077.385
  -7464458.208 9  -5796914.828 9  21765000.644    21765000.227    21765004.498
      3609.233        2812.389
    358848.503 9    279047.79048  20192449.576    20192449.2394   20192453.9194
      -445.772        -347.355
  -3595894.354 9  -2791236.36048  21879753.777    21879753.6734   21879757.7704
      1390.655        1083.627
  -3358005.360 9  -2609443.57048  20519546.350    20519545.6404   20519550.8604
      1651.062        1286.542
 96 10  8 15 41 29.9990000  0  8 23 22 21 30 28  6 26 17            -0.000968762
  -6052458.365 9  -4701136.23748  21044722.541    21044721.7814   21044727.0114
      2688.105        2094.627
  -3750665.044 9  -2912211.81646  23229675.215    23229674.3174   23229679.2534
      1452.903        1132.132
  -7528361.117 9  -5326306.85446  23998145.667    23998145.0064   23998151.2954
      3946.679        3075.334
   6361845.993 9   4936562.66245  24350328.417    24350328.3174   24350334.3244
     -2657.621       -2070.874
  -7572684.642 9  -5881247.113 9  21744405.781    21744405.411    21744409.762
      3606.044        2809.904
    372402.504 9    289609.33348  20195028.825    20195028.4984   20195033.1814
      -457.619        -356.586
  -3637406.871 9  -2823583.78248  21871854.212    21871854.1274   21871858.2554
      1377.119        1073.080
  -3407488.961 9  -2648002.22548  20510130.001    20510129.2754   20510134.4904
      1648.196        1284.309
 96 10  8 15 41 59.9990000  0  8 23 22 21 30 28  6 26 17            -0.000984762
  -6132979.133 9  -4763879.67448  21029399.931    21029399.1824   21029404.3974
      2680.084        2088.377
  -3794062.229 9  -2946027.80647  23221417.011    23221416.1404   23221421.0944
      1440.539        1122.498
  -7646788.264 9  -5418587.71046  23975609.739    23975609.0554   23975615.2194
      3948.535        3076.781
   6441446.455 9   4998588.94545  24365475.849    24365475.7784   24365481.6594
     -2648.876       -2064.059
  -7680821.265 9  -5965509.411 9  21723828.079    21723827.713    21723832.099
      3603.174        2807.668
    386306.056 9    300443.25748  20197674.613    20197674.3084   20197678.9584
      -469.096        -365.529
  -3678524.198 9  -2855623.26148  21864029.855    21864029.8034   21864033.8824
      1364.243        1063.046
  -3456899.107 9  -2686503.63348  20500727.522    20500726.8164   20500732.0764
      1646.223        1282.771
 96 10  8 15 42 29.9990000  0  8 23 22 21 30 28  6 26 17            -0.001000866
  -6213228.916 9  -4826411.95748  21014128.898    21014128.1544   21014133.3514
      2669.912        2080.451
  -3837076.977 9  -2979545.79847  23213231.663    23213230.7914   23213235.8014
      1427.207        1112.109
  -7765239.821 9  -5510887.60246  23953069.079    23953068.5154   23953074.6274
      3947.926        3076.306
   6520806.684 9   5060428.07545  24380577.615    24380577.5634   24380583.3364
     -2641.865       -2058.596
  -7788843.892 9  -6049682.878 9  21703272.095    21703271.694    21703276.121
      3598.254        2803.834
    400574.744 9    311561.70048  20200389.896    20200389.6064   20200394.2824
      -482.164        -375.712
  -3719226.835 9  -2887339.60648  21856284.380    21856284.3264   21856288.3884
      1349.285        1051.391
  -3506239.024 9  -2724950.32248  20491338.454    20491337.7554   20491343.0054
      1643.131        1280.362
 96 10  8 15 42 59.9980000  0  8 23 22 21 30 28  6 26 17            -0.001017072
  -6293200.178 9  -4888727.21348  20998910.826    20998910.0934   20998915.3164
      2661.447        2073.855
  -3879721.963 9  -3012775.68246  23205116.625    23205115.7334   23205120.8524
      1415.559        1103.033
  -7883673.988 9  -5603173.95146  23930531.793    23930531.1964   23930537.3964
      3947.672        3076.108
   6599932.555 9   5122084.57845  24395634.709    24395634.7064   24395640.5104
     -2633.697       -2052.231
  -7896735.835 9  -6133754.515 9  21682740.946    21682740.551    21682744.999
      3594.506        2800.914
    415213.503 9    322968.50848  20203175.624    20203175.3164   20203179.9554
      -493.939        -384.888
  -3759506.564 9  -2918726.40748  21848619.400    21848619.3564   21848623.4124
      1335.866        1040.935
  -3555511.416 9  -2763344.39248  20481962.222    20481961.5264   20481966.7894
      1641.685        1279.235
 96 10  8 15 43 29.9980000  0  8 23 22 21 30 28  6 26 17            -0.001033370
  -6372909.424 9  -4950838.29248  20983742.635    20983741.9054   20983747.1584
      2652.783        2067.104
  -3922005.157 9  -3045723.64447  23197070.424    23197069.5394   23197074.6304
      1403.645        1093.749
  -8002088.719 9  -5695445.15146  23907998.247    23907997.6084   23908003.8354
      3946.868        3075.482
   6678836.082 9   5183567.81745  24410649.602    24410649.5844   24410655.4074
     -2626.339       -2046.498
  -8004507.156 9  -6217732.159 9  21662232.771    21662232.358    21662236.797
      3590.485        2797.781
    430205.116 9    334650.26948  20206028.451    20206028.1584   20206032.8024
      -505.161        -393.632
  -3799371.836 9  -2949790.25348  21841033.339    21841033.2864   21841037.3084
      1322.000        1030.130
  -3604741.701 9  -2801705.65248  20472594.045    20472593.3434   20472598.5474
      1640.644        1278.424
 96 10  8 15 43 59.9980000  0  8 23 22 21 30 28  6 26 17            -0.001049747
  -6452357.906 9  -5012746.18148  20968624.120    20968623.3734   20968628.6234
      2643.578        2059.931
  -3963927.514 9  -3078390.42646  23189092.912    23189092.0064   23189097.0374
      1390.961        1083.866
  -8120462.501 9  -5787684.43646  23885472.446    23885471.8684   23885478.0594
      3944.566        3073.688
   6757527.940 9   5244886.10945  24425624.323    24425624.2564   24425629.9874
     -2619.760       -2041.371
  -8112149.599 9  -6301609.378 9  21641749.082    21641748.685    21641753.105
      3585.492        2793.890
    445533.770 9    346594.66048  20208945.429    20208945.1184   20208949.7954
      -516.913        -402.789
  -3838812.706 9  -2980523.39448  21833527.999    21833527.9414   21833531.9604
      1307.260        1018.644
  -3653932.743 9  -2840036.33148  20463233.331    20463232.6124   20463237.8054
      1638.545        1276.788
 96 10  8 15 44 29.9980000  0  8 23 22 21 30 28  6 26 17            -0.001066205
  -6531545.921 9  -5074451.11148  20953555.206    20953554.4424   20953559.6274
      2635.184        2053.390
  -4005484.923 9  -3110772.84046  23181184.861    23181183.9024   23181188.9644
      1378.915        1074.479
  -8238786.096 9  -5879884.61346  23862956.241    23862955.6694   23862961.8384
      3943.152        3072.586
   6836001.543 9   5306034.34345  24440557.419    24440557.3374   24440563.0594
     -2612.228       -2035.502
  -8219662.398 9  -6385385.577 9  21621290.067    21621289.675    21621294.088
      3581.487        2790.769
    461192.317 9    358796.10848  20211925.181    20211924.8734   20211929.5514
      -527.417        -410.974
  -3877827.760 9  -3010924.73748  21826103.627    21826103.5974   21826107.5964
      1293.245        1007.723
  -3703074.274 9  -2878328.43348  20453881.987    20453881.3154   20453886.4824
      1636.823        1275.446
 96 10  8 15 44 59.9980000  0  8 23 22 21 30 28  6 26 17            -0.001082673
  -6610478.343 9  -5135956.87248  20938534.849    20938534.0994   20938539.2714
      2627.474        2047.382
  -4046657.822 9  -3142855.63847  23173349.845    23173348.9584   23173354.0294
      1366.455        1064.770
  -8357057.264 9  -5972043.93646  23840449.972    23840449.3524   23840455.6784
      3942.357        3071.966
   6914252.910 9   5367009.40545  24455448.186    24455448.2354   24455453.8224
     -2603.913       -2029.023
  -8327041.224 9  -6469057.382 9  21600856.565    21600856.160    21600860.573
      3577.750        2787.857
    477178.666 9    371252.99148  20214967.283    20214966.9834   20214971.6704
      -537.715        -418.999
  -3916407.882 9  -3040987.17148  21818762.063    21818762.0264   21818765.9974
      1279.397         996.933
  -3752140.024 9  -2916561.48448  20444545.117    20444544.4164   20444549.5814
      1634.872        1273.926
 96 10  8 15 45 29.9980000  0  8 23 22 21 30 28  6 26 17            -0.001099269
  -6689147.821 9  -5197257.75248  20923564.538    20923563.7974   20923568.9454
      2618.114        2040.089
  -4087429.044 9  -3174625.43047  23165591.319    23165590.4424   23165595.5334
      1352.536        1053.924
  -8475287.523 9  -6064171.37546  23817951.453    23817950.8614   23817957.2174
      3940.443        3070.475
   6992276.487 9   5427806.97845  24470295.654    24470295.6884   24470301.2484
     -2596.646       -2023.361
  -8434281.769 9  -6552621.433 9  21580449.360    21580448.941    21580453.382
      3572.447        2783.725
    493503.698 9    383973.78048  20218073.841    20218073.5344   20218078.2314
      -549.834        -428.442
  -3954541.345 9  -3070701.55848  21811505.520    21811505.4894   21811509.4044
      1263.810         984.787
  -3801113.345 9  -2954722.50648  20435225.805    20435225.0744   20435230.2524
      1630.875        1270.812
 96 10  8 15 45 59.9980000  0  8 23 22 21 30 28  6 26 17            -0.001115959
  -6767565.114 9  -5258362.12048  20908642.203    20908641.4514   20908646.6014
      2610.402        2034.079
  -4127803.549 9  -3206086.10347  23157908.315    23157907.4454   23157912.5404
      1339.751        1043.962
  -8593476.814 9  -6156266.91846  23795460.741    23795460.1134   23795466.5394
      3939.623        3069.836
   7070053.310 8   5488412.24245  24485096.202    24485096.1904   24485101.7824
     -2587.812       -2016.477
  -8541382.479 9  -6636076.526 9  21560068.741    21560068.337    21560072.798
      3568.253        2780.457
    510179.631 9    396967.99748  20221247.178    20221246.8954   20221251.6044
      -561.293        -437.371
  -3992229.101 9  -3100068.63948  21804333.814    21804333.7824   21804337.7164
      1249.364         973.530
  -3849987.993 9  -2992806.64748  20425925.257    20425924.5474   20425929.7014
      1628.147        1268.686
 96 10  8 15 46 29.9980000  0  8 23 22 21 30 28  6 26 17            -0.001132731
  -6845733.466 9  -5319272.51148  20893767.249    20893766.5224   20893771.6344
      2601.956        2027.498
  -4167768.726 9  -3237227.82047  23150303.236    23150302.3384   23150307.3804
      1325.660        1032.982
  -8711627.673 9  -6248332.50246  23772977.385    23772976.8254   23772983.1514
      3938.057        3068.616
   7147586.412 8   5548827.60545  24499850.237    24499850.3614   24499855.9204
     -2580.050       -2010.428
  -8648336.144 9  -6719417.041 9  21539716.133    21539715.728    21539720.179
      3562.956        2776.329
    527221.788 9    410247.58648  20224490.218    20224489.9154   20224494.6664
      -573.951        -447.235
  -4029458.915 9  -3129078.88548  21797249.239    21797249.2084   21797253.1534
      1233.652         961.287
  -3898761.692 9  -3030812.12748  20416643.946    20416643.2404   20416648.3824
      1624.513        1265.854
 96 10  8 15 46 59.9980000  0  8 23 22 21 30 28  6 26 17            -0.001149586
  -6923669.972 9  -5380002.23848  20878936.425    20878935.7004   20878940.8074
      2593.550        2020.948
  -4207329.535 9  -3268054.43947  23142775.034    23142774.1624   23142779.3034
      1312.012        1022.347
  -8829747.059 9  -6340373.55747  23750499.998    23750499.4474   23750505.8154
      3936.637        3067.509
   7224877.380 8   5609054.27445  24514558.421    24514558.4824   24514563.9944
     -2572.684       -2004.689
  -8755140.864 9  -6802641.493 9  21519391.877    21519391.474    21519395.880
      3557.405        2772.004
    544643.893 9    423823.24048  20227805.520    20227805.2574   20227810.0414
      -587.553        -457.834
  -4066237.581 9  -3157737.59248  21790250.490    21790250.4684   21790254.4444
      1218.429         949.425
  -3947449.936 9  -3068751.01548  20407378.835    20407378.1704   20407383.3104
      1621.561        1263.554
 96 10  8 15 47 29.9980000  0  8 23 22 21 30 28  6 26 17            -0.001166532
  -7001350.731 9  -5440532.68348  20864154.308    20864153.5474   20864158.6414
      2584.794        2014.125
  -4246513.325 9  -3298587.26947  23135318.643    23135317.7824   23135323.0084
      1299.737        1012.782
  -8947836.326 9  -6432391.15447  23728028.367    23728027.8264   23728034.1684
      3935.434        3066.572
   7301939.259 8   5669102.45145  24529222.909    24529222.9424   24529228.5454
     -2565.241       -1998.889
  -8861795.300 9  -6885748.840 9  21499096.229    21499095.831    21499100.180
      3552.324        2768.045
    562451.410 9    437699.21148  20231194.208    20231193.9304   20231198.7264
      -600.071        -467.588
  -4102581.754 9  -3186057.72348  21783334.443    21783334.3924   21783338.4324
      1204.068         938.235
  -3996074.104 9  -3106639.97948  20398125.987    20398125.2824   20398130.4294
      1619.590        1262.018
 96 10  8 15 47 59.9980000  0  8 23 22 21 30 28  6 26 17            -0.001183565
  -7078761.567 9  -5500852.79348  20849423.542    20849422.7774   20849427.8374
      2575.564        2006.933
  -4285323.946 9  -3328829.33747  23127933.270    23127932.4024   23127937.6554
      1287.414        1003.180
  -9065881.481 9  -6524374.37147  23705565.126    23705564.5854   23705570.9484
      3934.239        3065.641
   7378786.725 8   5728983.51445  24543846.439    24543846.3484   24543852.4294
     -2558.148       -1993.362
  -8968288.931 9  -6968730.885 9  21478831.203    21478830.788    21478835.085
      3546.940        2763.849
    580638.088 9    451870.63748  20234655.025    20234654.7664   20234659.5494
      -612.613        -477.361
  -4138490.387 9  -3214038.47348  21776501.273    21776501.2364   21776505.2614
      1189.634         926.988
  -4044635.638 9  -3144480.13148  20388885.070    20388884.3614   20388889.4724
      1617.513        1260.400
 96 10  8 15 48 29.9980000  0  8 23 22 21 30 28  6 26 17            -0.001200694
  -7155873.653 9  -5560940.11848  20834749.587    20834748.8514   20834753.8854
      2564.935        1998.651
  -4323758.168 9  -3358778.09647  23120619.525    23120618.6234   23120623.8374
      1274.577         993.177
  -9183889.938 9  -6616328.99647  23683108.848    23683108.3294   23683114.7234
      3932.574        3064.343
   7455429.118 8   5788704.79345  24558431.009    24558431.1284   24558437.1084
     -2551.339       -1988.056
  -9074612.122 9  -7051580.122 9  21458598.561    21458598.142    21458602.427
      3540.916        2759.155
    599208.781 9    466341.28548  20238188.938    20238188.6864   20238193.4784
      -625.749        -487.597
  -4173972.638 9  -3241686.97948  21769749.198    21769749.1664   21769753.2254
      1175.493         915.969
  -4093122.327 9  -3182261.96748  20379658.357    20379657.6854   20379662.7864
      1614.512        1258.061
 96 10  8 15 48 59.9980000  0  8 23 22 21 30 28  6 26 17            -0.001217937
  -7232670.794 9  -5620782.03148  20820135.547    20820134.8124   20820139.8644
      2554.250        1990.325
  -4361822.098 9  -3388438.31447  23113376.118    23113375.2734   23113380.4654
      1262.492         983.760
  -9301850.372 9  -6708246.20247  23660661.674    23660661.1824   23660667.6254
      3930.957        3063.083
   7531848.683 8   5848252.43445  24572973.288    24572973.2134   24572979.4354
     -2543.752       -1982.144
  -9180760.548 9  -7134293.173 9  21438399.157    21438398.762    21438403.079
      3535.212        2754.711
    618159.328 9    481107.92848  20241795.148    20241794.8644   20241799.6784
      -638.095        -497.217
  -4209042.099 9  -3269013.83448  21763075.702    21763075.6974   21763079.7344
      1161.721         905.237
  -4141526.678 9  -3219979.64248  20370447.296    20370446.6074   20370451.7214
      1611.804        1255.951
 96 10  8 15 49 29.9980000  0  8 23 22 21 30 28  6 26 17            -0.001235285
  -7309139.404 9  -5680367.94648  20805584.069    20805583.3354   20805588.3834
      2544.013        1982.348
  -4399503.761 9  -3417800.67547  23106205.577    23106204.7364   23106209.9224
      1249.422         973.576
  -9419750.977 9  -6800116.76947  23638225.913    23638225.4194   23638231.8954
      3929.202        3061.716
   7608040.043 8   5907622.25745  24587472.084    24587472.0014   24587478.2034
     -2535.572       -1975.770
  -9286730.341 9  -7216867.035 9  21418233.777    21418233.378    21418237.695
      3529.465        2750.232
    637478.985 9    496162.19048  20245471.570    20245471.2984   20245476.0844
      -650.039        -506.524
  -4243673.884 9  -3295999.63348  21756485.516    21756485.4914   21756489.5464
      1146.925         893.708
  -4189828.587 9  -3257617.48848  20361255.765    20361255.0644   20361260.1594
      1608.298        1253.219
 96 10  8 15 49 59.9980000  0  8 23 22 21 30 28  6 26 17            -0.001252728
  -7385321.093 9  -5739730.28848  20791087.190    20791086.4674   20791091.4994
      2534.019        1974.560
  -4436782.326 9  -3446848.92947  23099111.719    23099110.8214   23099116.1024
      1235.272         962.550
  -9537602.776 9  -6891949.32047  23615799.403    23615798.9554   23615805.4594
      3927.013        3060.010
   7683979.326 8   5966795.65145  24601922.978    24601922.8924   24601929.0264
     -2527.746       -1969.672
  -9392524.177 9  -7299303.784 9  21398101.879    21398101.499    21398105.824
      3522.854        2745.081
    657172.748 9    511507.96048  20249219.206    20249218.9074   20249223.7144
      -663.520        -517.029
  -4277854.355 9  -3322633.76548  21749981.204    21749981.1654   21749985.2544
      1131.019         881.314
  -4238020.470 9  -3295169.60248  20352085.165    20352084.4744   20352089.5314
      1603.864        1249.764
 96 10  8 15 50 29.9980000  0  8 23 22 21 30 28  6 26 17            -0.001270243
  -7461211.299 9  -5798865.49748  20776645.794    20776645.0674   20776650.0784
      2525.302        1967.768
  -4473640.452 9  -3475569.57047  23092097.913    23092096.9874   23092102.2674
      1221.719         951.989
  -9655388.600 9  -6983730.46447  23593385.514    23593385.0944   23593391.5654
      3925.013        3058.452
   7759678.309 8   6025781.80945  24616328.000    24616327.9484   24616334.0684
     -2519.059       -1962.903
  -9498128.409 9  -7381592.789 9  21378006.041    21378005.666    21378010.016
      3517.264        2740.725
    677261.039 9    527161.15348  20253041.870    20253041.5824   20253046.3844
      -675.785        -526.586
  -4311554.843 9  -3348893.88548  21743568.185    21743568.1254   21743572.2834
      1115.453         869.184
  -4286092.901 9  -3332628.63748  20342937.261    20342936.5904   20342941.6524
      1600.902        1247.456
 96 10  8 15 50 59.9980000  0  8 23 22 21 30 28  6 26 17            -0.001287788
  -7536825.585 9  -5857785.70748  20762256.846    20762256.1164   20762261.1334
      2515.759        1960.332
  -4510058.871 9  -3503947.58347  23085167.821    23085166.8714   23085172.2144
      1206.263         939.945
  -9773087.277 9  -7075443.69247  23570988.170    23570987.7534   23570994.2414
      3921.902        3056.028
   7835145.175 8   6084587.08045  24630688.796    24630688.8994   24630694.9974
     -2511.957       -1957.369
  -9603536.907 9  -7463729.278 9  21357947.465    21357947.103    21357951.477
      3510.214        2735.232
    697740.066 9    543118.81948  20256938.928    20256938.6594   20256943.4704
      -689.312        -537.126
  -4344744.782 9  -3374756.16948  21737252.385    21737252.3264   21737256.4774
      1097.508         855.201
  -4334053.085 9  -3370000.20948  20333810.761    20333810.0824   20333815.1344
      1596.762        1244.230
 96 10  8 15 51 29.9980000  0  8 23 22 21 30 28  6 26 17            -0.001305325
  -7612165.195 9  -5916491.88348  20747920.216    20747919.4894   20747924.5014
      2506.596        1953.192
  -4546011.372 9  -3531962.54147  23078326.297    23078325.3634   23078330.7284
      1190.374         927.564
  -9890710.338 9  -7167098.00846  23548605.243    23548604.7624   23548611.3014
      3919.273        3053.979
   7910394.883 8   6143223.16545  24645008.236    24645008.4274   24645014.4994
     -2504.851       -1951.832
  -9708741.684 9  -7545707.024 9  21337927.629    21337927.306    21337931.662
      3503.160        2729.735
    718617.875 9    559387.22148  20260911.886    20260911.5854   20260916.3974
      -702.708        -547.565
  -4377405.524 9  -3400206.09548  21731037.291    21731037.2114   21731041.3664
      1079.885         841.469
  -4381907.286 9  -3407289.19448  20324704.402    20324703.7104   20324708.7834
      1593.441        1241.642
 96 10  8 15 51 59.9980000  0  8 23 22 21 30 28  6 26 17            -0.001322836
  -7687219.868 9  -5974976.03348  20733637.764    20733637.0524   20733642.0634
      2496.891        1945.629
  -4581493.395 9  -3559610.89347  23071574.339    23071573.4144   23071578.7394
      1175.239         915.771
 -10008244.021 9  -7258682.67346  23526239.413    23526238.9084   23526245.3124
      3916.352        3051.703
   7985429.329 8   6201691.48245  24659286.755    24659286.9284   24659293.1924
     -2497.455       -1946.069
  -9813731.405 9  -7627517.190 9  21317948.792    21317948.452    21317952.796
      3496.168        2724.287
    739893.017 9    575965.23848  20264960.411    20264960.1154   20264964.9224
      -715.357        -557.421
  -4409544.329 9  -3425249.32148  21724921.472    21724921.4044   21724925.5984
      1062.838         828.185
  -4429675.974 9  -3444511.55148  20315614.276    20315613.6044   20315618.6844
      1591.125        1239.838
 96 10  8 15 52 29.9980000  0  8 23 22 21 30 28  6 26 17            -0.001340325
  -7761973.462 9  -6033225.57548  20719412.618    20719411.9254   20719416.9294
      2486.627        1937.631
  -4616525.018 9  -3586908.29747  23064908.073    23064907.1464   23064912.4374
      1160.106         903.979
 -10125691.318 9  -7350200.03546  23503889.905    23503889.4014   23503895.7714
      3913.293        3049.319
   8060236.038 9   6259982.37245  24673522.078    24673522.0444   24673528.2984
     -2489.830       -1940.127
  -9918512.821 9  -7709165.046 9  21298009.576    21298009.226    21298013.541
      3489.025        2718.721
    761529.479 9    592824.79548  20269077.733    20269077.4304   20269082.2284
      -727.286        -566.716
  -4441175.396 9  -3449896.90548  21718902.241    21718902.2144   21718906.4104
      1045.918         815.001
  -4477379.110 9  -3481682.82348  20306536.684    20306536.0254   20306541.1054
      1588.747        1237.985
 96 10  8 15 52 59.9980000  0  8 23 22 21 30 28  6 26 17            -0.001357817
  -7836421.044 9  -6091236.66348  20705245.714    20705245.0194   20705250.0174
      2476.229        1929.529
  -4651111.828 9  -3613859.07547  23058326.410    23058325.5114   23058330.8104
      1145.657         892.720
 -10243055.234 9  -7441652.41246  23481556.285    23481555.7534   23481562.1264
      3910.849        3047.415
   8134803.578 8   6318086.91445  24687711.929    24687711.8664   24687717.8894
     -2481.574       -1933.694
 -10023078.307 9  -7790644.639 9  21278111.407    21278111.044    21278115.392
      3481.754        2713.055
    783522.593 9    609962.26748  20273262.896    20273262.6024   20273267.4214
      -739.127        -575.943
  -4472304.902 9  -3474153.65848  21712978.510    21712978.4804   21712982.6584
      1029.314         802.063
  -4525000.605 9  -3518790.47548  20297474.612    20297473.9664   20297479.0394
      1585.866        1235.740
 96 10  8 15 53 29.9980000  0  8 23 22 21 30 28  6 26 17            -0.001375349
  -7910556.514 9  -6149004.55348  20691138.244    20691137.5294   20691142.5414
      2465.478        1921.152
  -4685287.061 9  -3640489.14447  23051823.101    23051822.1984   23051827.5274
      1132.352         882.352
 -10360338.281 9  -7533041.78546  23459238.046    23459237.5174   23459243.8314
      3907.236        3044.599
   8209121.636 9   6375997.02745  24701854.253    24701854.3514   24701860.2174
     -2473.642       -1927.513
 -10127427.740 9  -7871955.885 9  21258254.307    21258253.973    21258258.349
      3474.228        2707.191
    805868.052 9    627374.29148  20277515.095    20277514.7894   20277519.6104
      -751.163        -585.322
  -4502948.258 9  -3498031.60048  21707147.242    21707147.2254   21707151.3924
      1013.060         789.397
  -4572538.314 9  -3555832.85148  20288428.513    20288427.8574   20288432.9094
      1582.490        1233.109
 96 10  8 15 53 59.9980000  0  8 23 22 21 30 28  6 26 17            -0.001392979
  -7984365.885 9  -6206518.33348  20677092.804    20677092.0734   20677097.1164
      2454.940        1912.940
  -4719080.610 9  -3666821.80147  23045392.445    23045391.5474   23045396.8804
      1120.237         872.912
 -10477508.193 9  -7624342.99046  23436941.342    23436940.7944   23436947.0714
      3904.000        3042.078
   8283208.861 9   6433727.26445  24715952.720    24715952.8694   24715958.6424
     -2465.889       -1921.472
 -10231546.946 9  -7953087.728 9  21238441.028    21238440.718    21238445.139
      3466.799        2701.402
    828578.974 9    645071.09348  20281836.828    20281836.5564   20281841.3634
      -763.271        -594.757
  -4533107.684 9  -3521532.44748  21701408.088    21701408.0934   21701412.2694
       997.230         777.062
  -4619954.073 9  -3592780.19248  20279405.594    20279404.9414   20279409.9894
      1578.080        1229.673
 96 10  8 15 54 29.9980000  0  8 23 22 21 30 28  6 26 17            -0.001410748
  -8057863.416 9  -6263789.12848  20663106.699    20663105.9684   20663111.0134
      2444.566        1904.857
  -4752506.816 9  -3692868.22547  23039031.723    23039030.7804   23039036.0924
      1107.687         863.133
 -10594587.475 9  -7715573.57846  23414661.917    23414661.3634   23414667.6524
      3900.826        3039.605
   8357067.174 9   6491279.14445  24730007.519    24730007.4614   24730013.4304
     -2458.363       -1915.608
 -10335442.935 9  -8034045.641 9  21218670.288    21218669.950    21218674.412
      3459.192        2695.474
    851661.669 9    663057.58648  20286229.352    20286229.0924   20286233.8674
      -776.123        -604.771
  -4562791.772 9  -3544662.90548  21695759.411    21695759.4074   21695763.5454
       981.350         764.688
  -4667221.408 9  -3629611.88448  20270410.920    20270410.2794   20270415.2954
      1572.696        1225.477
 96 10  8 15 54 59.9980000  0  8 23 22 21 30 28  6 26 17            -0.001428658
  -8131040.346 9  -6320810.09648  20649181.568    20649180.8474   20649185.9124
      2433.335        1896.105
  -4785546.372 9  -3718613.35847  23032744.542    23032743.5684   23032748.9104
      1094.279         852.685
 -10711565.746 9  -7806725.45846  23392401.757    23392401.1684   23392407.3734
      3897.261        3036.827
   8430705.423 8   6548659.55545  24744020.468    24744020.4324   24744026.5094
     -2451.309       -1910.111
 -10439101.978 9  -8114818.916 9  21198944.648    21198944.299    21198948.772
      3450.947        2689.050
    875148.478 9    681358.97648  20290698.777    20290698.5164   20290703.2794
      -790.107        -615.668
  -4591993.953 9  -3567417.84448  21690202.432    21690202.4134   21690206.5614
       965.058         751.993
  -4714314.370 9  -3666307.69748  20261449.421    20261448.7794   20261453.8174
      1566.639        1220.758
 96 10  8 15 55 29.9980000  0  8 23 22 21 30 28  6 26 17            -0.001446695
  -8203891.412 9  -6377577.15148  20635318.460    20635317.7394   20635322.8164
      2422.863        1887.945
  -4818185.624 9  -3744046.57247  23026533.552    23026532.6184   23026537.9034
      1080.945         842.295
 -10828443.464 9  -7897798.99346  23370160.699    23370160.0944   23370166.3154
      3894.116        3034.376
   8504128.609 9   6605872.40145  24757992.403    24757992.5224   24757998.6574
     -2444.026       -1904.436
 -10542524.234 9  -8195407.681 9  21179264.024    21179263.691    21179268.195
      3443.304        2683.094
    899052.991 9    699985.85248  20295247.649    20295247.4024   20295252.1674
      -804.155        -626.614
  -4620716.990 9  -3589799.43148  21684736.646    21684736.6324   21684740.7844
       949.221         739.653
  -4761238.918 9  -3702872.27748  20252520.032    20252519.3664   20252524.3944
      1561.093        1216.436
 96 10  8 15 55 59.9980000  0  8 23 22 21 30 28  6 26 17            -0.001464834
  -8276417.061 9  -6434090.63448  20621517.289    20621516.5724   20621521.6574
      2412.500        1879.870
  -4850394.128 9  -3769144.13047  23020404.450    23020403.5354   23020408.8414
      1066.306         830.888
 -10945229.228 9  -7988800.89546  23347937.141    23347936.5444   23347942.6884
      3891.973        3032.706
   8577336.488 8   6662917.43445  24771923.542    24771923.3434   24771929.7524
     -2436.011       -1898.190
 -10645704.125 9  -8275807.590 9  21159629.541    21159629.212    21159633.733
      3435.621        2677.107
    923391.157 9    718950.63548  20299879.047    20299878.7914   20299883.5864
      -818.158        -637.526
  -4648951.002 9  -3611799.95848  21679363.860    21679363.8664   21679368.0344
       933.191         727.162
  -4807984.672 9  -3739297.53948  20243624.582    20243623.9504   20243628.9664
      1555.922        1212.407
 96 10  8 15 56 29.9980000  0  8 23 22 21 30 28  6 26 17            -0.001483015
  -8348619.695 9  -6490352.41248  20607777.604    20607776.8904   20607781.9394
      2401.454        1871.263
  -4882137.412 9  -3793879.18447  23014363.918    23014363.0204   23014368.2994
      1050.537         818.600
 -11061935.669 9  -8079740.95646  23325728.711    23325728.0424   23325734.2184
      3888.838        3030.263
   8650308.192 8   6719778.44045  24785809.597    24785809.4524   24785815.6704
     -2428.159       -1892.072
 -10748638.247 9  -8356015.991 9  21140041.809    21140041.484    21140046.020
      3427.118        2670.482
    948161.509 9    738252.18648  20304592.648    20304592.4234   20304597.2274
      -832.620        -648.795
  -4676686.786 9  -3633412.25848  21674085.904    21674085.9354   21674090.0834
       916.338         714.030
  -4854580.995 9  -3775606.36248  20234757.595    20234756.9504   20234761.9784
      1551.084        1208.637
 96 10  8 15 56 59.9980000  0  8 23 22 21 30 28  6 26 17            -0.001501223
  -8420492.021 9  -6546356.81148  20594100.776    20594100.0394   20594105.0914
      2390.685        1862.871
  -4913416.531 9  -3818252.54747  23008411.748    23008410.8164   23008416.1224
      1035.381         806.790
 -11178552.641 9  -8170611.31646  23303537.167    23303536.5374   23303542.7624
      3886.125        3028.149
   8723035.736 8   6776449.24845  24799649.021    24799649.1044   24799655.5004
     -2419.731       -1885.505
 -10851320.880 9  -8436028.431 9  21120501.940    21120501.614    21120506.164
      3418.933        2664.104
    973357.132 9    757885.12148  20309387.262    20309387.0354   20309391.8084
      -846.414        -659.543
  -4703921.562 9  -3654634.15948  21668903.318    21668903.3404   21668907.4664
       899.959         701.267
  -4901045.896 9  -3811812.77948  20225915.637    20225914.9734   20225920.0044
      1547.235        1205.638
 96 10  8 15 57 29.9980000  0  8 23 22 21 30 28  6 26 17            -0.001519458
  -8492046.797 9  -6602113.76248  20580484.372    20580483.6574   20580488.7034
      2379.644        1854.268
  -4944246.537 9  -3842275.94247  23002545.035    23002544.1114   23002549.4364
      1020.073         794.862
 -11295077.717 9  -8261410.06647  23281363.129    23281362.5084   23281368.8124
      3882.201        3025.092
   8795514.063 8   6832925.83945  24813441.133    24813441.3804   24813447.7264
     -2411.914       -1879.414
 -10953754.434 9  -8515846.774 9  21101009.482    21101009.163    21101013.692
      3409.926        2657.085
    998966.111 9    777840.15248  20314260.511    20314260.2784   20314265.0624
      -860.744        -670.710
  -4730667.451 9  -3675475.10148  21663813.753    21663813.7594   21663817.9074
       882.909         687.981
  -4947399.888 9  -3847932.77148  20217094.801    20217094.1374   20217099.1384
      1542.971        1202.315
 96 10  8 15 57 59.9980000  0  8 23 22 21 30 28  6 26 17            -0.001537720
  -8563280.750 9  -6657620.72648  20566929.021    20566928.2964   20566933.3474
      2369.317        1846.221
  -4974637.275 9  -3865957.06847  22996761.893    22996760.9914   22996766.3464
      1006.119         783.989
 -11411501.883 9  -8352130.17947  23259208.407    23259207.8214   23259214.1004
      3879.326        3022.851
   8867735.307 8   6889202.10545  24827184.551    24827184.7894   24827191.0014
     -2402.815       -1872.323
 -11055931.350 9  -8595465.145 9  21081565.875    21081565.551    21081570.066
      3401.944        2650.865
   1024977.076 9    798108.42248  20319210.274    20319210.0424   20319214.8084
      -873.185        -680.404
  -4756920.905 9  -3695932.33748  21658817.881    21658817.8844   21658822.0144
       867.285         675.806
  -4993650.770 9  -3883972.41948  20208293.552    20208292.8644   20208297.9134
      1540.504        1200.393
 96 10  8 15 58 29.9980000  0  8 23 22 21 30 28  6 26 17            -0.001556020
  -8634181.383 9  -6712867.95748  20553437.053    20553436.3434   20553441.3694
      2357.946        1837.361
  -5004602.825 9  -3889306.87247  22991059.671    22991058.7034   22991064.1264
       992.112         773.074
 -11527806.313 9  -8442756.98847  23237076.445    23237075.8034   23237082.0544
      3874.744        3019.281
   8939700.684 8   6945279.01445  24840879.500    24840879.6614   24840885.2884
     -2394.585       -1865.910
 -11157849.163 9  -8674881.616 9  21062171.587    21062171.261    21062175.740
      3393.072        2643.952
   1051380.417 9    818682.43448  20324234.714    20324234.4644   20324239.2224
      -886.491        -690.772
  -4782682.048 9  -3716005.95448  21653915.699    21653915.7074   21653919.8274
       850.623         662.823
  -5039802.412 9  -3919934.74048  20199511.149    20199510.4914   20199515.5594
      1536.618        1197.365
 96 10  8 15 58 59.9980000  0  7 23 22 21 28  6 26 17               -0.001574376
  -8704752.670 9  -6767858.55648  20540007.736    20540007.0464   20540012.0954
      2346.929        1828.776
  -5034155.475 9  -3912334.92847  22985435.993    22985435.0464   22985440.4734
       978.130         762.179
 -11643976.420 9  -8533279.13747  23214969.944    23214969.3564   23214975.6084
      3870.030        3015.608
 -11259509.262 9  -8754097.273 9  21042826.367    21042826.012    21042830.477
      3384.282        2637.103
   1078175.514 9    839561.71248  20329333.633    20329333.3944   20329338.1884
      -899.914        -701.232
  -4807949.065 9  -3735694.53448  21649107.608    21649107.5934   21649111.7074
       833.874         649.772
  -5085841.546 9  -3955809.38548  20190750.195    20190749.5514   20190754.6054
      1532.728        1194.333
 96 10  8 15 59 29.9980000  0  7 23 22 21 28  6 26 17               -0.001592784
  -8775001.568 9  -6822597.94448  20526639.788    20526639.0964   20526644.1624
      2336.840        1820.914
  -5063299.145 9  -3935044.29747  22979890.141    22979889.2164   22979894.6744
       965.118         752.040
 -11760009.086 9  -8623694.19347  23192889.593    23192889.0214   23192895.2814
      3866.092        3012.539
 -11360907.575 9  -8833108.943 9  21023530.880    21023530.545    21023535.039
      3376.098        2630.726
   1105371.215 9    860753.15248  20334508.788    20334508.5714   20334513.4074
      -912.579        -711.101
  -4832709.858 9  -3754988.65548  21644395.774    21644395.7874   21644399.8774
       817.146         636.737
  -5131767.397 9  -3991595.76348  20182010.773    20182010.1314   20182015.2214
      1529.424        1191.759
 96 10  8 15 59 59.9980000  0  7 23 22 21 28  6 26 17               -0.001611241
  -8844936.436 9  -6877092.63448  20513331.603    20513330.9214   20513336.0014
      2326.016        1812.480
  -5092037.730 9  -3957438.04447  22974421.398    22974420.4644   22974425.8924
       951.137         741.146
 -11875915.343 9  -8714010.73547  23170833.368    23170832.7894   23170839.0734
      3861.526        3008.981
 -11462052.670 9  -8911923.297 9  21004283.601    21004283.257    21004287.770
      3367.340        2623.901
   1132947.155 9    882240.88048  20339756.363    20339756.1564   20339760.9724
      -925.387        -721.081
  -4856952.012 9  -3773878.64548  21639782.614    21639782.6474   21639786.7524
       799.526         623.007
  -5177579.145 9  -4027293.22848  20173293.050    20173292.4584   20173297.5424
      1525.018        1188.326
 96 10  8 16  0 29.9980000  0  7 23 22 21 28  6 26 17               -0.001629743
  -8914559.124 9  -6931344.06248  20500082.842    20500082.1554   20500087.2334
      2316.149        1804.791
  -5120354.658 9  -3979503.19247  22969032.875    22969031.9914   22969037.3184
       937.275         730.344
 -11991688.266 9  -8804223.39547  23148802.547    23148801.9754   23148808.2094
      3857.419        3005.781
 -11562935.408 9  -8990533.218 9  20985086.260    20985085.906    20985090.417
      3358.771        2617.224
   1160907.290 9    904027.97848  20345077.046    20345076.8184   20345081.6374
      -938.028        -730.931
  -4880666.950 9  -3792357.81448  21635269.818    21635269.8634   21635273.9524
       782.175         609.487
  -5223255.495 9  -4062885.19048  20164601.202    20164600.5564   20164605.6494
      1520.711        1184.970
 96 10  8 16  0 59.9980000  0  7 23 22 21 28  6 26 17               -0.001648280
  -8983877.345 9  -6985358.24348  20486892.028    20486891.3314   20486896.4094
      2305.507        1796.499
  -5148239.049 9  -4001231.30247  22963726.661    22963725.7624   22963731.0644
       922.312         718.685
 -12107338.441 9  -8894340.39647  23126795.090    23126794.4994   23126800.7014
      3853.146        3002.451
 -11663547.366 9  -9068932.138 9  20965940.474    20965940.124    20965944.589
      3349.242        2609.799
   1189255.094 9    926117.16248  20350471.480    20350471.2274   20350476.0464
      -951.306        -741.277
  -4903852.644 9  -3810424.58648  21630857.709    21630857.7684   21630861.8814
       764.136         595.431
  -5268794.245 9  -4098369.93148  20155935.489    20155934.8414   20155939.9264
      1515.668        1181.040
 96 10  8 16  1 29.9980000  0  7 23 22 21 28  6 26 17               -0.001666861
  -9052892.900 9  -7039136.58348  20473758.787    20473758.0874   20473763.1934
      2294.842        1788.188
  -5175691.855 9  -4022623.12747  22958502.601    22958501.7134   22958507.1244
       907.158         706.876
 -12222883.328 9  -8984375.35447  23104807.620    23104807.0244   23104813.2524
      3849.122        2999.316
 -11763893.307 9  -9147123.777 9  20946845.359    20946844.972    20946849.399
      3339.856        2602.485
   1217974.628 9    948495.99848  20355936.647    20355936.3914   20355941.2344
      -963.841        -751.045
  -4926519.458 9  -3828087.03948  21626544.326    21626544.3924   21626548.5054
       746.484         581.676
  -5314194.222 9  -4133746.53648  20147296.149    20147295.4954   20147300.6014
      1510.285        1176.845
 96 10  8 16  1 59.9980000  0  7 23 22 21 28  6 26 17               -0.001685498
  -9121601.747 9  -7092675.93148  20460683.885    20460683.2234   20460688.3444
      2285.875        1781.201
  -5202701.725 9  -4043669.82347  22953362.795    22953361.8864   22953367.3734
       893.693         696.384
 -12338319.240 9  -9074325.39847  23082840.897    23082840.3394   23082846.5544
      3846.806        2997.511
 -11863972.811 9  -9225107.802 9  20927800.900    20927800.517    20927804.887
      3332.198        2596.518
   1247051.530 9    971153.30848  20361469.804    20361469.5624   20361474.4164
      -974.671        -759.484
  -4948683.143 9  -3845357.44248  21622326.730    21622326.7924   21622330.8884
       731.285         569.832
  -5359441.456 9  -4169004.12248  20138685.827    20138685.1964   20138690.3324
      1506.320        1173.756
 96 10  8 16  2 29.9980000  0  7 23 22 21 28  6 26 17               -0.001704201
  -9190001.725 9  -7145974.60248  20447667.803    20447667.1184   20447672.2194
      2274.500        1772.338
  -5229270.453 9  -4064372.76347  22948306.955    22948306.0634   22948311.5284
       878.076         684.215
 -12453647.648 9  -9164191.66947  23060894.607    23060894.0264   23060900.2714
      3841.976        2993.747
 -11963776.370 9  -9302876.807 9  20908808.912    20908808.556    20908812.896
      3321.734        2588.364
   1276505.778 9    994104.64848  20367074.775    20367074.5334   20367079.3934
      -988.610        -770.345
  -4970351.450 9  -3862241.83348  21618203.426    21618203.4874   21618207.5614
       713.618         556.066
  -5404524.464 9  -4204133.74148  20130106.857    20130106.1974   20130111.3454
      1499.622        1168.537
 96 10  8 16  2 59.9980000  0  7 23 22 21 28  6 26 17               -0.001722971
  -9258080.604 9  -7199023.06448  20434712.820    20434712.1094   20434717.2284
      2264.368        1764.443
  -5255400.020 9  -4084733.47347  22943334.665    22943333.7824   22943339.2634
       864.251         673.442
 -12568853.389 9  -9253962.36447  23038971.621    23038971.0874   23038977.3154
      3838.728        2991.217
 -12063289.360 9  -9380419.393 9  20889872.226    20889871.872    20889876.215
      3312.754        2581.367
   1306350.387 9   1017360.16948  20372753.985    20372753.7374   20372758.6374
     -1000.629        -779.711
  -4991512.976 9  -3878731.32748  21614176.560    21614176.5934   21614180.6584
       697.493         543.501
  -5449430.969 9  -4239125.82648  20121561.456    20121560.8124   20121565.9324
      1494.422        1164.485
 96 10  8 16  3 29.9980000  0  7 23 22 21 28  6 26 17               -0.001741830
  -9325838.543 9  -7251821.44148  20421818.909    20421818.2174   20421823.3484
      2253.501        1755.975
  -5281113.413 9  -4104769.92247  22938441.610    22938440.7254   22938446.2004
       850.540         662.758
 -12683945.017 9  -9343644.13147  23017070.429    23017069.9104   23017076.0864
      3834.655        2988.043
 -12162519.580 9  -9457741.639 9  20870989.357    20870988.999    20870993.326
      3303.155        2573.887
   1336565.029 9   1040904.03348  20378503.607    20378503.4024   20378508.3274
     -1013.097        -789.426
  -5012179.342 9  -3894834.98248  21610243.854    21610243.8784   21610247.9574
       680.913         530.582
  -5494170.582 9  -4273987.86348  20113047.819    20113047.1464   20113052.2774
      1488.923        1160.200
 96 10  8 16  3 59.9980000  0  7 23 22 21 28  6 26 17               -0.001760772
  -9393269.069 9  -7304364.69448  20408987.296    20408986.6214   20408991.7284
      2241.801        1746.858
  -5306419.888 9  -4124489.28947  22933625.983    22933625.0794   22933630.6264
       836.401         651.741
 -12798915.859 9  -9433231.78347  22995192.226    22995191.7204   22995197.8824
      3829.946        2984.374
 -12261456.105 9  -9534835.031 9  20852162.394    20852162.042    20852166.318
      3292.471        2565.562
   1367162.715 9   1064746.36648  20384326.179    20384325.9654   20384330.9114
     -1026.910        -800.190
  -5032344.341 9  -3910547.96448  21606406.509    21606406.5414   21606410.6674
       663.322         516.874
  -5538748.694 9  -4308724.05048  20104564.920    20104564.2424   20104569.3464
      1483.024        1155.603
 96 10  8 16  4 29.9980000  0  7 23 22 21 28  6 26 17               -0.001779786
  -9460375.857 9  -7356655.68448  20396217.298    20396216.6124   20396221.7154
      2231.648        1738.946
  -5331332.788 9  -4143901.97647  22928885.284    22928884.3224   22928889.9314
       824.106         642.161
 -12913772.749 9  -9522730.64747  22973335.686    22973335.2104   22973341.3644
      3826.850        2981.961
 -12360099.443 9  -9611699.969 9  20833391.208    20833390.866    20833395.111
      3283.517        2558.585
   1398143.340 9   1088887.09448  20390221.644    20390221.4214   20390226.3374
     -1038.652        -809.339
  -5052005.425 9  -3925868.28248  21602665.135    21602665.1334   21602669.2784
       647.216         504.324
  -5583192.716 9  -4343355.76048  20096107.508    20096106.8384   20096111.9574
      1479.785        1153.079
 96 10  8 16  4 59.9980000  0  8 23 22 21 28  6 26 17  3            -0.001798852
  -9527139.413 9  -7408679.22048  20383512.644    20383511.9654   20383517.0354
      2219.924        1729.811
  -5355842.156 9  -4163000.19847  22924221.319    22924220.3314   22924225.9584
       810.482         631.544
 -13028506.065 9  -9612133.21747  22951502.663    22951502.1684   22951508.3514
      3822.904        2978.886
 -12458448.461 9  -9688335.564 9  20814676.025    20814675.702    20814679.907
      3273.830        2551.036
   1429500.596 9   1113321.29848  20396188.725    20396188.5164   20396193.4384
     -1051.188        -819.108
  -5071155.446 9  -3940790.36748  21599021.016    21599021.0154   21599025.1714
       630.223         491.083
  -5627524.630 9  -4377900.10948  20087671.450    20087670.7954   20087675.8904
      1476.454        1150.484
   -352841.30719   -243420.61455  24602410.879           0.0005          0.0005
      4577.587        3566.951
 96 10  8 16  5 29.9980000  0  8 23 22 21 28  6 26 17  3            -0.001817950
  -9593543.763 9  -7460422.85448  20370876.340    20370875.6454   20370880.6754
      2207.248        1719.934
  -5379931.129 9  -4181770.83747  22919637.340    22919636.4104   22919641.9844
       795.528         619.892
 -13143114.318 9  -9701438.33047  22929693.484    22929692.9684   22929699.0954
      3817.679        2974.815
 -12556498.684 9  -9764738.336 9  20796017.730    20796017.384    20796021.575
      3262.998        2542.596
   1461248.331 9   1138059.77348  20402230.155    20402229.9414   20402234.8604
     -1065.277        -830.086
  -5089788.275 9  -3955309.44348  21595475.307    21595475.3134   21595479.4934
       612.187         477.029
  -5671752.411 9  -4412363.31248  20079255.236    20079254.5544   20079259.6384
      1472.210        1147.177
   -490169.600 9   -350429.63155  24576278.564           0.0005   24576283.9125
      4577.751        3567.079
 96 10  8 16  5 59.9980000  0  8 23 22 21 28  6 26 17  3            -0.001837059
  -9659596.725 9  -7511892.67948  20358306.859    20358306.1744   20358311.2094
      2196.390        1711.473
  -5403586.502 9  -4200203.62247  22915135.989    22915135.0494   22915140.5824
       781.676         609.098
 -13257578.598 9  -9790631.26347  22907911.681    22907911.1904   22907917.2624
      3813.461        2971.528
 -12654247.277 9  -9840906.067 9  20777416.795    20777416.434    20777420.641
      3253.742        2535.383
   1493398.717 9   1163112.00748  20408348.179    20408347.9634   20408352.9174
     -1077.930        -839.945
  -5107901.082 9  -3969423.30848  21592028.580    21592028.5864   21592032.7634
       595.503         464.028
  -5715881.399 9  -4446749.53848  20070857.722    20070857.0654   20070862.1434
      1469.832        1145.324
   -627525.662 9   -457460.32245  24550140.603    24550139.0805   24550145.6524
      4579.551        3568.481
 96 10  8 16  6 29.9980000  0  8 23 22 21 28  6 26 17  3            -0.001856174
  -9725296.430 9  -7563087.24148  20345804.639    20345803.9404   20345808.9514
      2183.784        1701.650
  -5426799.940 9  -4218292.03747  22910718.656    22910717.6904   22910723.1704
       766.152         597.002
 -13371888.628 9  -9879704.00347  22886159.163    22886158.6714   22886164.7834
      3807.470        2966.860
 -12751692.511 9  -9916837.417 9  20758873.613    20758873.247    20758877.439
      3242.779        2526.841
   1525947.891 9   1188474.97848  20414542.118    20414541.9004   20414546.8634
     -1091.891        -850.824
  -5125484.643 9  -3983124.77448  21588682.498    21588682.5094   21588686.6694
       577.072         449.666
  -5759907.374 9  -4481055.49648  20062479.850    20062479.1984   20062484.2864
      1465.163        1141.685
   -764914.983 9   -564516.93446  24523995.945    24523995.3914   24524000.9604
      4579.775        3568.656
 96 10  8 16  6 59.9980000  0  8 23 22 21 28  6 26 17  3            -0.001875318
  -9790651.703 9  -7614013.41748  20333367.946    20333367.2504   20333372.2314
      2173.017        1693.260
  -5449579.911 9  -4236042.69147  22906383.767    22906382.7964   22906388.3074
       752.377         586.268
 -13486049.021 9  -9968660.15147  22864435.152    22864434.6594   22864440.8234
      3802.984        2963.364
 -12848837.722 9  -9992534.983 9  20740387.517    20740387.131    20740391.321
      3233.189        2519.368
   1558890.677 9   1214144.65848  20420810.963    20420810.7344   20420815.7054
     -1104.520        -860.665
  -5142545.208 9  -3996418.70748  21585435.949    21585435.9904   21585440.1724
       560.023         436.382
  -5803806.735 9  -4515262.79048  20054126.134    20054125.4584   20054130.5364
      1461.106        1138.524
   -902340.154 9   -671601.45146  24497844.698    24497844.2504   24497850.1324
      4581.643        3570.111
 96 10  8 16  7 29.9980000  0  8 23 22 21 28  6 26 17  3            -0.001894512
  -9855678.950 9  -7664683.98648  20320993.633    20320992.9744   20320997.9444
      2162.558        1685.110
  -5471941.605 9  -4253467.41447  22902128.481    22902127.5434   22902132.9924
       738.773         575.667
 -13600060.968 9 -10057500.62147  22842739.422    22842738.9354   22842745.0354
      3798.132        2959.583
 -12945675.308 9 -10067992.841 9  20721959.920    20721959.546    20721963.755
      3222.969        2511.404
   1592223.035 9   1240117.90648  20427153.912    20427153.6934   20427158.6684
     -1117.259        -870.591
  -5159083.115 9  -4009305.37648  21582288.915    21582288.9374   21582293.1474
       542.854         423.003
  -5847557.956 9  -4549354.65148  20045800.571    20045799.8954   20045804.9494
      1456.021        1134.562
  -1039813.178 9   -778723.27046  24471684.440    24471684.1034   24471689.9454
      4583.589        3571.628
 96 10  8 16  7 59.9980000  0  8 23 22 21 28  6 26 17  3            -0.001913762
  -9920390.923 9  -7715108.88748  20308679.373    20308678.6834   20308683.6654
      2151.672        1676.628
  -5493894.601 9  -4270573.66947  22897950.912    22897949.9924   22897955.4314
       724.867         564.831
 -13713926.009 9 -10146226.61747  22821071.702    22821071.1914   22821077.2394
      3793.067        2955.637
 -13042203.269 9 -10143209.429 9  20703591.235    20703590.875    20703595.111
      3212.280        2503.075
   1625939.114 9   1266390.15548  20433569.872    20433569.6474   20433574.6434
     -1130.312        -880.763
  -5175102.111 9  -4021787.70348  21579240.611    21579240.6234   21579244.8374
       525.274         409.304
  -5891156.361 9  -4583327.43148  20037504.048    20037503.4114   20037508.4434
      1450.551        1130.299
  -1177349.683 8   -885894.54846  24445512.068    24445511.7594   24445517.7244
      4585.518        3573.131
 96 10  8 16  8 29.9980000  0  8 23 22 21 28  6 26 17  3            -0.001933076
  -9984788.670 9  -7765288.94048  20296424.889    20296424.2044   20296429.1764
      2141.640        1668.810
  -5515438.906 9  -4287361.48747  22893851.173    22893850.2644   22893855.7124
       711.481         554.401
 -13827655.348 9 -10234846.87947  22799429.753    22799429.2134   22799435.2314
      3788.941        2952.421
 -13138415.724 9 -10218180.174 9  20685282.575    20685282.239    20685286.492
      3201.946        2495.023
   1660039.029 9   1292961.49548  20440058.898    20440058.6604   20440063.6524
     -1142.974        -890.629
  -5190607.764 9  -4033870.02448  21576289.955    21576289.9784   21576294.2324
       508.582         396.298
  -5934589.291 9  -4617171.27548  20029239.034    20029238.4204   20029243.4304
      1445.120        1126.068
  -1314941.462 8   -993108.89346  24419329.125    24419328.8834   24419334.8334
      4587.202        3574.443
 96 10  8 16  8 59.9980000  0  8 23 22 21 28  6 26 17  3            -0.001952447
 -10048874.558 9  -7815225.98348  20284229.760    20284229.0694   20284234.0274
      2131.122        1660.615
  -5536570.820 9  -4303827.94947  22889829.912    22889829.0724   22889834.5554
       697.618         543.598
 -13941252.432 9 -10323364.07747  22777812.953    22777812.3944   22777818.4064
      3784.546        2948.997
 -13234306.402 9 -10292900.179 9  20667035.216    20667034.850    20667039.098
      3191.149        2486.610
   1694535.478 9   1319841.82348  20446623.396    20446623.1584   20446628.1384
     -1156.256        -900.979
  -5205605.229 9  -4045556.35048  21573436.056    21573436.0904   21573440.3184
       491.615         383.077
  -5977859.084 9  -4650887.99448  20021005.102    20021004.4744   20021009.4804
      1440.181        1122.219
  -1452571.853 8  -1100353.33445  24393138.979    24393138.6904   24393144.6654
      4588.634        3575.559
 96 10  8 16  9 29.9980000  0  8 23 22 21 28  6 26 17  3            -0.001971858
 -10112642.352 9  -7864915.16048  20272095.136    20272094.4514   20272099.3964
      2119.797        1651.790
  -5557282.779 9  -4319967.16747  22885888.613    22885887.7684   22885893.2684
       682.682         531.960
 -14054718.993 9 -10411779.58047  22756221.054    22756220.4954   22756226.4474
      3779.465        2945.038
 -13329872.268 9 -10367367.084 9  20648849.656    20648849.290    20648853.529
      3179.629        2477.633
   1729428.414 9   1347031.10248  20453263.304    20453263.0574   20453268.0854
     -1170.291        -911.915
  -5220100.757 9  -4056851.56048  21570677.688    21570677.6994   21570681.8864
       474.460         369.709
  -6020990.367 9  -4684496.78948  20012797.493    20012796.8774   20012801.8804
      1434.828        1118.048
  -1590239.175 8  -1207626.53745  24366941.951    24366941.5084   24366947.4484
      4588.753        3575.652
 96 10  8 16  9 59.9980000  0  8 23 22 21 28  6 26 17  3            -0.001991295
 -10176090.417 9  -7914355.19648  20260021.394    20260020.7004   20260025.6374
      2109.886        1644.067
  -5577556.110 9  -4335764.57947  22882030.742    22882029.8834   22882035.4164
       668.875         521.201
 -14168045.549 9 -10500085.98247  22734655.745    22734655.2124   22734661.1414
      3775.520        2941.964
 -13425109.472 9 -10441577.890 9  20630726.618    20630726.243    20630730.500
      3169.385        2469.651
   1764726.466 9   1374536.05548  20459980.331    20459980.0864   20459985.1264
     -1182.892        -921.734
  -5234098.418 9  -4067758.82248  21568013.988    21568014.0144   21568018.1914
       458.584         357.338
  -6063978.905 9  -4717994.35548  20004617.066    20004616.4464   20004621.4494
      1430.818        1114.923
  -1727915.582 8  -1314906.82445  24340743.112    24340742.5814   24340748.5604
      4589.434        3576.182
 96 10  8 16 10 29.9980000  0  8 23 22 21 28  6 26 17  3            -0.002010765
 -10239208.146 9  -7963537.83248  20248010.494    20248009.8094   20248014.7534
      2097.768        1634.624
  -5597387.764 9  -4351217.85647  22878256.883    22878256.0394   22878261.5924
       653.144         508.943
 -14281231.866 9 -10588283.09747  22713117.075    22713116.5194   22713122.5444
      3770.059        2937.708
 -13520010.481 9 -10515526.727 9  20612667.542    20612667.166    20612671.461
      3157.135        2460.105
   1800424.318 9   1402352.53648  20466773.395    20466773.1554   20466778.2474
     -1197.164        -932.855
  -5247590.854 9  -4078272.40548  21565446.432    21565446.4514   21565450.6294
       440.699         343.402
  -6106809.196 9  -4751368.61148  19996466.808    19996466.1354   19996471.1164
      1424.455        1109.965
  -1865574.197 8  -1422173.23645  24314547.538    24314547.0254   24314552.9824
      4587.712        3574.841
 96 10  8 16 10 59.9970000  0  8 23 22 21 28  6 26 17  3            -0.002030271
 -10301978.096 9  -8012449.47048  20236065.775    20236065.0864   20236070.0294
      2086.616        1625.935
  -5616777.548 9  -4366326.80946  22874567.119    22874566.3304   22874571.8584
       639.053         497.963
 -14394279.535 9 -10676372.19147  22691604.790    22691604.2864   22691610.2894
      3766.163        2934.672
 -13614565.739 9 -10589206.143 9  20594674.243    20594673.879    20594678.213
      3146.251        2451.624
   1836525.552 9   1430483.34648  20473643.257    20473643.0134   20473648.1544
     -1209.952        -942.820
  -5260574.145 9  -4088389.25448  21562975.803    21562975.8024   21562979.9764
       424.472         330.757
  -6149476.242 9  -4784615.66048  19988347.553    19988346.8644   19988351.8354
      1419.646        1106.218
  -2003210.235 8  -1529422.04245  24288356.268    24288355.6634   24288361.7964
      4587.893        3574.982
 96 10  8 16 11 29.9970000  0  8 23 22 21 28  6 26 17  3            -0.002049823
 -10364402.774 9  -8061092.06548  20224186.732    20224186.0514   20224190.9954
      2075.594        1617.346
  -5635724.508 9  -4381090.71047  22870961.667    22870960.8494   22870966.4044
       624.591         486.694
 -14507193.620 9 -10764357.17747  22670117.940    22670117.4334   22670123.4814
      3761.917        2931.364
 -13708778.091 9 -10662618.363 9  20576746.195    20576745.842    20576750.206
      3135.093        2442.930
   1873019.707 9   1458920.32948  20480587.883    20480587.6544   20480592.8064
     -1222.518        -952.611
  -5273060.476 9  -4098118.86248  21560599.761    21560599.7674   21560603.9344
       408.422         318.251
  -6191977.906 9  -4817733.83948  19980259.788    19980259.0974   19980264.0554
      1414.200        1101.974
  -2140836.513 8  -1636663.24445  24262166.779    24262166.1264   24262172.3704
      4587.726        3574.851
 96 10  8 16 11 59.9970000  0  8 23 22 21 28  6 26 17  3            -0.002069417
 -10426488.672 9  -8109470.67548  20212372.186    20212371.4974   20212376.4024
      2063.886        1608.223
  -5654225.579 9  -4395507.16647  22867441.069    22867440.2224   22867445.7524
       609.408         474.863
 -14619969.894 9 -10852234.78947  22648657.357    22648656.8444   22648662.8664
      3757.162        2927.659
 -13802642.482 9 -10735759.443 9  20558884.399    20558884.028    20558888.429
      3123.060        2433.553
   1909904.292 9   1487661.54448  20487606.817    20487606.5974   20487611.7374
     -1235.863        -963.010
  -5285045.084 9  -4107457.51448  21558319.173    21558319.1784   21558323.3604
       391.045         304.710
  -6234304.056 9  -4850715.25748  19972205.400    19972204.7214   19972209.6594
      1408.249        1097.337
  -2278452.293 8  -1743896.27145  24235979.316    24235978.6594   24235984.9784
      4587.237        3574.470
 96 10  8 16 12 29.9970000  0  8 23 22 21 28  6 26 17  3            -0.002089044
 -10488233.398 9  -8157583.43348  20200622.544    20200621.8624   20200626.7724
      2052.603        1599.431
  -5672283.860 9  -4409578.58147  22864004.784    22864003.8954   22864009.4324
       594.537         463.276
 -14732616.180 9 -10940011.10347  22627221.475    22627220.9934   22627227.0264
      3752.560        2924.073
 -13896155.977 9 -10808627.094 9  20541089.373    20541089.022    20541093.418
      3111.245        2424.347
   1947179.945 9   1516707.48448  20494700.191    20494699.9394   20494705.0834
     -1249.245        -973.438
  -5296520.768 9  -4116399.60448  21556135.442    21556135.4734   21556139.6294
       374.051         291.468
  -6276465.794 9  -4883568.55948  19964182.307    19964181.6204   19964186.5444
      1402.727        1093.034
  -2416076.374 8  -1851135.76845  24209790.280    24209789.7044   24209795.8554
      4587.835        3574.936
 96 10  8 16 12 59.9970000  0  8 23 22 21 28  6 26 17  3            -0.002108684
 -10549640.662 9  -8205433.23448  20188937.109    20188936.4344   20188941.3374
      2041.325        1590.643
  -5689892.855 9  -4423299.91047  22860653.963    22860653.0684   22860658.5884
       579.590         451.629
 -14845106.849 9 -11027666.16047  22605815.236    22605814.7404   22605820.7924
      3746.726        2919.527
 -13989312.214 9 -10881216.368 9  20523362.346    20523361.971    20523366.376
      3099.310        2415.047
   1984855.708 9   1546065.19848  20501869.674    20501869.4504   20501874.5764
     -1262.128        -983.476
  -5307477.214 9  -4124937.09348  21554050.516    21554050.5394   21554054.6894
       356.384         277.702
  -6318470.961 9  -4916299.86148  19956188.977    19956188.3054   19956193.2164
      1397.743        1089.150
  -2553722.673 9  -1958392.59545  24183596.961    24183596.3954   24183602.6324
      4588.636        3575.561
 96 10  8 16 13 29.9970000  0  8 23 22 21 28  6 26 17  3            -0.002128339
 -10610711.560 9  -8253020.94048  20177315.694    20177315.0174   20177319.9264
      2029.419        1581.365
  -5707060.042 9  -4436676.97346  22857387.148    22857386.2884   22857391.8674
       564.371         439.770
 -14957408.286 9 -11115173.77047  22584444.999    22584444.4864   22584450.5284
      3739.541        2913.928
 -14082111.680 9 -10953527.637 9  20505703.175    20505702.825    20505707.244
      3086.761        2405.268
   2022906.177 9   1575714.89048  20509110.499    20509110.2694   20509115.3864
     -1275.235        -993.690
  -5317894.898 9  -4133054.76648  21552068.090    21552068.1404   21552072.2724
       337.352         262.872
  -6360322.615 9  -4948911.54248  19948224.875    19948224.2124   19948229.1394
      1391.753        1084.483
  -2691381.629 9  -2065659.28446  24157401.291    24157400.8274   24157406.8974
      4587.916        3574.999
 96 10  8 16 13 59.9970000  0  8 23 22 21 28  6 26 17  3            -0.002147998
 -10671430.103 9  -8300334.07748  20165761.331    20165760.6704   20165765.5814
      2017.891        1572.383
  -5723788.629 9  -4449712.26447  22854203.810    22854202.9604   22854208.5544
       550.541         428.993
 -15069508.919 9 -11202524.90147  22563112.974    22563112.4314   22563118.4864
      3733.248        2909.024
 -14174541.286 9 -11025550.705 9  20488114.442    20488114.060    20488118.474
      3074.684        2395.858
   2061342.749 9   1605665.44348  20516424.764    20516424.5344   20516429.6384
     -1287.573       -1003.304
  -5327733.929 9  -4140721.54548  21550195.780    21550195.8294   21550199.9674
       318.199         247.947
  -6402004.050 9  -4981390.58848  19940293.163    19940292.5294   19940297.4424
      1386.447        1080.348
  -2829022.059 9  -2172911.53645  24131209.124    24131208.6314   24131214.8404
      4587.480        3574.660
 96 10  8 16 14 29.9970000  0  8 23 22 21 28  6 26 17  3            -0.002167693
 -10731786.490 9  -8347365.01848  20154275.894    20154275.2384   20154280.1514
      2005.452        1562.690
  -5740109.190 9  -4462429.61846  22851098.138    22851097.2534   22851102.9224
       537.142         418.552
 -15181402.462 9 -11289714.66947  22541820.311    22541819.7584   22541825.8544
      3726.010        2903.384
 -14266601.255 9 -11097285.743 9  20470595.988    20470595.621    20470600.078
      3062.260        2386.177
   2100150.317 9   1635905.08948  20523809.622    20523809.4054   20523814.4974
     -1299.911       -1012.918
  -5336991.704 9  -4147935.40548  21548434.041    21548434.0924   21548438.2684
       298.828         232.853
  -6443512.577 9  -5013734.89448  19932394.351    19932393.7244   19932398.6694
      1380.436        1075.664
  -2966639.430 9  -2280145.82245  24105021.470    24105020.9104   24105027.1184
      4586.499        3573.895
 96 10  8 16 14 59.9970000  0  8 23 22 21 28  6 26 17  3            -0.002187446
 -10791756.897 9  -8394095.19548  20142863.892    20142863.2244   20142868.1604
      1992.715        1552.765
  -5756028.894 9  -4474834.61546  22848068.726    22848067.8554   22848073.5684
       524.350         408.584
 -15293078.228 9 -11376734.73747  22520569.103    22520568.5494   22520574.6124
      3719.410        2898.242
 -14358283.939 9 -11168726.797 9  20453149.328    20453148.970    20453153.453
      3050.000        2376.623
   2139322.541 9   1666428.87948  20531263.875    20531263.6494   20531268.7574
     -1311.491       -1021.941
  -5345671.797 9  -4154699.11848  21546782.250    21546782.3124   21546786.4984
       280.186         218.327
  -6484838.448 9  -5045936.87348  19924530.319    19924529.6854   19924534.6064
      1374.677        1071.177
  -3104210.166 9  -2387343.76945  24078842.636    24078841.9944   24078848.2424
      4584.861        3572.619
 96 10  8 16 15 29.9970000  0  8 23 22 21 28  6 26 17  3            -0.002207276
 -10851334.883 9  -8440519.58648  20131526.544    20131525.8974   20131530.8454
      1979.433        1542.415
  -5771554.701 9  -4486932.67547  22845114.342    22845113.4314   22845119.1304
       510.664         397.920
 -15404561.855 9 -11463605.08647  22499354.402    22499353.9054   22499359.9804
      3713.279        2893.464
 -14449584.754 9 -11239870.288 9  20435775.347    20435775.003    20435779.501
      3036.857        2366.382
   2178870.607 9   1697245.53248  20538789.688    20538789.4494   20538794.5234
     -1325.050       -1032.506
  -5353794.412 9  -4161028.43648  21545236.575    21545236.6654   21545240.8464
       261.640         203.875
  -6525968.378 9  -5077986.17148  19916703.605    19916702.9494   19916707.8454
      1367.521        1065.601
  -3241712.167 9  -2494488.17845  24052676.835    24052676.3764   24052682.5224
      4582.244        3570.580
 96 10  8 16 15 59.9970000  0  8 23 22 21 28  6 26 17  3            -0.002227170
 -10910529.870 9  -8486645.54248  20120262.136    20120261.4864   20120266.4444
      1967.189        1532.875
  -5786670.686 9  -4498711.40047  22842237.949    22842237.0214   22842242.7164
       497.191         387.422
 -15515883.426 9 -11550349.15747  22478170.615    22478170.1364   22478176.1674
      3708.250        2889.545
 -14540499.035 9 -11310712.584 9  20418474.979    20418474.609    20418479.084
      3024.292        2356.591
   2218826.038 9   1728379.61348  20546392.985    20546392.7264   20546397.7794
     -1338.354       -1042.873
  -5361385.650 9  -4166943.69548  21543792.085    21543792.1304   21543796.3034
       244.663         190.646
  -6566900.686 9  -5109881.47848  19908914.462    19908913.8104   19908918.6854
      1361.532        1060.934
  -3379160.019 9  -2601590.39945  24026521.420    24026520.9714   24026526.8634
      4581.285        3569.832
 96 10  8 16 16 29.9970000  0  8 23 22 21 28  6 26 17  3            -0.002247120
 -10969358.134 9  -8532485.73248  20109067.474    20109066.8204   20109071.7754
      1955.326        1523.631
  -5801370.457 9  -4510165.80247  22839440.712    22839439.7964   22839445.4954
       483.115         376.453
 -15627048.648 9 -11636971.40047  22457016.618    22457016.1174   22457022.1054
      3703.374        2885.746
 -14631033.942 9 -11381259.264 9  20401246.743    20401246.389    20401250.877
      3011.908        2346.941
   2259184.295 9   1759827.58548  20554072.899    20554072.6494   20554077.6944
     -1351.694       -1053.268
  -5368468.860 9  -4172463.08948  21542444.142    21542444.1864   21542448.4124
       228.211         177.827
  -6607654.689 9  -5141637.84948  19901159.217    19901158.5694   19901163.4614
      1356.059        1056.669
  -3516581.900 9  -2708672.37845  24000370.866    24000370.4564   24000376.2774
      4580.641        3569.331
 96 10  8 16 16 59.9970000  0  8 23 22 21 28  6 26 17  3            -0.002267031
 -11027820.874 9  -8578041.10248  20097942.367    20097941.7144   20097946.7144
      1943.036        1514.054
  -5815618.411 9  -4521268.12747  22836729.453    22836728.5364   22836734.3084
       467.485         364.274
 -15738059.761 9 -11723473.56547  22435891.910    22435891.4054   22435897.3484
      3697.936        2881.508
 -14721178.838 9 -11451502.037 9  20384092.742    20384092.397    20384096.898
      2998.367        2336.390
   2299967.226 9   1791606.46848  20561833.644    20561833.3854   20561838.4174
     -1366.531       -1064.829
  -5375042.728 9  -4177585.59048  21541193.173    21541193.2214   21541197.4614
       210.537         164.055
  -6648226.177 9  -5173251.99348  19893438.665    19893438.0434   19893442.9174
      1349.343        1051.436
  -3653957.046 9  -2815717.93645  23974229.195    23974228.8554   23974234.5734
      4578.312        3567.516
 96 10  8 16 17 29.9970000  0  8 23 22 21 28  6 26 17  3            -0.002286973
 -11085946.035 9  -8623333.42548  20086881.562    20086880.8854   20086885.8734
      1931.455        1505.030
  -5829414.071 9  -4532018.03347  22834104.206    22834103.3134   22834109.0664
       451.695         351.970
 -15848916.465 9 -11809855.40047  22414796.473    22414795.9974   22414801.9844
      3691.890        2876.797
 -14810936.912 9 -11521443.393 9  20367012.325    20367011.995    20367016.512
      2984.983        2325.961
   2341173.988 9   1823715.61348  20569675.039    20569674.8084   20569679.8304
     -1380.949       -1076.064
  -5381095.628 9  -4182302.14748  21540041.336    21540041.3684   21540045.6044
       192.328         149.866
  -6688620.548 9  -5204728.12948  19885751.834    19885751.2284   19885756.1204
      1343.154        1046.614
  -3791289.601 9  -2922730.30945  23948095.640    23948095.2944   23948100.9534
      4576.801        3566.338
 96 10  8 16 17 59.9970000  0  8 23 22 21 28  6 26 17  3            -0.002306917
 -11143736.541 9  -8668364.97348  20075884.370    20075883.6884   20075888.6934
      1920.710        1496.657
  -5842756.442 9  -4542414.71847  22831565.240    22831564.3304   22831570.0734
       437.428         340.853
 -15959591.891 9 -11896095.98847  22393735.638    22393735.1764   22393741.1994
      3685.900        2872.130
 -14900307.027 9 -11591082.442 9  20350005.783    20350005.446    20350009.961
      2972.476        2316.215
   2382783.982 9   1856138.96148  20577593.185    20577592.9184   20577597.9434
     -1393.442       -1085.799
  -5386608.934 9  -4186598.23948  21538992.121    21538992.1914   21538996.4254
       174.590         136.044
  -6728852.474 9  -5236077.68648  19878095.986    19878095.3424   19878100.2324
      1338.298        1042.830
  -3928599.166 9  -3029724.75545  23921966.415    23921966.0544   23921971.7484
      4576.509        3566.111
 96 10  8 16 18 29.9970000  0  8 23 22 21 28  6 26 17  3            -0.002326868
 -11201179.799 9  -8713125.94348  20064953.280    20064952.6054   20064957.5974
      1909.009        1487.539
  -5855654.766 9  -4552465.39747  22829110.799    22829109.8654   22829115.6754
       422.585         329.287
 -16070059.836 9 -11982174.89147  22372714.363    22372713.8894   22372719.8344
      3678.846        2866.633
 -14989276.501 9 -11660409.303 9  20333075.466    20333075.130    20333079.614
      2958.921        2305.653
   2424786.919 9   1888868.50248  20585586.137    20585585.8514   20585590.8544
     -1406.582       -1096.038
  -5391564.967 9  -4190460.09148  21538048.995    21538049.0754   21538053.3074
       156.274         121.772
  -6768905.308 9  -5267287.68548  19870474.167    19870473.5674   19870478.4484
      1331.959        1037.890
  -4065862.678 9  -3136683.32845  23895846.007    23895845.6124   23895851.3194
      4574.443        3564.501
 96 10  8 16 18 59.9970000  0  8 23 22 21 28  6 26 17  3            -0.002346844
 -11258284.077 9  -8757622.77548  20054086.698    20054086.0274   20054090.9934
      1898.241        1479.149
  -5868119.215 9  -4562177.98247  22826738.963    22826737.9824   22826743.8074
       408.776         318.527
 -16180327.455 9 -12068097.71147  22351731.155    22351730.6714   22351736.5944
      3672.448        2861.648
 -15077845.690 9 -11729424.256 9  20316221.326    20316220.974    20316225.444
      2945.937        2295.535
   2467169.776 9   1921894.07648  20593651.309    20593651.0634   20593656.0544
     -1418.571       -1105.380
  -5395990.021 9  -4193908.19848  21537206.962    21537207.0394   21537211.2684
       138.911         108.242
  -6808767.746 9  -5298349.32848  19862888.616    19862888.0054   19862892.8994
      1325.864        1033.141
  -4203070.641 9  -3243598.60745  23869736.199    23869735.9614   23869741.4604
      4573.003        3563.379
 96 10  8 16 19 29.9970000  0  8 23 22 21 28  6 26 17  3            -0.002366851
 -11315046.582 9  -8801853.28548  20043285.172    20043284.4824   20043289.4474
      1886.787        1470.224
  -5880148.870 9  -4571551.75947  22824449.856    22824448.8494   22824454.6564
       394.120         307.106
 -16290375.771 9 -12153849.63147  22330789.681    22330789.1594   22330795.0914
      3665.193        2855.995
 -15166007.267 9 -11798121.588 9  20299444.732    20299444.391    20299448.866
      2932.396        2284.984
   2509921.470 9   1955207.06648  20601786.721    20601786.4664   20601791.4184
     -1430.743       -1114.865
  -5399878.856 9  -4196938.47148  21536466.992    21536467.0464   21536471.2844
       121.354          94.562
  -6848431.118 9  -5329255.85248  19855340.937    19855340.2924   19855345.2014
      1319.203        1027.950
  -4340232.082 9  -3350477.61845  23843635.277    23843635.0134   23843640.3514
      4571.964        3562.569
 96 10  8 16 19 59.9970000  0  8 23 22 21 28  6 26 17  3            -0.002386901
 -11371459.732 9  -8845811.56848  20032550.078    20032549.4084   20032554.3524
      1874.341        1460.525
  -5891739.526 9  -4580583.47047  22822244.277    22822243.2394   22822249.0844
       378.817         295.182
 -16400211.805 9 -12239436.13747  22309888.551    22309888.0764   22309893.9884
      3657.650        2850.117
 -15253758.862 9 -11866499.453 9  20282746.153    20282745.830    20282750.285
      2918.008        2273.772
   2553043.052 9   1988808.27948  20609992.482    20609992.2594   20609997.2204
     -1443.780       -1125.023
  -5403250.753 9  -4199565.93548  21535825.349    21535825.3874   21535829.6084
       103.778          80.866
  -6887882.916 9  -5359997.51548  19847833.503    19847832.8754   19847837.7614
      1311.235        1021.742
  -4477347.414 9  -3457320.71445  23817543.057    23817542.7024   23817548.1414
      4569.192        3560.409
 96 10  8 16 20 29.9970000  0  8 23 22 21 28  6 26 17  3            -0.002406987
 -11427514.773 9  -8889490.81648  20021883.123    20021882.4464   20021887.4214
      1862.230        1451.088
  -5902884.684 9  -4589268.03547  22820123.442    22820122.4464   22820128.2494
       363.825         283.500
 -16509848.348 9 -12324867.20147  22289025.396    22289024.9154   22289030.8464
      3651.036        2844.963
 -15341094.591 9 -11934553.266 9  20266126.735    20266126.398    20266130.842
      2903.983        2262.844
   2596542.940 9   2022704.27648  20618270.237    20618270.0284   20618274.9774
     -1456.585       -1135.001
  -5406114.269 9  -4201797.25248  21535280.481    21535280.5194   21535284.6904
        86.719          67.573
  -6927111.663 9  -5390565.37448  19840368.513    19840367.8844   19840372.7844
      1303.807        1015.954
  -4614379.189 9  -3564098.69245  23791466.719    23791466.3384   23791471.9634
      4565.945        3557.879
 96 10  8 16 20 59.9970000  0  8 23 22 21 28  6 26 17  3            -0.002427095
 -11483197.725 9  -8932880.11548  20011287.022    20011286.3654   20011291.2864
      1849.708        1441.331
  -5913580.287 9  -4597602.28547  22818088.162    22818087.1584   22818093.0124
       349.217         272.117
 -16619283.205 9 -12410141.09947  22268200.685    22268200.1374   22268206.0964
      3644.324        2839.733
 -15428008.614 9 -12002278.484 9  20249587.568    20249587.219    20249591.636
      2890.092        2252.020
   2640431.028 9   2056902.77148  20626621.859    20626621.6554   20626626.6094
     -1469.458       -1145.032
  -5408449.044 9  -4203616.57248  21534836.230    21534836.2864   21534840.4434
        68.607          53.460
  -6966128.406 9  -5420968.03248  19832943.915    19832943.2724   19832948.1424
      1297.202        1010.807
  -4751319.860 9  -3670805.68145  23765407.687    23765407.3624   23765413.0164
      4563.317        3555.831
 96 10  8 16 21 29.9970000  0  8 23 22 21 28  6 26 17  3            -0.002447225
 -11538492.954 9  -8975967.29848  20000764.728    20000764.0664   20000768.9674
      1836.810        1431.281
  -5923848.031 9  -4605603.14647  22816134.271    22816133.3374   22816139.1664
       335.553         261.470
 -16728514.574 9 -12495256.44547  22247414.620    22247414.0974   22247420.0774
      3638.159        2834.929
 -15514501.139 9 -12069675.258 9  20233128.580    20233128.215    20233132.647
      2876.301        2241.274
   2684714.316 9   2091409.20248  20635048.743    20635048.5084   20635053.4884
     -1482.588       -1155.263
  -5410235.451 9  -4205008.59448  21534496.355    21534496.3744   21534500.4874
        50.839          39.615
  -7004946.582 9  -5451215.96848  19825557.093    19825556.4544   19825561.3064
      1290.853        1005.859
  -4888184.029 9  -3777453.06145  23739363.284    23739362.8784   23739368.5704
      4561.141        3554.136
 96 10  8 16 21 59.9970000  0  8 23 22 21 28  6 26 17  3            -0.002467388
 -11593393.791 9  -9018747.16148  19990317.441    19990316.7854   19990321.6954
      1823.117        1420.611
  -5933708.455 9  -4613286.60747  22814257.944    22814257.0134   22814262.7914
       321.637         250.626
 -16837562.052 9 -12580228.48747  22226663.541    22226663.0184   22226669.0594
      3631.508        2829.746
 -15600576.788 9 -12136747.192 9  20216748.913    20216748.565    20216753.000
      2861.895        2230.048
   2729394.725 9   2126225.08548  20643551.186    20643550.9634   20643555.9534
     -1496.231       -1165.894
  -5411486.776 9  -4205983.66448  21534258.267    21534258.2934   21534262.3754
        32.334          25.195
  -7043576.372 9  -5481317.10848  19818206.112    19818205.4684   19818210.3144
      1284.441        1000.863
  -5024972.865 9  -3884041.73145  23713333.293    23713332.9874   23713338.5274
      4557.990        3551.681
 96 10  8 16 22 29.9970000  0  8 23 22 21 28  6 26 17  3            -0.002487579
 -11647909.459 9  -9061226.88848  19979943.436    19979942.7664   19979947.6744
      1811.164        1411.297
  -5943169.547 9  -4620658.90847  22812457.597    22812456.6744   22812462.4874
       308.921         240.718
 -16946427.697 9 -12665058.84447  22205947.053    22205946.5424   22205952.6194
      3625.965        2825.427
 -15686234.855 9 -12203493.739 9  20200448.761    20200448.397    20200452.812
      2848.484        2219.598
   2774468.613 9   2161347.57248  20652128.481    20652128.2494   20652133.2774
     -1508.840       -1175.719
  -5412194.604 9  -4206535.22648  21534123.569    21534123.6064   21534127.6584
        14.678          11.437
  -7082037.106 9  -5511286.51348  19810887.277    19810886.6634   19810891.5124
      1279.330         996.881
  -5161697.224 9  -3990580.15745  23687315.569    23687315.1244   23687320.6404
      4556.969        3550.885
 96 10  8 16 22 59.9970000  0  8 23 22 21 28  6 26 17  3            -0.002507797
 -11702046.603 9  -9103411.66348  19969641.462    19969640.7994   19969645.7104
      1798.074        1401.097
  -5952223.366 9  -4627713.84647  22810734.681    22810733.8554   22810739.7154
       294.506         229.485
 -17055098.905 9 -12749737.69247  22185267.602    22185267.1174   22185273.1504
      3618.611        2819.697
 -15771468.087 9 -12269909.243 9  20184229.432    20184229.069    20184233.447
      2833.667        2208.052
   2819940.379 9   2196780.09848  20660781.453    20660781.2374   20660786.3024
     -1522.557       -1186.408
  -5412348.206 9  -4206654.92348  21534094.373    21534094.4084   21534098.4614
        -4.291          -3.344
  -7120315.188 9  -5541113.58948  19803603.233    19803602.6114   19803607.4424
      1272.392         991.474
  -5298377.587 9  -4097084.31945  23661306.164    23661305.7054   23661311.1744
      4554.938        3549.302
 96 10  8 16 23 29.9970000  0  8 23 22 21 28  6 26 17  3            -0.002528039
 -11755816.364 9  -9145310.17048  19959409.412    19959408.7314   19959413.6554
      1786.032        1391.713
  -5960849.477 9  -4634435.51847  22809093.161    22809092.3494   22809098.2084
       279.758         217.993
 -17163562.232 9 -12834254.55347  22164627.780    22164627.2524   22164633.2514
      3611.665        2814.284
 -15856266.827 9 -12335986.182 9  20168092.782    20168092.399    20168096.780
      2818.935        2196.573
   2865804.485 9   2232518.34148  20669509.054    20669508.8664   20669513.9884
     -1535.603       -1196.574
  -5411957.622 9  -4206350.58548  21534168.795    21534168.8124   21534172.7834
       -22.408         -17.461
  -7158390.764 9  -5570782.87748  19796357.733    19796357.0804   19796361.9024
      1265.357         985.992
  -5435000.560 9  -4203543.72445  23635307.583    23635307.2264   23635312.6194
      4552.424        3547.343
 96 10  8 16 23 59.9970000  0  8 23 22 21 28  6 26 17  3            -0.002548281
 -11809243.777 9  -9186941.91248  19949242.481    19949241.7924   19949246.7584
      1775.364        1383.400
  -5969022.823 9  -4640804.39347  22807537.771    22807536.9554   22807542.8374
       264.707         206.265
 -17271818.549 9 -12918610.11447  22144027.324    22144026.7354   22144032.7454
      3604.988        2809.082
 -15940629.785 9 -12401723.555 9  20152039.040    20152038.655    20152043.040
      2804.685        2185.469
   2912049.165 9   2268553.13548  20678309.129    20678308.9574   20678314.0664
     -1547.894       -1206.151
  -5411019.997 9  -4205619.97448  21534347.293    21534347.2714   21534351.2254
       -40.589         -31.628
  -7196267.247 9  -5600297.02748  19789150.081    19789149.4324   19789154.2724
      1259.228         981.217
  -5571545.379 9  -4309942.26446  23609323.912    23609323.5784   23609329.0724
      4549.898        3545.375
 96 10  8 16 24 29.9970000  0  8 23 22 21 28  6 26 17  3            -0.002568517
 -11862352.092 9  -9228324.99948  19939136.323    19939135.6364   19939140.5764
      1764.461        1374.905
  -5976747.846 9  -4646823.91247  22806067.811    22806066.9844   22806072.8044
       249.764         194.621
 -17379876.172 9 -13002810.83647  22123464.559    22123464.0534   22123470.0544
      3598.143        2803.748
 -16024559.846 9 -12467123.602 9  20136067.669    20136067.311    20136071.686
      2790.126        2174.124
   2958668.361 9   2304879.76048  20687180.493    20687180.2914   20687185.4394
     -1560.478       -1215.957
  -5409534.821 9  -4204462.70248  21534629.919    21534629.9074   21534633.8734
       -58.935         -45.923
  -7233950.949 9  -5629660.95248  19781979.114    19781978.4654   19781983.3054
      1252.433         975.922
  -5708006.261 9  -4416275.37246  23583356.271    23583355.8744   23583361.4514
      4546.831        3542.985
 96 10  8 16 24 59.9970000  0  8 23 22 21 28  6 26 17  3            -0.002588751
 -11915128.231 9  -9269449.25648  19929093.347    19929092.6744   19929097.5834
      1753.951        1366.715
  -5984033.001 9  -4652500.67547  22804681.486    22804680.6574   22804686.4974
       235.995         183.892
 -17487723.427 9 -13086847.63847  22102941.883    22102941.3954   22102947.4284
      3591.721        2798.744
 -16108055.259 9 -12532184.963 9  20120179.022    20120178.677    20120183.053
      2776.250        2163.312
   3005652.380 9   2341490.66648  20696121.268    20696121.0654   20696126.2544
     -1571.845       -1224.814
  -5407500.071 9  -4202877.19548  21535017.166    21535017.1284   21535021.0574
       -76.583         -59.675
  -7271437.031 9  -5658870.89248  19774845.748    19774845.0814   19774849.9004
      1246.748         971.492
  -5844366.124 9  -4522529.77146  23557407.809    23557407.4664   23557413.1164
      4543.840        3540.655
 96 10  8 16 25 29.9970000  0  8 23 22 21 28  6 26 17  3            -0.002608985
 -11967558.265 9  -9310303.81648  19919116.220    19919115.5714   19919120.4624
      1741.446        1356.971
  -5990890.579 9  -4657844.27046  22803376.616    22803375.7574   22803381.6084
       221.379         172.503
 -17595361.332 9 -13170721.31247  22082459.103    22082458.6034   22082464.6354
      3584.328        2792.983
 -16191109.039 9 -12596902.196 9  20104374.427    20104374.057    20104378.454
      2760.760        2151.242
   3053007.782 9   2378390.96148  20705132.730    20705132.5394   20705137.7274
     -1585.136       -1235.171
  -5404914.088 9  -4200862.15348  21535509.281    21535509.2524   21535513.1784
       -95.781         -74.635
  -7308731.846 9  -5687931.79148  19767748.788    19767748.1264   19767752.9434
      1239.708         966.006
  -5980608.785 9  -4628692.84446  23531481.708    23531481.3204   23531486.9894
      4539.158        3537.006
 96 10  8 16 25 59.9970000  0  8 23 22 21 28  6 26 17  3            -0.002629222
 -12019636.897 9  -9350884.56548  19909205.987    19909205.3344   19909210.1794
      1730.214        1348.219
  -5997339.475 9  -4662869.41646  22802149.438    22802148.5974   22802154.4304
       208.651         162.585
 -17702798.453 9 -13254438.53047  22062014.456    22062013.9804   22062020.0024
      3578.024        2788.071
 -16273720.693 9 -12661274.914 9  20088653.940    20088653.573    20088657.958
      2746.529        2140.152
   3100744.969 9   2415588.74648  20714216.838    20714216.6584   20714221.8484
     -1597.434       -1244.754
  -5401773.181 9  -4198414.70448  21536106.923    21536106.9584   21536110.8884
      -113.534         -88.468
  -7345835.750 9  -5716843.92448  19760688.167    19760687.4854   19760692.3264
      1233.749         961.363
  -6116738.894 9  -4734768.22346  23505576.950    23505576.5524   23505582.2524
      4535.984        3534.533
 96 10  8 16 26 29.9970000  0  8 23 22 21 28  6 26 17  3            -0.002649484
 -12071354.626 9  -9391184.08448  19899364.450    19899363.7934   19899368.5874
      1718.007        1338.707
  -6003406.033 9  -4667596.63347  22800995.083    22800994.2334   22801000.0904
       196.077         152.787
 -17810026.885 9 -13337993.13647  22041609.527    22041609.0404   22041615.1114
      3570.805        2782.445
 -16355892.043 9 -12725304.537 9  20073017.256    20073016.885    20073021.278
      2731.943        2128.787
   3148857.988 9   2453079.38248  20723372.482    20723372.2764   20723377.4714
     -1609.663       -1254.283
  -5398096.823 9  -4195550.01948  21536806.521    21536806.5474   21536810.4904
      -131.146        -102.192
  -7382744.362 9  -5745603.88548  19753664.663    19753664.0174   19753668.8404
      1227.243         956.293
  -6252756.674 9  -4840756.08246  23479693.685    23479693.2024   23479698.8394
      4532.380        3531.725
 96 10  8 16 26 59.9970000  0  8 23 22 21 28  6 26 17  3            -0.002669781
 -12122706.848 9  -9431198.79148  19889592.483    19889591.8134   19889596.5754
      1706.301        1329.585
  -6009090.848 9  -4672026.38546  22799913.313    22799912.4274   22799918.3894
       183.463         142.958
 -17917033.321 9 -13421374.74547  22021246.842    22021246.3704   22021252.4414
      3563.816        2776.999
 -16437624.519 9 -12788992.180 9  20057464.068    20057463.701    20057468.091
      2717.495        2117.528
   3197331.052 9   2490850.57848  20732596.621    20732596.4314   20732601.6044
     -1621.310       -1263.358
  -5393892.799 9  -4192274.16648  21537606.519    21537606.5844   21537610.5234
      -148.394        -115.632
  -7419459.552 9  -5774213.12648  19746677.985    19746677.3474   19746682.1754
      1221.053         951.470
  -6388669.901 9  -4946662.45246  23453830.276    23453829.7834   23453835.4684
      4529.123        3529.187
 96 10  8 16 27 29.9970000  0  8 23 22 21 28  6 26 17  3            -0.002690109
 -12173704.950 9  -9470937.56848  19879887.844    19879887.2024   19879891.9344
      1694.128        1320.100
  -6014384.640 9  -4676151.45246  22798905.908    22798905.0574   22798911.0304
       169.828         132.334
 -18023829.010 9 -13504592.14847  22000924.290    22000923.8014   22000929.8644
      3556.327        2771.164
 -16518914.814 9 -12852335.269 9  20041995.033    20041994.662    20041999.069
      2702.299        2105.688
   3246165.525 9   2528903.39648  20741889.540    20741889.3444   20741894.5294
     -1633.750       -1273.052
  -5389171.156 9  -4188594.97448  21538505.043    21538505.0884   21538509.0244
      -165.891        -129.266
  -7455976.869 9  -5802668.18348  19739728.999    19739728.3564   19739733.1734
      1213.863         945.867
  -6524474.086 9  -5052483.87746  23427987.541    23427987.0844   23427992.8074
      4524.995        3525.970
 96 10  8 16 27 59.9970000  0  8 23 22 21 28  6 26 17  3            -0.002710462
 -12224354.586 9  -9510404.80748  19870249.525    19870248.8944   19870253.6374
      1682.007        1310.655
  -6019273.600 9  -4679961.05946  22797975.616    22797974.7114   22797980.7064
       155.727         121.346
 -18130406.558 9 -13587639.55947  21980643.284    21980642.7734   21980648.8284
      3548.578        2765.126
 -16599756.750 9 -12915328.989 9  20026611.316    20026610.957    20026615.369
      2686.814        2093.621
   3295356.015 9   2567233.62348  20751250.226    20751249.9994   20751255.1964
     -1645.899       -1282.519
  -5383936.548 9  -4184516.06348  21539501.152    21539501.2074   21539505.1194
      -183.436        -142.937
  -7492288.928 9  -5830963.29648  19732819.029    19732818.3654   19732823.2474
      1206.631         940.232
  -6660161.492 9  -5158214.29346  23402167.012    23402166.6854   23402172.3414
      4520.565        3522.518
 96 10  8 16 28 29.9970000  0  8 23 22 21 28  6 26 17  3            -0.002730845
 -12274645.011 9  -9549592.14648  19860679.624    19860678.9674   19860683.6684
      1670.336        1301.561
  -6023751.599 9  -4683450.43846  22797123.514    22797122.6514   22797128.6534
       142.420         110.977
 -18236772.819 9 -13670522.33647  21960402.454    21960401.9724   21960408.0064
      3542.232        2760.181
 -16680147.721 9 -12977971.306 9  20011313.436    20011313.078    20011317.477
      2672.130        2082.179
   3344892.786 9   2605833.67548  20760676.775    20760676.5504   20760681.7654
     -1657.120       -1291.262
  -5378188.524 9  -4180037.09548  21540594.978    21540595.0084   21540598.9694
      -200.258        -156.045
  -7528402.940 9  -5859104.09048  19725946.717    19725946.0924   19725950.9624
      1200.423         935.394
  -6795741.438 9  -5263860.98546  23376367.059    23376366.6454   23376372.2804
      4517.772        3520.342
 96 10  8 16 28 59.9970000  0  8 23 22 21 28  6 26 17  3            -0.002751263
 -12324580.102 9  -9588502.59748  19851177.288    19851176.6264   19851181.3234
      1658.260        1292.151
  -6027822.753 9  -4686622.79846  22796348.785    22796347.8724   22796354.0214
       128.485         100.118
 -18342949.667 9 -13753257.51247  21940197.681    21940197.1654   21940203.2004
      3535.667        2755.065
 -16760087.548 9 -13040262.081 9  19996101.400    19996101.054    19996105.449
      2656.585        2070.066
   3394779.387 9   2644706.33048  20770169.916    20770169.7014   20770174.9164
     -1669.281       -1300.738
  -5371924.145 9  -4175155.76648  21541787.077    21541787.0794   21541791.0634
      -217.935        -169.819
  -7564315.698 9  -5887088.06048  19719112.785    19719112.1474   19719116.9824
      1193.079         929.672
  -6931233.382 9  -5369439.09946  23350583.725    23350583.3584   23350588.9254
      4514.322        3517.654
 96 10  8 16 29 29.9970000  0  8 23 22 21 28  6 26 17  3            -0.002771706
 -12374165.073 9  -9627140.22848  19841741.543    19841740.8794   19841745.6104
      1647.125        1283.474
  -6031486.411 9  -4689477.62646  22795651.637    22795650.7344   22795656.8734
       115.712          90.165
 -18448935.835 9 -13835844.11247  21920029.146    21920028.6764   21920034.7224
      3529.789        2750.485
 -16839568.809 9 -13102195.534 9  19980976.653    19980976.282    19980980.695
      2641.939        2058.654
   3445031.823 9   2683864.04348  20779732.663    20779732.4504   20779737.6994
     -1681.053       -1309.911
  -5365140.971 9  -4169870.18448  21543077.902    21543077.9184   21543081.8954
      -234.513        -182.737
  -7600008.269 9  -5914900.45648  19712320.741    19712320.1094   19712324.9464
      1186.250         924.351
  -7066626.844 9  -5474940.47746  23324819.149    23324818.7824   23324824.3744
      4511.787        3515.678
 96 10  8 16 29 59.9970000  0  8 23 22 21 28  6 26 17  3            -0.002792179
 -12423391.488 9  -9665498.47048  19832374.038    19832373.3844   19832378.1514
      1635.025        1274.045
  -6034752.592 9  -4692022.73246  22795030.140    22795029.2024   22795035.2894
       102.520          79.886
 -18554727.289 9 -13918278.98347  21899897.731    21899897.2284   21899903.2954
      3523.337        2745.457
 -16918589.982 9 -13163770.477 9  19965939.440    19965939.077    19965943.480
      2626.465        2046.596
   3495658.050 9   2723313.02748  20789366.518    20789366.3154   20789371.5674
     -1693.605       -1319.692
  -5357834.934 9  -4164177.17748  21544468.272    21544468.2434   21544472.1974
      -252.193        -196.514
  -7635473.922 9  -5942536.02948  19705571.888    19705571.2454   19705576.0844
      1178.474         918.291
  -7201928.135 9  -5580370.03946  23299072.113    23299071.7974   23299077.2234
      4508.655        3513.238
 96 10  8 16 30 29.9970000  0  8 23 22 21 28  6 26 17  3            -0.002812690
 -12472269.020 9  -9703584.84948  19823072.920    19823072.2674   19823077.0374
      1623.605        1265.147
  -6037639.979 9  -4694272.67346  22794480.664    22794479.7844   22794485.9064
        89.934          70.078
 -18660332.145 9 -14000568.45547  21879801.755    21879801.3014   21879807.3404
      3516.886        2740.431
 -16997156.251 9 -13224990.948 9  19950988.810    19950988.434    19950992.834
      2611.262        2034.750
   3546650.987 9   2763047.75848  20799070.162    20799069.9724   20799075.2164
     -1705.921       -1329.289
  -5350013.389 9  -4158082.47348  21545956.624    21545956.6184   21545960.5724
      -269.283        -209.831
  -7670709.575 9  -5969992.38248  19698866.775    19698866.1154   19698870.9784
      1170.586         912.145
  -7337139.467 9  -5685729.50545  23273342.184    23273341.9444   23273347.2974
      4505.350        3510.662
 96 10  8 16 30 59.9970000  0  8 23 22 21 28  6 26 17  3            -0.002833230
 -12520820.485 9  -9741417.15548  19813833.890    19813833.2354   19813838.0094
      1612.986        1256.872
  -6040150.677 9  -4696229.10446  22794003.009    22794002.1154   22794008.2174
        77.149          60.116
 -18765738.225 9 -14082703.04247  21859743.644    21859743.1604   21859749.1954
      3509.982        2735.051
 -17075270.488 9 -13285859.188 9  19936124.178    19936123.820    19936128.194
      2596.209        2023.020
   3598005.139 9   2803063.95648  20808842.559    20808842.3684   20808847.5854
     -1717.766       -1338.519
  -5341685.149 9  -4151592.94148  21547541.433    21547541.4604   21547545.3734
      -286.046        -222.893
  -7705712.175 9  -5997267.13948  19692205.983    19692205.3514   19692210.1994
      1162.891         906.149
  -7472245.014 9  -5791006.52745  23247632.417    23247632.1464   23247637.4414
      4501.372        3507.562
 96 10  8 16 31 29.9970000  0  8 23 22 21 28  6 26 17  3            -0.002853779
 -12569028.414 9  -9778981.76248  19804660.234    19804659.5824   19804664.3564
      1600.874        1247.434
  -6042258.860 9  -4697871.88146  22793601.868    22793600.9434   22793607.0234
        63.597          49.556
 -18870918.486 9 -14164661.65648  21839728.504    21839728.0124   21839734.0514
      3502.116        2728.921
 -17152914.714 9 -13346361.182 9  19921348.987    19921348.607    19921352.997
      2580.219        2010.560
   3649735.667 9   2843373.43748  20818686.553    20818686.3744   20818691.5944
     -1730.690       -1348.590
  -5332835.457 9  -4144697.07948  21549225.482    21549225.5064   21549229.4494
      -303.797        -236.725
  -7740469.394 9  -6024350.68248  19685591.913    19685591.2434   19685596.1084
      1154.702         899.768
  -7607207.380 9  -5896172.00345  23221949.990    23221949.6434   23221954.7324
      4496.352        3503.651
 96 10  8 16 31 59.9970000  0  8 23 22 21 28  6 26 17  3            -0.002874336
 -12616876.719 9  -9816266.15248  19795555.044    19795554.3724   19795559.1284
      1588.664        1237.920
  -6043965.846 9  -4699202.03346  22793276.965    22793276.1344   22793282.2244
        49.820          38.821
 -18975867.939 9 -14246440.42048  21819757.236    21819756.7664   21819762.8084
      3494.100        2722.675
 -17230084.028 9 -13406493.121 9  19906664.150    19906663.780    19906668.184
      2564.024        1997.941
   3701836.713 9   2883971.61948  20828601.092    20828600.8994   20828606.1334
     -1743.019       -1358.197
  -5323456.662 9  -4137388.93548  21551010.167    21551010.1974   21551014.1764
      -321.807        -250.759
  -7775005.349 9  -6051261.82748  19679019.950    19679019.2994   19679024.1544
      1147.332         894.025
  -7742026.390 9  -6001225.75645  23196294.750    23196294.3664   23196299.4024
      4491.089        3499.550
 96 10  8 16 32 29.9970000  0  8 23 22 21 28  6 26 17  3            -0.002894893
 -12664359.185 9  -9853265.47048  19786519.418    19786518.7734   19786523.5144
      1576.748        1228.635
  -6045258.138 9  -4700209.05846  22793031.046    22793030.2494   22793036.3464
        36.342          28.318
 -19080573.617 9 -14328029.24048  21799832.330    21799831.8704   21799837.9834
      3486.308        2716.604
 -17306771.054 9 -13466249.245 9  19892071.099    19892070.738    19892075.148
      2548.467        1985.818
   3754306.286 9   2924856.97648  20838585.708    20838585.5044   20838590.7834
     -1754.880       -1367.439
  -5313542.590 9  -4129663.68948  21552896.775    21552896.7864   21552900.7544
      -339.065        -264.206
  -7809325.222 9  -6078004.58148  19672489.119    19672488.4544   19672493.3104
      1140.767         888.909
  -7876688.208 9  -6106157.02345  23170669.428    23170669.1904   23170674.0204
      4486.370        3495.873
 96 10  8 16 32 59.9970000  0  8 23 22 21 28  6 26 17  3            -0.002915450
 -12711470.209 9  -9889975.35148  19777554.485    19777553.8364   19777558.5684
      1564.090        1218.771
  -6046134.342 9  -4700891.86046  22792864.447    22792863.5374   22792869.6574
        22.295          17.373
 -19185032.670 9 -14409425.87948  21779954.423    21779953.9424   21779960.0704
      3477.876        2710.033
 -17382981.003 9 -13525633.625 9  19877568.872    19877568.494    19877572.881
      2532.294        1973.216
   3807141.794 9   2966027.47348  20848639.951    20848639.7434   20848645.0644
     -1767.302       -1377.118
  -5303101.970 9  -4121528.14948  21554883.559    21554883.5494   21554887.5214
      -356.761        -277.995
  -7843449.189 9  -6104594.68948  19665995.574    19665994.8864   19665999.7364
      1134.322         883.887
  -8011196.047 9  -6210968.30945  23145073.526    23145073.2434   23145078.0724
      4480.914        3491.621
 96 10  8 16 33 29.9970000  0  8 23 22 21 28  6 26 17  3            -0.002936012
 -12758201.475 9  -9926389.31348  19768661.849    19768661.1864   19768665.9164
      1551.011        1208.580
  -6046604.298 9  -4701258.09546  22792775.067    22792774.0914   22792780.2054
         8.686           6.768
 -19289251.078 9 -14490635.00048  21760122.293    21760121.8204   21760127.9284
      3469.633        2703.610
 -17458710.760 9 -13584643.824 9  19863158.011    19863157.631    19863161.977
      2515.935        1960.469
   3860341.058 9   3007481.41947  20858763.471    20858763.2574   20858768.6004
     -1779.539       -1386.654
  -5292137.408 9  -4112984.34548  21556970.049    21556970.0454   21556974.0604
      -374.539        -291.849
  -7877392.119 9  -6131043.72548  19659536.437    19659535.7434   19659540.5924
      1128.202         879.118
  -8145552.934 9  -6315661.95046  23119506.264    23119505.9114   23119510.7284
      4475.874        3487.694
 96 10  8 16 33 59.9970000  0  8 23 22 21 28  6 26 17  3            -0.002956589
 -12804554.929 9  -9962508.87748  19759841.112    19759840.4154   19759845.1504
      1538.938        1199.172
  -6046670.210 9  -4701309.49346  22792762.524    22792761.5974   22792767.7714
        -4.571          -3.562
 -19393229.188 9 -14571656.87748  21740335.922    21740335.4334   21740341.5214
      3462.149        2697.778
 -17533954.780 9 -13643275.530 9  19848839.558    19848839.194    19848843.535
      2500.073        1948.109
   3913888.797 9   3049206.90647  20868953.312    20868953.1024   20868958.4284
     -1790.600       -1395.273
  -5280653.088 9  -4104035.53648  21559155.452    21559155.4404   21559159.4404
      -391.383        -304.974
  -7911154.819 9  -6157352.32548  19653111.589    19653110.9014   19653115.7584
      1122.112         874.373
  -8279770.167 9  -6420246.78746  23093965.619    23093965.1254   23093969.9634
      4471.478        3484.269
 96 10  8 16 34 29.9970000  0  8 23 22 21 28  6 26 17  3            -0.002977188
 -12850540.601 9  -9998341.86448  19751090.287    19751089.6194   19751094.3254
      1526.365        1189.375
  -6046335.798 9  -4701048.95246  22792826.159    22792825.2064   22792831.4754
       -18.126         -14.124
 -19496987.078 9 -14652507.15848  21720591.449    21720590.9244   21720597.0324
      3454.561        2691.866
 -17608718.753 9 -13701533.176 9  19834612.471    19834612.089    19834616.445
      2483.718        1935.365
   3967777.814 9   3091198.31847  20879208.060    20879207.8204   20879213.1794
     -1802.368       -1404.443
  -5268658.193 9  -4094688.87347  21561437.992    21561438.0094   21561442.0354
      -408.641        -318.422
  -7944715.363 9  -6183503.40148  19646725.260    19646724.5694   19646729.4094
      1114.873         868.732
  -8413844.394 9  -6524720.17346  23068452.084    23068451.6254   23068456.4834
      4466.400        3480.312
 96 10  8 16 34 59.9970000  0  8 23 22 21 28  6 26 17  3            -0.002997817
 -12896175.358 9 -10033901.40748  19742406.278    19742405.6054   19742410.3044
      1515.228        1180.697
  -6045623.171 9  -4700493.70246  22792961.779    22792960.8704   22792967.1814
       -30.095         -23.451
 -19600536.115 9 -14733194.68948  21700886.666    21700886.1914   21700892.2294
      3448.083        2686.818
 -17683006.545 9 -13759419.766 9  19820475.989    19820475.602    19820479.958
      2468.090        1923.187
   4021998.835 9   3133448.43847  20889526.013    20889525.7344   20889531.1254
     -1813.034       -1412.754
  -5256164.341 9  -4084953.40848  21563815.506    21563815.5484   21563819.5544
      -425.060        -331.216
  -7978077.470 9  -6209499.84848  19640376.654    19640375.9994   19640380.8074
      1108.454         863.730
  -8547788.605 9  -6629092.24846  23042963.321    23042962.9454   23042967.7734
      4462.395        3477.191
 96 10  8 16 35 29.9970000  0  8 23 22 21 28  6 26 17  3            -0.003018477
 -12941458.640 9 -10069187.08048  19733789.185    19733788.5084   19733793.1884
      1503.309        1171.410
  -6044530.810 9  -4699642.54246  22793169.707    22793168.8194   22793175.0964
       -43.193         -33.657
 -19703882.764 9 -14813724.52748  21681220.463    21681219.9524   21681225.9684
      3441.107        2681.382
 -17756808.705 9 -13816927.951 9  19806431.923    19806431.540    19806435.898
      2451.609        1910.345
   4076550.859 9   3175956.47647  20899906.907    20899906.6734   20899912.0344
     -1824.170       -1421.431
  -5243157.218 9  -4074818.00347  21566290.711    21566290.7234   21566294.7504
      -442.456        -344.771
  -8011217.571 9  -6235323.30948  19634070.329    19634069.6504   19634074.4554
      1100.394         857.450
  -8681604.191 9  -6733364.11046  23017499.042    23017498.6884   23017503.5234
      4458.082        3473.830
 96 10  8 16 35 59.9960000  0  8 23 22 21 28  6 26 17  3            -0.003039158
 -12986390.749 9 -10104199.10248  19725238.895    19725238.2434   19725242.9084
      1492.053        1162.639
  -6043042.885 9  -4698483.16846  22793452.891    22793451.9564   22793458.2074
       -56.156         -43.758
 -19807012.317 9 -14894085.19648  21661595.577    21661595.0374   21661601.0454
      3434.157        2675.966
 -17830114.630 9 -13874049.454 9  19792482.303    19792481.910    19792486.250
      2435.443        1897.748
   4131437.976 9   3218725.62547  20910351.621    20910351.3744   20910356.7134
     -1835.359       -1430.150
  -5229632.542 9  -4064279.30647  21568864.363    21568864.3794   21568868.3924
      -459.440        -358.005
  -8044108.305 9  -6260952.45648  19627811.455    19627810.7594   19627815.5574
      1092.233         851.091
  -8815275.802 9  -6837523.76846  22992062.252    22992061.6964   22992066.7654
      4453.465        3470.232
 96 10  8 16 36 29.9960000  0  8 23 22 21 28  6 26 17  3            -0.003059855
 -13030988.966 9 -10138950.95248  19716752.114    19716751.4464   19716756.1474
      1481.238        1154.211
  -6041165.096 9  -4697019.99746  22793810.269    22793809.3484   22793815.6064
       -68.976         -53.748
 -19909928.180 9 -14974279.34248  21642011.305    21642010.7974   21642016.7774
      3426.765        2670.206
 -17902931.719 9 -13930790.045 9  19778625.700    19778625.305    19778629.639
      2419.019        1884.950
   4186671.115 9   3261764.40047  20920862.179    20920861.8824   20920867.2414
     -1846.812       -1439.074
  -5215592.669 9  -4053339.16048  21571536.062    21571536.0554   21571540.0844
      -476.355        -371.186
  -8076750.771 9  -6286388.14448  19621599.812    19621599.1384   19621603.9184
      1084.150         844.792
  -8948806.675 9  -6941573.77246  22966652.006    22966651.5174   22966656.7334
      4448.675        3466.500
 96 10  8 16 36 59.9960000  0  8 23 22 21 28  6 26 17  3            -0.003080566
 -13075275.319 9 -10173459.79548  19708324.656    19708324.0024   19708328.7534
      1471.617        1146.715
  -6038900.776 9  -4695255.62146  22794241.272    22794240.3464   22794246.6164
       -81.501         -63.507
 -20012617.777 9 -15054297.18548  21622470.116    21622469.6164   21622475.6044
      3419.810        2664.787
 -17975257.468 9 -13987147.776 9  19764862.574    19764862.196    19764866.532
      2403.213        1872.634
   4242240.219 9   3305064.97547  20931436.661    20931436.3664   20931441.7464
     -1857.294       -1447.242
  -5201052.872 9  -4042009.45947  21574302.917    21574302.8974   21574306.9264
      -492.307        -383.616
  -8109160.654 9  -6311642.59948  19615432.449    19615431.7454   19615436.5354
      1076.956         839.186
  -9082201.398 9  -7045517.67846  22941267.802    22941267.4164   22941272.5874
      4444.755        3463.445
 96 10  8 16 37 29.9960000  0  8 23 22 21 28  6 26 17  3            -0.003101294
 -13119255.864 9 -10207730.34548  19699955.448    19699954.7544   19699959.5334
      1461.635        1138.936
  -6036246.655 9  -4693187.51846  22794746.462    22794745.4824   22794751.7224
       -94.037         -73.276
 -20115088.082 9 -15134144.15448  21602970.642    21602970.1304   21602976.1494
      3412.758        2659.292
 -18047098.234 9 -14043127.595 9  19751191.770    19751191.363    19751195.676
      2387.381        1860.297
   4298134.285 9   3348618.76047  20942072.984    20942072.7264   20942078.0964
     -1867.638       -1455.302
  -5186031.440 9  -4030304.46248  21577161.423    21577161.3804   21577165.4364
      -507.791        -395.681
  -8141341.663 9  -6336718.71248  19609308.616    19609307.9354   19609312.7244
      1069.896         833.685
  -9215462.519 9  -7149357.49046  22915909.041    22915908.6654   22915913.9234
      4440.540        3460.161
 96 10  8 16 37 59.9960000  0  8 23 22 21 28  6 26 17  3            -0.003122044
 -13162919.978 9 -10241754.32548  19691646.492    19691645.7884   19691650.5254
      1449.141        1129.201
  -6033212.423 9  -4690823.21646  22795323.868    22795322.8994   22795329.1384
      -107.956         -84.121
 -20217329.484 9 -15213812.74648  21583514.749    21583514.2424   21583520.2434
      3403.463        2652.049
 -18118447.100 9 -14098724.117 9  19737614.563    19737614.157    19737618.439
      2369.241        1846.162
   4354354.799 9   3392426.92147  20952771.467    20952771.1944   20952776.5804
     -1880.328       -1465.191
  -5170534.259 9  -4018228.75447  21580110.394    21580110.4094   21580114.4704
      -525.402        -409.404
  -8173303.982 9  -6361624.41548  19603226.385    19603225.7054   19603230.5054
      1060.987         826.743
  -9348574.545 9  -7253081.12746  22890578.701    22890578.3014   22890583.6144
      4433.675        3454.812
 96 10  8 16 38 29.9960000  0  8 23 22 21 28  6 26 17  3            -0.003142819
 -13206248.575 9 -10275516.86248  19683401.346    19683400.6384   19683405.3674
      1438.831        1121.167
  -6029820.298 9  -4688180.04446  22795969.389    22795968.3464   22795974.6814
      -118.681         -92.479
 -20319346.653 9 -15293306.61748  21564101.519    21564101.0264   21564107.0004
      3397.221        2647.185
 -18189301.095 9 -14153935.031 9  19724131.493    19724131.093    19724135.359
      2353.844        1834.164
   4410905.826 9   3436492.62147  20963532.842    20963532.5284   20963537.9404
     -1890.261       -1472.931
  -5154555.020 9  -4005777.41747  21583151.181    21583151.1994   21583155.2654
      -540.295        -421.009
  -8205053.662 9  -6386364.43448  19597184.642    19597183.9594   19597188.7484
      1055.212         822.243
  -9481528.620 9  -7356681.67946  22865278.401    22865278.0364   22865283.3624
      4429.409        3451.488
 96 10  8 16 38 59.9960000  0  8 23 22 21 28  6 26 17  3            -0.003163627
 -13249214.232 9 -10308996.58948  19675225.248    19675224.5444   19675229.3044
      1426.618        1111.650
  -6026076.753 9  -4685263.02046  22796681.747    22796680.7454   22796687.0744
      -129.627        -101.008
 -20421143.111 9 -15372628.50648  21544730.288    21544729.7964   21544735.7394
      3390.449        2641.908
 -18259656.432 9 -14208757.370 9  19710743.333    19710742.936    19710747.207
      2337.719        1821.599
   4467792.668 9   3480820.00447  20974358.042    20974357.7384   20974363.1564
     -1900.990       -1481.291
  -5138092.177 9  -3992949.23347  21586283.980    21586283.9994   21586288.0604
      -556.109        -433.332
  -8236600.688 9  -6410946.53248  19591181.489    19591180.8024   19591185.5514
      1049.109         817.488
  -9614320.875 9  -7460156.13346  22840008.904    22840008.5204   22840013.8584
      4424.426        3447.605
 96 10  8 16 39 29.9960000  0  8 23 22 21 28  6 26 17  3            -0.003184474
 -13291788.655 9 -10342171.46348  19667123.598    19667122.9034   19667127.6754
      1412.514        1100.660
  -6022005.878 9  -4682090.95746  22797456.430    22797455.4814   22797461.7514
      -141.090        -109.940
 -20522730.188 9 -15451787.24848  21525398.902    21525398.3794   21525404.3234
      3382.683        2635.857
 -18329515.383 9 -14263192.922 9  19697449.630    19697449.244    19697453.486
      2320.212        1807.957
   4525008.417 9   3525403.67047  20985245.854    20985245.5614   20985250.9824
     -1912.747       -1490.452
  -5121131.690 9  -3979733.29547  21589511.439    21589511.4624   21589515.5484
      -574.043        -447.306
  -8267956.883 9  -6435379.94048  19585214.609    19585213.9324   19585218.6674
      1041.963         811.919
  -9746940.513 9  -7563496.09446  22814772.262    22814771.9414   22814777.1974
      4417.567        3442.260
 96 10  8 16 39 59.9960000  0  8 23 22 21 28  6 26 17  3            -0.003205349
 -13333969.271 9 -10375039.46648  19659096.929    19659096.2064   19659100.9704
      1400.200        1091.065
  -6017611.385 9  -4678666.70646  22798292.825    22798291.8374   22798297.9924
      -151.606        -118.135
 -20624105.122 9 -15530780.67148  21506107.893    21506107.3644   21506113.2734
      3376.152        2630.768
 -18398872.687 9 -14317237.571 9  19684251.391    19684250.996    19684255.263
      2304.125        1795.422
   4582558.514 9   3570247.87147  20996197.291    20996197.0424   20996202.4044
     -1923.385       -1498.742
  -5103646.298 9  -3966108.31447  21592838.834    21592838.8514   21592842.9684
      -590.989        -460.511
  -8299116.929 9  -6459660.49248  19579285.046    19579284.3914   19579289.1224
      1035.781         807.102
  -9879371.838 9  -7666689.29946  22789571.364    22789571.0954   22789576.4454
      4411.820        3437.782
 96 10  8 16 40 29.9960000  0  8 23 22 21 28  6 26 17  3            -0.003226236
 -13375765.604 9 -10407608.04248  19651143.387    19651142.6404   19651147.4064
      1387.363        1081.062
  -6012867.711 9  -4674970.37746  22799195.553    22799194.5214   22799200.6964
      -163.840        -127.668
 -20725267.334 9 -15609608.34848  21486857.363    21486856.8284   21486862.7014
      3368.937        2625.146
 -18467726.352 9 -14370889.787 9  19671148.989    19671148.593    19671152.854
      2287.019        1782.093
   4640452.850 9   3615360.30647  21007214.244    21007214.0034   21007219.3474
     -1935.126       -1507.890
  -5085633.245 9  -3952072.18647  21596266.673    21596266.6884   21596270.7654
      -608.797        -474.387
  -8330072.722 9  -6483781.89948  19573394.401    19573393.7194   19573398.4624
      1028.843         801.696
 -10011613.754 9  -7769734.92846  22764406.649    22764406.3444   22764411.6354
      4405.343        3432.735
 96 10  8 16 40 59.9960000  0  8 23 22 21 28  6 26 17  3            -0.003247133
 -13417201.226 9 -10439895.53348  19643258.464    19643257.7074   19643262.4594
      1375.508        1071.824
  -6007769.520 9  -4670997.81846  22800165.745    22800164.7214   22800170.8894
      -175.939        -137.095
 -20826220.317 9 -15688272.98848  21467646.643    21467646.0934   21467651.9404
      3361.530        2619.374
 -18536079.532 9 -14424152.013 9  19658141.863    19658141.424    19658145.686
      2270.024        1768.850
   4698678.582 9   3660730.96347  21018294.324    21018294.0484   21018299.3584
     -1946.247       -1516.556
  -5067100.501 9  -3937631.10447  21599793.398    21599793.3674   21599797.4394
      -626.450        -488.143
  -8360829.605 9  -6507748.30948  19567541.572    19567540.9014   19567545.6104
      1021.699         796.129
 -10143678.752 9  -7872642.69646  22739275.582    22739275.1714   22739280.5124
      4399.047        3427.829
 96 10  8 16 41 29.9960000  0  8 23 22 21 28  6 26 17  3            -0.003268030
 -13458311.827 9 -10471929.76148  19635435.389    19635434.6334   19635439.3814
      1364.614        1063.336
  -6002304.825 9  -4666739.64646  22801205.655    22801204.6474   22801210.8384
      -189.437        -147.613
 -20926963.240 9 -15766773.94348  21448475.878    21448475.3254   21448481.1904
      3353.677        2613.255
 -18603931.098 9 -14477023.364 9  19645230.115    19645229.710    19645233.965
      2252.487        1755.185
   4757219.737 9   3706347.41347  21029434.448    21029434.1474   21029439.4154
     -1957.451       -1525.286
  -5048049.829 9  -3922786.43347  21603418.614    21603418.6024   21603422.6534
      -644.284        -502.039
  -8391368.751 9  -6531545.05648  19561730.199    19561729.5354   19561734.2024
      1013.175         789.487
 -10275559.704 9  -7975407.03946  22714179.454    22714179.0704   22714184.3684
      4392.184        3422.481
 96 10  8 16 41 59.9960000  0  8 23 22 21 28  6 26 17  3            -0.003288914
 -13499126.012 9 -10503733.02148  19627668.694    19627667.9484   19627672.6954
      1355.793        1056.462
  -5996437.532 9  -4662167.77546  22802322.183    22802321.2364   22802327.3814
      -201.969        -157.378
 -21027479.231 9 -15845098.07148  21429348.322    21429347.7754   21429353.6184
      3347.053        2608.093
 -18671271.475 9 -14529496.391 9  19632415.659    19632415.255    19632419.537
      2236.493        1742.722
   4816087.741 9   3752218.55847  21040636.665    21040636.3954   21040641.6754
     -1967.283       -1532.948
  -5028502.447 9  -3907554.72347  21607138.381    21607138.3514   21607142.4534
      -659.117        -513.598
  -8421660.681 9  -6555149.16448  19555965.861    19555965.1994   19555969.8534
      1005.999         783.895
 -10407252.841 9  -8078025.04846  22689119.020    22689118.6414   22689123.9284
      4387.046        3418.477
 96 10  8 16 42 29.9960000  0  8 23 22 21 28  6 26 17  3            -0.003309799
 -13539642.837 9 -10535304.56048  19619958.617    19619957.8814   19619962.5764
      1346.044        1048.865
  -5990178.438 9  -4657290.59946  22803513.233    22803512.2824   22803518.4554
      -214.505        -167.147
 -21127766.005 9 -15923243.58748  21410264.352    21410263.8314   21410269.6754
      3339.401        2602.131
 -18738100.540 9 -14581570.991 9  19619698.532    19619698.124    19619702.409
      2219.513        1729.491
   4875268.680 9   3798333.53747  21051898.401    21051898.1484   21051903.4644
     -1977.262       -1540.724
  -5008483.392 9  -3891955.47047  21610947.872    21610947.8414   21610951.9254
      -674.777        -525.800
  -8451711.754 9  -6578565.59348  19550247.358    19550246.6714   19550251.3364
       998.144         777.774
 -10538761.379 9  -8180499.21446  22664093.752    22664093.3904   22664098.7034
      4380.889        3413.680
 96 10  8 16 42 59.9960000  0  8 23 22 21 28  6 26 17  3            -0.003330694
 -13579858.040 9 -10566641.08348  19612305.904    19612305.1864   19612309.8814
      1335.593        1040.722
  -5983541.742 9  -4652119.19546  22804776.259    22804775.2894   22804781.4384
      -227.387        -177.185
 -21227803.667 9 -16001194.99048  21391227.811    21391227.2844   21391233.1134
      3330.443        2595.150
 -18804413.517 9 -14633243.449 9  19607079.609    19607079.193    19607083.478
      2201.906        1715.771
   4934747.595 9   3844680.70747  21063216.896    21063216.5924   21063221.9144
     -1987.436       -1548.651
  -4987994.025 9  -3875989.74447  21614846.886    21614846.8704   21614850.9244
      -690.573        -538.109
  -8481516.144 9  -6601789.80248  19544575.784    19544575.0844   19544579.7364
       989.445         770.996
 -10670073.412 9  -8282820.24746  22639105.813    22639105.4934   22639110.7854
      4373.746        3408.114
 96 10  8 16 43 29.9960000  0  8 23 22 21 28  6 26 17  3            -0.003351604
 -13619771.437 9 -10597742.42048  19604710.623    19604709.9044   19604714.5984
      1325.351        1032.741
  -5976532.304 9  -4646657.34946  22806110.067    22806109.1464   22806115.3074
      -239.349        -186.506
 -21327585.381 9 -16078946.95148  21372240.009    21372239.4514   21372245.2604
      3321.965        2588.544
 -18870211.312 9 -14684514.460 9  19594558.725    19594558.322    19594562.580
      2184.960        1702.566
   4994517.688 9   3891254.77947  21074590.720    21074590.4414   21074595.7864
     -1997.059       -1556.150
  -4967052.818 9  -3859671.93147  21618831.862    21618831.8784   21618835.9054
      -705.085        -549.417
  -8511076.164 9  -6624823.58548  19538950.729    19538950.0124   19538954.6724
       981.760         765.008
 -10801181.316 9  -8384982.23646  22614156.727    22614156.4584   22614161.7424
      4367.234        3403.039
 96 10  8 16 43 59.9960000  0  8 23 22 21 28  6 26 17  3            -0.003372548
 -13659347.535 9 -10628580.93348  19597179.522    19597178.8154   19597183.5214
      1313.395        1023.425
  -5969180.444 9  -4640928.67346  22807509.103    22807508.1744   22807514.3544
      -250.150        -194.922
 -21427101.682 9 -16156492.09748  21353302.696    21353302.1254   21353307.8974
      3313.080        2581.621
 -18935495.516 9 -14735385.273 9  19582135.582    19582135.149    19582139.430
      2167.837        1689.224
   5054590.960 9   3938065.08147  21086022.382    21086022.0834   21086027.3934
     -2007.183       -1564.039
  -4945673.820 9  -3843012.98447  21622900.188    21622900.1744   21622904.2114
      -719.852        -560.924
  -8540418.372 9  -6647687.64848  19533367.104    19533366.3914   19533371.0234
       975.013         759.750
 -10932093.122 9  -8486991.41446  22589244.989    22589244.7494   22589250.0224
      4360.722        3397.965
 96 10  8 16 44 29.9960000  0  8 23 22 21 28  6 26 17  3            -0.003393530
 -13698556.911 9 -10659133.68848  19589718.228    19589717.5334   19589722.2254
      1300.989        1013.758
  -5961507.218 9  -4634949.57946  22808969.349    22808968.4044   22808974.5584
      -261.156        -203.498
 -21526349.133 9 -16233827.75648  21334416.563    21334415.9834   21334421.7154
      3303.852        2574.430
 -19000260.659 9 -14785851.625 9  19569811.193    19569810.770    19569815.021
      2150.182        1675.466
   5114971.664 9   3985114.94647  21097512.468    21097512.1644   21097517.4474
     -2017.932       -1572.415
  -4923830.120 9  -3825991.92447  21627056.976    21627056.9424   21627060.9544
      -735.950        -573.467
  -8569553.711 9  -6670390.51848  19527822.818    19527822.1304   19527826.7574
       967.740         754.083
 -11062805.237 9  -8588844.98046  22564371.255    22564370.9684   22564376.2684
      4353.711        3392.502
 96 10  8 16 44 59.9960000  0  8 23 22 21 28  6 26 17  3            -0.003414546
 -13737413.536 9 -10689411.57548  19582324.010    19582323.3264   19582328.0434
      1289.333        1004.675
  -5953515.316 9  -4628722.15746  22810490.269    22810489.3374   22810495.3974
      -271.909        -211.877
 -21625341.847 9 -16310964.91048  21315578.869    21315578.2934   21315584.0254
      3295.540        2567.953
 -19064510.600 9 -14835916.520 9  19557584.828    19557584.423    19557588.664
      2132.839        1661.952
   5175662.551 9   4032406.51547  21109061.555    21109061.2494   21109066.5604
     -2028.457       -1580.616
  -4901524.929 9  -3808611.26647  21631301.578    21631301.5254   21631305.5284
      -751.406        -585.511
  -8598486.329 9  -6692935.41848  19522317.124    19522316.4274   19522321.0984
       960.842         748.708
 -11193327.250 9  -8690550.42546  22539533.755    22539533.4294   22539538.6524
      4347.531        3387.686
 96 10  8 16 45 29.9960000  0  8 23 22 21 28  6 26 17  3            -0.003435593
 -13775931.131 9 -10719425.27648  19574994.357    19574993.6854   19574998.3884
      1277.947         995.803
  -5945211.018 9  -4622251.31746  22812070.569    22812069.5794   22812075.7234
      -282.204        -219.899
 -21724105.517 9 -16387923.59448  21296784.745    21296784.1804   21296789.9444
      3288.190        2562.226
 -19128247.718 9 -14885581.812 9  19545456.072    19545455.670    19545459.893
      2115.788        1648.666
   5236667.835 9   4079943.06647  21120670.511    21120670.1954   21120675.5114
     -2039.052       -1588.872
  -4878755.109 9  -3790868.56247  21635634.530    21635634.4804   21635638.4904
      -767.180        -597.803
  -8627219.553 9  -6715324.94848  19516849.409    19516848.6934   19516853.3634
       954.198         743.531
 -11323674.902 9  -8792120.00046  22514729.393    22514729.0884   22514734.3434
      4341.741        3383.175
 96 10  8 16 45 59.9960000  0  9 23 22 21  1 28  6 26 17  3         -0.003456660
 -13814111.419 9 -10749176.14748  19567728.876    19567728.2104   19567732.8744
      1266.891         987.188
  -5936588.117 9  -4615532.22046  22813711.443    22813710.4904   22813716.6364
      -293.538        -228.731
 -21822649.926 9 -16464711.41948  21278032.356    21278031.8004   21278037.5634
      3280.791        2556.461
  -2475768.32018  -1896202.20455  24111660.404    24111659.8345   24111667.1385
      4781.937        3726.185
 -19191467.495 9 -14934843.980 9  19533425.771    19533425.367    19533429.575
      2098.106        1634.888
   5297988.668 9   4127725.49747  21132339.513    21132339.1864   21132344.5264
     -2049.601       -1597.092
  -4855491.061 9  -3772740.74947  21640061.571    21640061.5044   21640065.4834
      -784.519        -611.313
  -8655743.149 9  -6737551.13048  19511421.559    19511420.8524   19511425.5054
       946.384         737.442
 -11453844.169 9  -8893550.58046  22489959.025    22489958.7474   22489963.9594
      4335.389        3378.225
 96 10  8 16 46 29.9960000  0  9 23 22 21  1 28  6 26 17  3         -0.003477730
 -13851988.488 9 -10778690.74248  19560521.095    19560520.4114   19560525.0584
      1257.826         980.124
  -5927627.671 9  -4608550.10046  22815416.590    22815415.6084   22815421.7554
      -304.301        -237.118
 -21920994.663 9 -16541343.65848  21259318.012    21259317.4524   21259323.1634
      3275.148        2552.063
  -2619275.135 8  -2008025.63045  24084351.685    24084351.3144   24084358.4454
      4784.765        3728.388
 -19254164.637 9 -14983698.900 9  19521494.920    19521494.510    19521498.732
      2081.245        1621.749
   5359603.198 9   4175736.78147  21144064.398    21144064.0774   21144069.4664
     -2058.376       -1603.929
  -4831715.878 9  -3754214.64047  21644585.869    21644585.8124   21644589.7934
      -800.685        -623.910
  -8684024.205 9  -6759588.32548  19506039.835    19506039.1564   19506043.7904
       938.684         731.442
 -11583823.938 9  -8994833.49246  22465224.730    22465224.4414   22465229.5484
      4329.495        3373.632
 96 10  8 16 46 59.9960000  0  9 23 22 21  1 28  6 26 17  3         -0.003498807
 -13889571.057 9 -10807975.85548  19553369.412    19553368.6944   19553373.3564
      1248.401         972.780
  -5918324.206 9  -4601300.68346  22817186.984    22817186.0214   22817192.2154
      -315.052        -245.495
 -22019152.372 9 -16617830.16248  21240639.260    21240638.6934   21240644.3264
      3269.481        2547.648
  -2762848.998 8  -2119901.31145  24057030.497    24057030.0164   24057037.3114
      4787.756        3730.719
 -19316334.437 9 -15032142.906 9  19509664.405    19509664.011    19509668.210
      2064.222        1608.485
   5421499.438 9   4223967.57947  21155842.872    21155842.5724   21155847.9584
     -2067.160       -1610.774
  -4807446.522 9  -3735303.47147  21649204.205    21649204.1614   21649208.1234
      -816.477        -636.216
  -8712060.508 9  -6781434.80448  19500704.714    19500704.0424   19500708.6694
       931.173         725.589
 -11713608.232 9  -9095964.08846  22440527.591    22440527.2794   22440532.3704
      4323.573        3369.018
 96 10  8 16 47 29.9960000  0  9 23 22 21  1 28  6 26 17  3         -0.003519896
 -13926841.692 9 -10837017.90648  19546277.047    19546276.3444   19546281.0054
      1236.913         963.828
  -5908682.819 9  -4593787.95747  22819021.721    22819020.7584   22819026.9934
      -327.090        -254.875
 -22117119.064 9 -16694167.81848  21221996.782    21221996.2244   21222001.8214
      3262.210        2541.982
  -2906502.475 8  -2231839.06945  24029694.250    24029693.6834   24029700.6434
      4789.805        3732.316
 -19377975.679 9 -15080175.048 9  19497934.513    19497934.084    19497938.272
      2045.850        1594.169
   5483672.372 9   4272413.97847  21167673.986    21167673.7254   21167679.1194
     -2077.008       -1618.448
  -4782680.657 9  -3716005.40547  21653916.972    21653916.9394   21653920.8974
      -833.731        -649.661
  -8739849.944 9  -6803088.91748  19495416.608    19495415.9294   19495420.5324
       922.220         718.613
 -11843186.770 9  -9196934.35046  22415869.529    22415869.2414   22415874.3674
      4315.586        3362.794
 96 10  8 16 47 59.9960000  0  9 23 22 21  1 28  6 26 17  3         -0.003541009
 -13963797.897 9 -10865814.94548  19539244.547    19539243.8434   19539248.4664
      1227.239         956.290
  -5898714.877 9  -4586020.77647  22820918.666    22820917.6684   22820923.8674
      -336.933        -262.545
 -22214894.951 9 -16770356.79648  21203390.602    21203390.0574   21203395.6594
      3256.611        2537.619
  -3050252.341 8  -2343851.93145  24002339.554    24002338.5434   24002346.0794
      4794.032        3735.609
 -19439095.245 9 -15127800.689 9  19486303.850    19486303.438    19486307.606
      2029.260        1581.242
   5546101.673 9   4321060.15147  21179553.948    21179553.6624   21179558.9924
     -2084.586       -1624.353
  -4757441.865 9  -3696338.82247  21658719.779    21658719.7324   21658723.7024
      -848.159        -660.903
  -8767403.294 9  -6824559.06048  19490173.406    19490172.7384   19490177.3464
       915.171         713.120
 -11972557.090 9  -9297742.37246  22391251.177    22391250.9414   22391255.9664
      4309.672        3358.186
 96 10  8 16 48 29.9960000  0  9 23 22 21  1 28  6 26 17  3         -0.003562161
 -14000424.094 9 -10894354.83448  19532274.821    19532274.1074   19532278.7224
      1214.754         946.562
  -5888428.064 9  -4578005.11647  22822876.222    22822875.2214   22822881.4714
      -348.478        -271.541
 -22312472.977 9 -16846391.59548  21184822.125    21184821.5824   21184827.1374
      3248.745        2531.490
  -3194109.164 8  -2455948.13345  23974964.390    23974963.4514   23974971.1004
      4796.776        3737.748
 -19499687.084 9 -15175015.113 9  19474773.619    19474773.204    19474777.382
      2010.576        1566.683
   5608796.850 9   4369913.51347  21191484.470    21191484.2204   21191489.4734
     -2094.816       -1632.324
  -4731755.878 9  -3676323.78447  21663607.692    21663607.6344   21663611.5794
      -863.753        -673.054
  -8794723.384 9  -6845847.44948  19484974.549    19484973.8884   19484978.4744
       906.713         706.530
 -12101719.150 9  -9398388.11746  22366672.476    22366672.2004   22366677.1924
      4301.595        3351.892
 96 10  8 16 48 59.9960000  0  9 23 22 21  1 28  6 26 17  3         -0.003583351
 -14036698.610 9 -10922620.68348  19525371.996    19525371.2944   19525375.8974
      1203.637         937.899
  -5877826.185 9  -4569743.95247  22824893.738    22824892.7574   22824898.9934
      -358.361        -279.242
 -22409827.270 9 -16922252.05948  21166296.203    21166295.6764   21166301.2114
      3241.498        2525.843
  -3338076.326 9  -2568130.30645  23947568.308    23947567.3664   23947575.0284
      4800.896        3740.958
 -19559751.933 9 -15221818.899 9  19463343.669    19463343.260    19463347.441
      1993.722        1553.550
   5671778.877 9   4418990.36847  21203469.535    21203469.3044   21203474.5504
     -2103.976       -1639.462
  -4705633.064 9  -3655968.35747  21668578.694    21668578.6224   21668582.5294
      -877.771        -683.977
  -8821829.152 9  -6866968.83548  19479816.521    19479815.8374   19479820.4084
       900.096         701.374
 -12230676.425 9  -9498874.29346  22342132.794    22342132.5054   22342137.3594
      4295.461        3347.112
 96 10  8 16 49 29.9960000  0  9 23 22 21  1 28  6 26 17  3         -0.003604576
 -14072629.653 9 -10950618.89548  19518534.524    19518533.8454   19518538.4594
      1192.043         928.865
  -5866909.769 9  -4561237.69247  22826971.123    22826970.1244   22826976.3444
      -369.342        -287.799
 -22506943.490 9 -16997927.00748  21147815.602    21147815.0784   21147820.6084
      3233.049        2519.259
  -3482145.989 9  -2680392.38545  23920152.893    23920152.0374   23920159.5684
      4803.652        3743.105
 -19619294.286 9 -15268215.545 9  19452013.176    19452012.754    19452016.903
      1975.825        1539.604
   5735051.410 9   4468293.59647  21215509.915    21215509.6944   21215514.9604
     -2114.149       -1647.389
  -4679072.050 9  -3635271.47647  21673633.058    21673632.9864   21673636.8494
      -892.747        -695.647
  -8848705.622 9  -6887911.54648  19474702.114    19474701.4264   19474705.9934
       891.811         694.918
 -12359429.684 9  -9599201.49846  22317631.878    22317631.5674   22317636.3664
      4288.109        3341.384
 96 10  8 16 49 59.9960000  0  9 23 22 21  1 28  6 26 17  3         -0.003625825
 -14108228.118 9 -10978357.95348  19511760.391    19511759.6824   19511764.3114
      1180.781         920.089
  -5855672.706 9  -4552481.58347  22829109.531    22829108.5164   22829114.7814
      -380.267        -296.312
 -22603813.214 9 -17073409.88048  21129381.925    21129381.3924   21129386.9174
      3224.530        2512.621
  -3626302.561 9  -2792722.19645  23892720.739    23892720.0704   23892727.2444
      4806.452        3745.287
 -19678308.756 9 -15314200.851 9  19440783.128    19440782.697    19440786.820
      1958.040        1525.745
   5798621.333 9   4517828.57847  21227606.939    21227606.6984   21227611.9654
     -2124.462       -1655.425
  -4652070.225 9  -3614231.10747  21678771.341    21678771.2584   21678775.1164
      -907.809        -707.384
  -8875346.309 9  -6908670.52648  19469632.559    19469631.8534   19469636.4434
       883.857         688.720
 -12487972.147 9  -9699364.43846  22293171.099    22293170.7504   22293175.5324
      4280.963        3335.815
 96 10  8 16 50 29.9960000  0  9 23 22 21  1 28  6 26 17  3         -0.003647085
 -14143498.239 9 -11005841.15748  19505048.705    19505047.9844   19505052.6354
      1170.909         912.397
  -5844111.916 9  -4543473.22447  22831309.517    22831308.5414   22831314.7764
      -390.286        -304.119
 -22700432.593 9 -17148697.68448  21110995.828    21110995.3284   21111000.8524
      3216.977        2506.735
  -3770558.291 8  -2905129.25345  23865269.663    23865269.1834   23865276.3084
      4810.764        3748.647
 -19736796.266 9 -15359775.540 9  19429653.333    19429652.899    19429657.034
      1941.309        1512.708
   5862500.126 9   4567604.21747  21239762.782    21239762.5334   21239767.7224
     -2133.721       -1662.640
  -4624615.758 9  -3592838.03047  21683995.836    21683995.7424   21683999.5644
      -922.289        -718.667
  -8901760.257 9  -6929252.83248  19464606.170    19464605.4684   19464610.0444
       877.255         683.575
 -12616299.760 9  -9799359.96746  22268751.179    22268750.8454   22268755.6294
      4274.423        3330.719
 96 10  8 16 50 59.9960000  0  9 23 22 21  1 28  6 26 17  3         -0.003668346
 -14178453.435 9 -11033078.96248  19498396.969    19498396.2474   19498400.8884
      1159.463         903.478
  -5832217.942 9  -4534205.23047  22833572.926    22833571.9524   22833578.1944
      -402.546        -313.672
 -22796793.321 9 -17223783.93848  21092658.969    21092658.4454   21092663.9884
      3207.238        2499.146
  -3914913.466 9  -3017613.78845  23837799.704    23837799.0734   23837806.5144
      4812.841        3750.266
 -19794751.354 9 -15404935.352 9  19418624.871    19418624.429    19418628.550
      1922.271        1497.874
   5926674.479 9   4617610.17047  21251974.888    21251974.5724   21251979.7694
     -2144.498       -1671.037
  -4596690.537 9  -3571078.13147  21689309.851    21689309.7694   21689313.5904
      -939.241        -731.876
  -8927942.141 9  -6949654.30448  19459623.949    19459623.2484   19459627.7854
       868.083         676.428
 -12744403.209 9  -9899180.82946  22244373.963    22244373.6114   22244378.3854
      4265.624        3323.863
 96 10  8 16 51 29.9960000  0  9 23 22 21  1 28  6 26 17  3         -0.003689610
 -14213105.776 9 -11060080.78648  19491802.866    19491802.1514   19491806.7584
      1149.918         896.040
  -5819996.514 9  -4524682.08247  22835898.576    22835897.6314   22835903.9034
      -412.909        -321.747
 -22892912.288 9 -17298681.81048  21074368.124    21074367.6194   21074373.1434
      3199.988        2493.497
  -4059369.961 8  -3130177.31245  23810310.465    23810309.9434   23810317.3224
      4816.835        3753.378
 -19852167.271 9 -15449675.034 9  19407698.992    19407698.554    19407702.661
      1904.742        1484.215
   5991123.305 9   4667830.00347  21264239.116    21264238.8374   21264244.0864
     -2152.844       -1677.541
  -4568300.430 9  -3548955.98747  21694712.325    21694712.2684   21694716.0494
      -954.144        -743.489
  -8953883.395 9  -6969868.27348  19454687.517    19454686.8104   19454691.3314
       860.877         670.813
 -12872268.077 9  -9998815.76846  22220042.140    22220041.7774   22220046.5484
      4257.967        3317.896
 96 10  8 16 51 59.9960000  0  9 23 22 21  1 28  6 26 17  3         -0.003710879
 -14247450.423 9 -11086842.84148  19485267.271    19485266.5824   19485271.1824
      1139.520         887.938
  -5807446.685 9  -4514903.04847  22838286.715    22838285.8074   22838292.1354
      -423.951        -330.351
 -22988799.953 9 -17373399.44148  21056121.353    21056120.8164   21056126.3154
      3192.251        2487.468
  -4203929.356 8  -3242820.97845  23782801.542    23782801.2344   23782808.5754
      4820.194        3755.995
 -19909040.685 9 -15493991.987 9  19396876.360    19396875.929    19396880.021
      1886.584        1470.065
   6055837.363 9   4718256.50747  21276553.873    21276553.5934   21276558.8944
     -2161.518       -1684.300
  -4539448.137 9  -3526473.70147  21700202.739    21700202.6894   21700206.4314
      -969.501        -755.455
  -8979608.401 9  -6989913.74048  19449792.227    19449791.5614   19449796.0524
       853.854         665.341
 -12999884.424 9 -10098257.05546  22195757.576    22195757.2344   22195762.0154
      4249.729        3311.477
 96 10  8 16 52 29.9960000  0  9 23 22 21  1 28  6 26 17  3         -0.003732165
 -14281490.558 9 -11113367.61248  19478789.675    19478788.9784   19478793.5584
      1130.073         880.576
  -5794579.255 9  -4504876.51447  22840735.393    22840734.4894   22840740.7684
      -433.635        -337.897
 -23084464.769 9 -17447943.42648  21037916.926    21037916.3954   21037921.8654
      3185.521        2482.224
  -4348578.365 8  -3355534.45545  23755275.658    23755275.3844   23755282.6074
      4823.043        3758.215
 -19965373.058 9 -15537887.349 9  19386156.664    19386156.245    19386160.323
      1869.068        1456.417
   6120796.380 9   4768873.88747  21288915.208    21288914.9174   21288920.2344
     -2168.743       -1689.930
  -4510152.541 9  -3503645.97847  21705777.496    21705777.4604   21705781.2614
      -983.308        -766.214
  -9005121.936 9  -7009794.42148  19444937.172    19444936.4904   19444940.9984
       847.137         660.107
 -13127257.412 9 -10197508.72047  22171519.245    22171518.8934   22171523.7484
      4242.042        3305.487
 96 10  8 16 52 59.9960000  0  9 23 22 21  1 28  6 26 17  3         -0.003753483
 -14315228.084 9 -11139656.58748  19472369.619    19472368.9614   19472373.5144
      1119.730         872.517
  -5781410.065 9  -4494614.85347  22843241.485    22843240.5544   22843246.8234
      -443.485        -345.573
 -23179910.953 9 -17522317.04548  21019754.077    21019753.5634   21019758.9964
      3178.310        2476.605
  -4493281.780 8  -3468290.33345  23727739.663    23727739.3594   23727746.6174
      4824.541        3759.383
 -20021163.622 9 -15581360.518 9  19375540.076    19375539.656    19375543.739
      1851.044        1442.372
   6185985.789 9   4819670.80447  21301320.321    21301320.0714   21301325.4254
     -2176.544       -1696.008
  -4480428.384 9  -3480484.31147  21711433.823    21711433.8074   21711437.6034
      -997.373        -777.174
  -9030403.223 9  -7029494.13048  19440126.331    19440125.6534   19440130.1354
       839.147         653.881
 -13254385.844 9 -10296569.81546  22147327.440    22147327.0884   22147332.0424
      4233.847        3299.102
 96 10  8 16 53 29.9960000  0  9 23 22 21  1 28  6 26 17  3         -0.003774838
 -14348651.857 9 -11165701.08148  19466009.308    19466008.6204   19466013.1674
      1109.371         864.445
  -5767949.843 9  -4484126.41747  22845802.895    22845801.9414   22845808.2724
      -453.209        -353.150
 -23275145.723 9 -17596525.92748  21001631.509    21001630.9724   21001636.3804
      3171.325        2471.162
  -4638023.609 8  -3581076.15345  23700196.232    23700195.8784   23700203.1404
      4825.664        3760.258
 -20076418.084 9 -15624415.951 9  19365025.523    19365025.092    19365029.171
      1833.352        1428.586
   6251411.339 9   4870651.70947  21313770.366    21313770.1284   21313775.5314
     -2184.381       -1702.115
  -4450286.288 9  -3456996.97947  21717169.712    21717169.6364   21717173.4334
     -1011.431        -788.128
  -9055450.892 9  -7049011.80248  19435359.974    19435359.2844   19435363.7524
       831.542         647.955
 -13381270.629 9 -10395441.05047  22123182.037    22123181.7074   22123186.6794
      4225.958        3292.954
 96 10  8 16 53 59.9960000  0  9 23 22 21  1 28  6 26 17  3         -0.003796220
 -14381751.851 9 -11191493.27548  19459710.624    19459709.9214   19459714.4824
      1098.633         856.078
  -5754189.622 9  -4473404.21347  22848421.427    22848420.4374   22848426.8154
      -462.769        -360.599
 -23370150.073 9 -17670555.26048  20983552.772    20983552.2214   20983557.6264
      3163.535        2465.092
  -4782785.697 8  -3693877.69745  23672648.840    23672648.4624   23672655.7604
      4826.296        3760.750
 -20131130.283 9 -15667048.838 9  19354614.123    19354613.718    19354617.780
      1815.367        1414.572
   6317088.574 9   4921828.74747  21326268.289    21326268.1074   21326273.4974
     -2192.789       -1708.667
  -4419701.944 9  -3433165.03547  21722989.744    21722989.6524   21722993.4564
     -1026.231        -799.661
  -9080254.914 9  -7068339.61248  19430639.930    19430639.2334   19430643.6864
       823.162         641.425
 -13507914.059 9 -10494124.21646  22099082.567    22099082.3054   22099087.2124
      4218.279        3286.971
 96 10  8 16 54 29.9960000  0  9 23 22 21  1 28  6 26 17  3         -0.003817631
 -14414530.489 9 -11217035.06648  19453473.043    19453472.3304   19453476.9274
      1086.758         846.824
  -5740146.720 9  -4462461.74147  22851093.746    22851092.7674   22851099.1724
      -473.402        -368.885
 -23464912.172 9 -17744395.82648  20965520.123    20965519.5994   20965524.9944
      3154.159        2457.786
  -4927560.987 8  -3806689.54745  23645099.072    23645098.6644   23645106.0344
      4825.649        3760.246
 -20185298.629 9 -15709257.944 9  19344306.219    19344305.826    19344309.911
      1796.023        1399.498
   6383023.944 9   4973206.92847  21338815.394    21338815.1984   21338820.6004
     -2202.838       -1716.497
  -4388673.439 9  -3408986.99647  21728894.249    21728894.1874   21728898.0264
     -1042.260        -812.151
  -9104795.314 9  -7087462.00548  19425970.072    19425969.3634   19425973.8334
       813.052         633.547
 -13634325.299 9 -10592626.46146  22075027.329    22075026.9984   22075031.9684
      4209.126        3279.838
 96 10  8 16 54 59.9960000  0  9 23 22 21  1 28  6 26 17  3         -0.003839064
 -14446994.871 9 -11242331.98148  19447295.275    19447294.5794   19447299.1814
      1077.056         839.264
  -5725817.573 9  -4451296.22047  22853820.590    22853819.6054   22853825.9844
      -482.406        -375.901
 -23559435.957 9 -17818050.70348  20947532.814    20947532.2824   20947537.6804
      3146.954        2452.172
  -5072373.753 8  -3919530.58245  23617542.161    23617541.6834   23617549.1004
      4828.198        3762.232
 -20238927.869 9 -15751046.971 9  19334100.933    19334100.540    19334104.608
      1778.733        1386.026
   6449224.881 9   5024792.04847  21351413.074    21351412.8614   21351418.2384
     -2211.078       -1722.918
  -4357196.315 9  -3384459.37747  21734884.167    21734884.1354   21734887.9484
     -1056.561        -823.294
  -9129079.624 9  -7106384.84748  19421348.954    19421348.2424   19421352.6794
       805.612         627.750
 -13760508.063 9 -10690950.66846  22051015.546    22051015.2194   22051020.1484
      4202.362        3274.568
 96 10  8 16 55 29.9960000  0  9 23 22 21  1 28  6 26 17  3         -0.003860513
 -14479156.310 9 -11267392.83748  19441175.142    19441174.4514   19441179.0444
      1066.892         831.344
  -5711199.601 9  -4439905.63347  22856602.312    22856601.3104   22856607.8014
      -492.333        -383.636
 -23653723.915 9 -17891521.81448  20929590.405    20929589.8704   20929595.2844
      3138.591        2445.655
  -5217245.103 8  -4032417.27945  23589974.272    23589973.8504   23589981.0514
      4829.752        3763.443
 -20292015.335 9 -15792413.837 9  19323998.800    19323998.359    19324002.416
      1760.172        1371.562
   6515693.613 9   5076585.83247  21364061.714    21364061.4174   21364066.8744
     -2220.328       -1730.126
  -4325277.828 9  -3359587.84547  21740958.060    21740958.0514   21740961.8694
     -1071.504        -834.938
  -9153136.043 9  -7125130.11748  19416771.201    19416770.4844   19416774.9464
       797.791         621.655
 -13886461.397 9 -10789096.10646  22027047.414    22027047.0514   22027052.0874
      4194.173        3268.187
 96 10  8 16 55 59.9960000  0  9 23 22 21  1 28  6 26 17  3         -0.003881976
 -14511024.241 9 -11292224.98548  19435110.854    19435110.1514   19435114.7344
      1057.970         824.392
  -5696301.705 9  -4428296.93246  22859437.290    22859436.3344   22859442.8114
      -500.482        -389.986
 -23747769.374 9 -17964803.96048  20911694.139    20911693.6174   20911698.9864
      3131.533        2440.156
  -5362177.620 8  -4145351.64245  23562394.652    23562394.1634   23562401.1224
      4832.845        3765.853
 -20344552.821 9 -15833352.148 9  19314001.268    19314000.833    19314004.882
      1742.721        1357.964
   6582432.117 9   5128589.82947  21376761.621    21376761.4004   21376766.8434
     -2228.462       -1736.464
  -4292926.880 9  -3334379.33147  21747114.304    21747114.2524   21747118.1034
     -1084.645        -845.178
  -9176964.746 9  -7143697.94548  19412236.778    19412236.0744   19412240.5234
       791.174         616.499
 -14012172.944 9 -10887053.15046  22003125.308    22003124.9084   22003129.9824
      4186.884        3262.507
 96 10  8 16 56 29.9960000  0  9 23 22 21  1 28  6 26 17  3         -0.003903459
 -14542596.636 9 -11316826.84848  19429102.834    19429102.1174   19429106.7074
      1047.592         816.305
  -5681128.362 9  -4416473.59146  22862324.719    22862323.7854   22862330.2544
      -510.348        -397.674
 -23841583.043 9 -18037905.48848  20893841.992    20893841.4904   20893846.8114
      3123.580        2433.958
  -5507177.906 8  -4258338.83945  23534802.102    23534801.5464   23534808.4674
      4834.522        3767.160
 -20396542.264 9 -15873863.409 9  19304108.022    19304107.600    19304111.645
      1723.966        1343.350
   6649437.112 9   5180801.48247  21389512.228    21389512.0294   21389517.5644
     -2237.756       -1743.706
  -4260168.401 9  -3308853.25747  21753348.066    21753347.9994   21753351.8394
     -1098.619        -856.067
  -9200578.538 9  -7162098.30448  19407743.224    19407742.5234   19407747.0004
       783.795         610.749
 -14137633.831 9 -10984814.85947  21979250.849    21979250.4454   21979255.5534
      4177.764        3255.401
 96 10  8 16 56 59.9960000  0  9 23 22 21  1 28  6 26 17  3         -0.003924962
 -14573878.146 9 -11341202.04548  19423150.170    19423149.4364   19423154.0244
      1037.717         808.611
  -5665676.460 9  -4404433.18946  22865265.159    22865264.2164   22865270.6344
      -519.763        -405.010
 -23935180.508 9 -18110838.54748  20876031.004    20876030.4904   20876035.7714
      3116.102        2428.131
  -5652246.509 8  -4371379.23045  23507196.483    23507195.7994   23507202.8044
      4836.538        3768.731
 -20447985.251 9 -15913948.860 9  19294318.783    19294318.351    19294322.375
      1705.513        1328.971
   6716694.314 9   5233209.65247  21402310.957    21402310.7114   21402316.2034
     -2246.071       -1750.185
  -4227004.385 9  -3283011.18047  21759658.997    21759658.9184   21759662.7224
     -1112.292        -866.721
  -9223990.185 9  -7180341.14948  19403288.144    19403287.4514   19403291.9164
       776.727         605.242
 -14262836.492 9 -11082375.34947  21955425.545    21955425.1554   21955430.2794
      4168.944        3248.528
 96 10  8 16 57 29.9960000  0  9 23 22 21  1 28  6 26 17  3         -0.003946491
 -14604865.023 9 -11365347.66048  19417253.573    19417252.8314   19417257.4334
      1028.136         801.145
  -5649958.123 9  -4392185.18646  22868256.286    22868255.3554   22868261.7204
      -528.091        -411.499
 -24028557.449 9 -18183599.77648  20858261.939    20858261.3994   20858266.6894
      3108.994        2422.593
  -5797367.969 8  -4484460.82445  23479580.824    23479580.0674   23479587.0824
      4838.453        3770.223
 -20498880.980 9 -15953607.878 9  19284633.630    19284633.209    19284637.246
      1687.615        1315.025
   6784191.822 9   5285805.08447  21415155.325    21415155.1324   21415160.6384
     -2253.614       -1756.063
  -4193442.416 9  -3256859.01047  21766045.610    21766045.5654   21766049.3704
     -1125.245        -876.814
  -9247185.002 9  -7198415.03948  19398874.346    19398873.6504   19398878.0874
       769.409         599.539
 -14387773.031 9 -11179728.48747  21931650.910    21931650.4774   21931655.6164
      4160.252        3241.755
 96 10  8 16 57 59.9960000  0  9 23 22 21  1 28  6 26 17  3         -0.003968043
 -14635539.368 9 -11389249.74748  19411416.473    19411415.7354   19411420.3184
      1016.728         792.255
  -5633962.889 9  -4379721.42446  22871300.100    22871299.1384   22871305.5544
      -538.400        -419.532
 -24121699.417 9 -18256177.90248  20840537.626    20840537.0824   20840542.3224
      3100.450        2415.935
  -5942527.986 8  -4597572.46545  23451957.901    23451957.0444   23451964.1684
      4838.844        3770.528
 -20549220.392 9 -15992833.401 9  19275054.403    19275053.975    19275057.999
      1668.247        1299.933
   6851930.014 9   5338588.05647  21428045.486    21428045.3244   21428050.8834
     -2262.258       -1762.798
  -4159460.890 9  -3230379.91847  21772512.150    21772512.0654   21772515.8314
     -1140.306        -888.550
  -9270125.278 9  -7216290.58248  19394508.941    19394508.2554   19394512.6974
       759.933         592.156
 -14512430.180 9 -11276863.91046  21907929.412    21907929.0254   21907934.1564
      4150.161        3233.892
 96 10  8 16 58 29.9960000  0  9 23 22 21  1 28  6 26 17  3         -0.003989609
 -14665894.437 9 -11412903.04448  19405640.154    19405639.3784   19405643.9604
      1006.822         784.537
  -5617676.953 9  -4367031.12446  22874399.191    22874398.3034   22874404.7004
      -547.557        -426.668
 -24214609.278 9 -18328575.17048  20822857.475    20822856.9174   20822862.1544
      3093.336        2410.392
  -6087718.674 9  -4710708.00045  23424328.979    23424328.1274   23424335.2864
      4840.328        3771.684
 -20599002.174 9 -16031624.411 9  19265581.279    19265580.843    19265584.863
      1650.236        1285.898
   6919895.916 9   5391548.46247  21440979.075    21440978.8754   21440984.4204
     -2268.927       -1767.995
  -4125050.255 9  -3203566.45947  21779060.292    21779060.1834   21779063.9974
     -1153.972        -899.199
  -9292807.711 9  -7233965.21148  19390192.622    19390191.9154   19390196.3734
       751.864         585.868
 -14636810.791 9 -11373783.85947  21884260.529    21884260.1614   21884265.3264
      4141.654        3227.263
 96 10  8 16 58 59.9960000  0  9 23 22 21  1 28  6 26 17  3         -0.004011204
 -14695949.418 9 -11436322.50948  19399920.849    19399920.1284   19399924.6654
       996.874         776.785
  -5601110.387 9  -4354122.14546  22877551.815    22877550.9604   22877557.2194
      -556.834        -433.897
 -24307297.762 9 -18400799.93148  20805219.424    20805218.8824   20805224.1114
      3085.863        2404.569
  -6232945.552 9  -4823871.75545  23396693.084    23396692.4444   23396699.2494
      4841.626        3772.696
 -20648233.256 9 -16069986.299 9  19256212.921    19256212.501    19256216.501
      1631.902        1271.612
   6988065.889 9   5444667.88247  21453951.428    21453951.1574   21453956.7354
     -2275.784       -1773.338
  -4090223.510 9  -3176428.74347  21785687.642    21785687.5014   21785691.3174
     -1167.571        -909.796
  -9315224.790 9  -7251433.07148  19385926.797    19385926.0984   19385930.5314
       742.808         578.811
 -14760929.629 9 -11470499.81747  21860641.418    21860641.0924   21860646.2784
      4133.063        3220.569
 96 10  8 16 59 29.9950000  0  9 23 22 21  1 28  6 26 17  3         -0.004032828
 -14725699.791 9 -11459504.61748  19394259.558    19394258.8164   19394263.3394
       987.201         769.248
  -5584266.624 9  -4340997.17946  22880757.136    22880756.2504   22880762.6234
      -565.672        -440.783
 -24399753.103 9 -18472843.03248  20787625.737    20787625.2064   20787630.4394
      3078.480        2398.816
  -6378202.980 9  -4937059.30645  23369051.342    23369050.8114   23369057.5424
      4842.972        3773.744
 -20696908.907 9 -16107915.386 9  19246950.274    19246949.857    19246953.849
      1613.741        1257.461
   7056449.145 9   5497953.50047  21466964.375    21466964.1044   21466969.7014
     -2282.820       -1778.821
  -4054991.970 9  -3148975.61747  21792392.008    21792391.9254   21792395.6774
     -1180.896        -920.179
  -9337375.727 9  -7268693.54748  19381711.640    19381710.9394   19381715.3444
       734.681         572.479
 -14884786.272 9 -11567011.48046  21837072.298    21837071.9494   21837077.1394
      4124.789        3214.121
 96 10  8 16 59 59.9950000  0  9 23 22 21  1 28  6 26 17  3         -0.004054477
 -14755167.803 9 -11482466.70348  19388651.987    19388651.2304   19388655.7394
       977.058         761.344
  -5567150.807 9  -4327660.22046  22884014.193    22884013.3014   22884019.6774
      -575.690        -448.590
 -24491992.672 9 -18544717.99448  20770073.123    20770072.5914   20770077.8324
      3070.620        2392.691
  -6523503.963 9  -5050280.82045  23341401.515    23341400.7974   23341407.7154
      4843.390        3774.070
 -20745039.477 9 -16145419.728 9  19237791.371    19237790.940    19237794.921
      1594.631        1242.570
   7125050.443 9   5551409.02247  21480018.807    21480018.5814   21480024.1784
     -2290.981       -1785.180
  -4019352.109 9  -3121204.31847  21799174.075    21799173.9584   21799177.7634
     -1195.230        -931.348
  -9359294.510 9  -7285773.12448  19377540.638    19377539.9414   19377544.3284
       726.430         566.049
 -15008398.353 9 -11663332.56547  21813549.745    21813549.3284   21813554.5174
      4115.646        3206.997
 96 10  8 17  0 29.9950000  0  9 23 22 21  1 28  6 26 17  3         -0.004076148
 -14784353.545 9 -11505208.83948  19383098.085    19383097.3334   19383101.8784
       968.176         754.423
  -5549758.520 9  -4314107.82546  22887323.930    22887322.9514   22887329.4024
      -584.232        -455.246
 -24584018.490 9 -18616426.38948  20752561.175    20752560.6284   20752565.8894
      3063.840        2387.408
  -6668842.461 9  -5163531.55945  23313744.396    23313743.7194   23313750.5604
      4845.280        3775.543
 -20792614.709 9 -16182491.343 9  19228738.098    19228737.666    19228741.667
      1576.520        1228.457
   7193886.916 9   5605047.78747  21493118.011    21493117.7614   21493123.3034
     -2298.641       -1791.149
  -3983308.186 9  -3093118.16747  21806033.027    21806032.9124   21806036.7144
     -1208.149        -941.415
  -9380990.025 9  -7302678.72848  19373412.146    19373411.4494   19373415.8404
       719.426         560.592
 -15131754.674 9 -11759454.36447  21790075.765    21790075.3924   21790080.5424
      4107.592        3200.721
 96 10  8 17  0 59.9950000  0  9 23 22 21  1 28  6 26 17  3         -0.004097837
 -14813254.216 9 -11527728.84048  19377598.471    19377597.7164   19377602.2744
       958.440         746.836
  -5532099.380 9  -4300347.49646  22890684.411    22890683.4034   22890689.8244
      -592.993        -462.072
 -24675813.296 9 -18687954.78248  20735093.145    20735092.6374   20735097.8874
      3055.704        2381.068
  -6814217.177 9  -5276810.51445  23286080.360    23286079.8714   23286086.7344
      4846.290        3776.330
 -20839626.690 9 -16219124.062 9  19219792.031    19219791.618    19219795.606
      1557.606        1213.719
   7262975.918 9   5658883.33647  21506265.264    21506265.0224   21506270.5304
     -2307.376       -1797.955
  -3946858.024 9  -3064715.46447  21812969.260    21812969.1514   21812972.9854
     -1221.916        -952.142
  -9402455.533 9  -7319405.10148  19369327.430    19369326.7214   19369331.1094
       711.771         554.627
 -15254846.096 9 -11855369.74247  21766652.277    21766651.9254   21766656.9994
      4098.336        3193.509
 96 10  8 17  1 29.9950000  0  9 23 22 21  1 28  6 26 17  3         -0.004119543
 -14841878.780 9 -11550033.69148  19372151.428    19372150.6564   19372155.1714
       949.858         740.149
  -5514196.166 9  -4286396.97046  22894091.302    22894090.2964   22894096.6044
      -600.636        -468.028
 -24767375.902 9 -18759302.24248  20717669.390    20717668.8544   20717674.0644
      3048.420        2375.392
  -6959631.642 9  -5390120.44045  23258408.874    23258408.3274   23258415.2114
      4847.984        3777.650
 -20886086.433 9 -16255326.467 9  19210951.084    19210950.654    19210954.625
      1539.621        1199.705
   7332317.078 9   5712915.37247  21519460.573    21519460.3054   21519465.7464
     -2315.190       -1804.044
  -3910002.904 9  -3035997.21447  21819982.541    21819982.4894   21819986.3194
     -1235.121        -962.432
  -9423715.361 9  -7335971.20948  19365281.842    19365281.1424   19365285.5154
       705.211         549.515
 -15377664.382 9 -11951072.28147  21743280.732    21743280.4014   21743285.4064
      4089.376        3186.527
 96 10  8 17  1 59.9950000  0  9 23 22 21  1 28  6 26 17  3         -0.004141252
 -14870215.643 9 -11572114.35948  19366759.106    19366758.3804   19366762.8694
       939.280         731.906
  -5496032.176 9  -4272243.25246  22897547.817    22897546.8594   22897553.1114
      -610.121        -475.419
 -24858694.444 9 -18830459.51748  20700292.091    20700291.5014   20700296.7144
      3039.581        2368.505
  -7105071.730 9  -5503450.34645  23230732.463    23230731.9444   23230738.9164
      4848.100        3777.740
 -20931976.858 9 -16291085.246 9  19202218.420    19202218.008    19202221.977
      1519.815        1184.271
   7401909.949 9   5767143.53847  21532703.734    21532703.4684   21532708.8704
     -2324.202       -1811.066
  -3872720.635 9  -3006946.11847  21827077.140    21827077.0454   21827080.9004
     -1250.143        -974.137
  -9444729.800 9  -7352346.10548  19361282.970    19361282.2614   19361286.6054
       695.719         542.119
 -15500178.716 9 -12046537.98047  21719967.019    21719966.6724   21719971.6524
      4078.299        3177.895
 96 10  8 17  2 29.9950000  0  9 23 22 21  1 28  6 26 17  3         -0.004162971
 -14898258.108 9 -11593965.62948  19361422.824    19361422.0864   19361426.5714
       929.396         724.205
  -5477621.988 9  -4257897.70146  22901051.043    22901050.0934   22901056.5294
      -617.853        -481.444
 -24949766.520 9 -18901424.74148  20682961.653    20682961.0714   20682966.2454
      3031.186        2361.963
  -7250540.266 8  -5616802.40645  23203050.676    23203050.0734   23203057.0244
      4848.916        3778.376
 -20977301.113 9 -16326402.850 9  19193593.526    19193593.103    19193597.056
      1501.134        1169.715
   7471742.605 9   5821558.56547  21545992.518    21545992.2304   21545997.5684
     -2331.840       -1817.018
  -3835018.368 9  -2977567.74647  21834251.635    21834251.5774   21834255.4564
     -1264.035        -984.962
  -9465482.450 9  -7368517.00448  19357333.899    19357333.1884   19357337.5154
       687.171         535.458
 -15622384.378 9 -12141763.16147  21696712.051    21696711.6904   21696716.6294
      4068.081        3169.933
 96 10  8 17  2 59.9950000  0  9 23 22 21  1 28  6 26 17  3         -0.004184695
 -14925994.605 9 -11615578.48048  19356144.755    19356144.0234   19356148.4944
       918.954         716.068
  -5458972.071 9  -4243365.31946  22904600.131    22904599.1324   22904605.4224
      -626.414        -488.115
 -25040582.648 9 -18972190.52748  20665679.920    20665679.3524   20665684.4954
      3022.584        2355.260
  -7396013.728 9  -5730158.28245  23175367.919    23175367.2434   23175374.5214
      4848.650        3778.169
 -21022059.036 9 -16361279.159 9  19185076.389    19185075.964    19185079.918
      1481.970        1154.782
   7541800.426 9   5876149.03147  21559324.163    21559323.8514   21559329.1234
     -2339.548       -1823.024
  -3796889.981 9  -2947857.34147  21841507.171    21841507.1324   21841511.0634
     -1278.506        -996.238
  -9485972.719 9  -7384483.46248  19353434.738    19353434.0174   19353438.3554
       678.130         528.413
 -15744266.102 9 -12236735.90947  21673518.854    21673518.4584   21673523.3154
      4056.602        3160.988
 96 10  8 17  3 29.9950000  0  9 23 22 21  1 28  6 26 17  3         -0.004206414
 -14953425.335 9 -11636953.07248  19350924.858    19350924.1324   19350928.6004
       909.691         708.850
  -5440064.310 9  -4228632.04946  22908198.134    22908197.1534   22908203.3514
      -634.185        -494.170
 -25131153.473 9 -19042765.16848  20648444.813    20648444.2464   20648449.4154
      3015.493        2349.735
  -7541481.812 9  -5843509.98745  23147686.265    23147685.6134   23147692.7654
      4849.325        3778.695
 -21066245.250 9 -16395709.979 9  19176668.049    19176667.612    19176671.575
      1463.742        1140.578
   7612084.522 9   5930915.82247  21572698.852    21572698.5394   21572703.7464
     -2346.020       -1828.068
  -3758328.524 9  -2917809.47647  21848845.162    21848845.1454   21848849.0884
     -1292.198       -1006.908
  -9506189.864 9  -7400237.08948  19349587.531    19349586.8074   19349591.1744
       669.587         521.756
 -15865804.788 9 -12331441.37047  21650390.854    21650390.4524   21650395.2774
      4046.023        3152.745
 96 10  8 17  3 59.9950000  0  9 23 22 21  1 28  6 26 17  3         -0.004228133
 -14980548.466 9 -11658087.97448  19345763.542    19345762.8204   19345767.2614
       898.607         700.213
  -5420903.270 9  -4213701.39046  22911844.326    22911843.4334   22911849.6834
      -643.046        -501.075
 -25221488.363 9 -19113155.95548  20631254.658    20631254.0764   20631259.2514
      3006.972        2343.095
  -7686955.750 9  -5956866.24246  23120003.425    23120002.8334   23120009.9904
      4849.217        3778.611
 -21109864.049 9 -16429698.657 9  19168367.699    19168367.263    19168371.204
      1444.268        1125.404
   7682584.392 9   5985850.75146  21586114.585    21586114.3154   21586119.5124
     -2353.909       -1834.215
  -3719334.188 9  -2887424.29747  21856265.597    21856265.5964   21856269.4984
     -1307.143       -1018.553
  -9526131.652 9  -7415776.14648  19345792.738    19345792.0424   19345796.3974
       660.215         514.453
 -15987011.239 9 -12425887.94547  21627326.080    21627325.6874   21627330.4164
      4034.492        3143.760
 96 10  8 17  4 29.9950000  0  9 23 22 21  1 28  6 26 17  3         -0.004249865
 -15007356.703 9 -11678977.50048  19340662.133    19340661.3624   19340665.8314
       888.561         692.385
  -5401496.635 9  -4198579.39346  22915537.357    22915536.4214   22915542.6454
      -650.789        -507.108
 -25311586.700 9 -19183362.41848  20614109.494    20614108.8964   20614114.0544
      2999.659        2337.397
  -7832447.431 9  -6070236.31946  23092317.313    23092316.7374   23092323.9254
      4850.201        3779.377
 -21152919.161 9 -16463248.096 9  19160174.636    19160174.166    19160178.110
      1425.991        1111.162
   7753296.287 9   6040950.90246  21599570.630    21599570.3334   21599575.5904
     -2360.178       -1839.100
  -3679922.181 9  -2856713.65447  21863765.501    21863765.4714   21863769.3394
     -1320.272       -1028.783
  -9545822.320 9  -7431119.53248  19342045.750    19342045.0484   19342049.3964
       652.380         508.348
 -16107896.116 9 -12520083.93047  21604322.488    21604322.0734   21604326.7824
      4024.462        3135.944
 96 10  8 17  4 59.9950000  0  9 23 22 21  1 28  6 26 17  3         -0.004271622
 -15033865.591 9 -11699633.77248  19335617.653    19335616.8944   19335621.3774
       879.516         685.337
  -5381846.071 9  -4183267.29046  22919276.796    22919275.8304   22919282.0424
      -658.417        -513.052
 -25401469.524 9 -19253400.94948  20597005.328    20597004.7554   20597009.8854
      2993.209        2332.371
  -7977966.370 8  -6183627.61146  23064625.887    23064625.3394   23064632.4484
      4851.918        3780.715
 -21195418.714 9 -16496364.633 9  19152087.246    19152086.792    19152090.714
      1408.048        1097.180
   7824200.766 9   6096201.10647  21613063.360    21613063.0434   21613068.3304
     -2366.106       -1843.719
  -3640120.359 9  -2825699.27247  21871339.503    21871339.5194   21871343.3534
     -1332.299       -1038.155
  -9565263.871 9  -7446268.79848  19338346.158    19338345.4554   19338349.8204
       644.511         502.216
 -16228475.730 9 -12614042.06547  21581376.924    21581376.5474   21581381.2424
      4015.008        3128.578
 96 10  8 17  5 29.9950000  0  9 23 22 21  1 28  6 26 17  3         -0.004293411
 -15060077.962 9 -11720058.99248  19330629.591    19330628.8364   19330633.3274
       868.491         676.746
  -5361956.668 9  -4167769.09746  22923061.662    22923060.6964   22923066.9314
      -666.905        -519.666
 -25491128.383 9 -19323264.96448  20579943.787    20579943.2044   20579948.3234
      2984.565        2325.635
  -8123519.099 9  -6297045.25346  23036928.199    23036927.5534   23036934.6094
      4852.041        3780.811
 -21237358.226 9 -16529044.771 9  19144106.450    19144105.988    19144109.898
      1388.458        1081.915
   7895302.456 9   6151604.97946  21626593.579    21626593.2624   21626598.5824
     -2373.404       -1849.406
  -3599943.360 9  -2794392.53347  21878984.901    21878984.9454   21878988.8004
     -1345.543       -1048.475
  -9584450.685 9  -7461219.56548  19334695.013    19334694.3224   19334698.7124
       635.138         494.913
 -16348761.976 9 -12707771.58947  21558487.202    21558486.8614   21558491.5534
      4004.660        3120.514
 96 10  8 17  5 59.9950000  0  9 23 22 21  1 28  6 26 17  3         -0.004315246
 -15085983.742 9 -11740245.30548  19325699.900    19325699.1324   19325703.6174
       858.647         669.076
  -5341836.487 9  -4152091.04146  22926890.407    22926889.4244   22926895.6244
      -674.615        -525.674
 -25580555.131 9 -19392948.10248  20562926.455    20562925.8744   20562930.9824
      2977.049        2319.778
  -8269102.792 8  -6410486.99246  23009224.491    23009223.8204   23009230.8554
      4853.088        3781.627
 -21278732.316 9 -16561284.323 9  19136233.268    19136232.787    19136236.682
      1369.651        1067.261
   7966599.312 9   6207160.94046  21640160.926    21640160.5864   21640165.9274
     -2379.866       -1854.441
  -3559403.397 9  -2762802.95847  21886699.487    21886699.4884   21886703.2984
     -1357.176       -1057.540
  -9603381.038 9  -7475970.49748  19331092.724    19331092.0294   19331096.4254
       626.821         488.432
 -16468767.241 9 -12801282.16247  21535650.905    21535650.5974   21535655.2414
      3995.590        3113.447
 96 10  8 17  6 29.9950000  0  9 23 22 21  1 28  6 26 17  3         -0.004337129
 -15111611.060 9 -11760214.63648  19320823.199    19320822.4344   19320826.8854
       849.661         662.074
  -5321484.525 9  -4136232.41646  22930763.369    22930762.4124   22930768.5444
      -682.400        -531.740
 -25669759.243 9 -19462457.76248  20545951.493    20545950.8764   20545955.9524
      2969.648        2314.011
  -8414702.594 9  -6523941.28346  22981517.618    22981517.0644   22981524.0244
      4853.103        3781.639
 -21319545.951 9 -16593087.155 9  19128466.687    19128466.218    19128470.102
      1350.980        1052.712
   8038085.434 9   6262864.37946  21653764.334    21653763.9674   21653769.2814
     -2386.238       -1859.406
  -3518531.192 9  -2730954.50447  21894477.245    21894477.2684   21894481.0874
     -1368.027       -1065.995
  -9622065.429 9  -7490529.76448  19327537.272    19327536.5374   19327540.9204
       618.558         481.993
 -16588504.398 9 -12894583.83747  21512865.686    21512865.3944   21512869.9814
      3986.564        3106.414
 96 10  8 17  6 59.9950000  0  9 23 22 21  1 28  6 26 17  3         -0.004359054
 -15136988.217 9 -11779989.04548  19315994.069    19315993.2984   19315997.7584
       841.766         655.922
  -5300909.163 9  -4120199.68046  22934678.857    22934677.8484   22934684.0224
      -689.529        -537.295
 -25758751.662 9 -19531802.47548  20529016.802    20529016.1714   20529021.2504
      2962.718        2308.611
  -8560305.083 9  -6637397.67346  22953810.338    22953809.8114   22953816.7244
      4853.442        3781.903
 -21359807.231 9 -16624459.582 9  19120805.219    19120804.744    19120808.624
      1332.759        1038.514
   8109761.951 9   6318716.17346  21667403.970    21667403.6244   21667408.8694
     -2392.505       -1864.290
  -3477337.112 9  -2698855.23847  21902316.292    21902316.2914   21902320.0974
     -1378.559       -1074.202
  -9640514.822 9  -7504905.91948  19324026.478    19324025.7244   19324030.1324
       611.262         476.308
 -16707974.039 9 -12987677.04547  21490131.397    21490131.0704   21490135.6154
      3977.703        3099.509
 96 10  8 17  7 29.9950000  0  9 23 22 21  1 28  6 26 17  3         -0.004381022
 -15162120.999 9 -11799573.01948  19311211.442    19311210.6904   19311215.1704
       833.771         649.692
  -5280127.536 9  -4104006.23146  22938633.549    22938632.5184   22938638.6534
      -696.113        -542.426
 -25847527.847 9 -19600978.68848  20512123.233    20512122.6154   20512127.6994
      2955.712        2303.152
  -8705913.148 9  -6750858.40146  22926101.945    22926101.4724   22926108.4654
      4853.559        3781.994
 -21399517.856 9 -16655402.924 9  19113248.541    19113248.083    19113251.959
      1314.460        1024.255
   8181627.012 9   6374714.87946  21681079.374    21681079.0844   21681084.3554
     -2398.629       -1869.062
  -3435815.873 9  -2666501.04147  21910217.537    21910217.5174   21910221.3694
     -1389.754       -1082.925
  -9658752.250 9  -7519116.90148  19320556.030    19320555.2694   19320559.6574
       604.279         470.867
 -16827175.786 9 -13080561.50247  21467448.048    21467447.6954   21467452.2224
      3968.778        3092.554
 96 10  8 17  7 59.9950000  0  9 23 22 21  1 28  6 26 17  3         -0.004403009
 -15187004.771 9 -11818962.96448  19306476.273    19306475.4924   19306479.9544
       825.424         643.188
  -5259116.263 9  -4087633.83946  22942631.955    22942630.9074   22942637.0764
      -704.236        -548.755
 -25936078.579 9 -19669979.23148  20495272.564    20495271.9514   20495277.0414
      2947.917        2297.078
  -8851501.006 9  -6864303.38346  22898397.593    22898397.0094   22898403.8324
      4852.533        3781.195
 -21438658.207 9 -16685901.901 9  19105800.392    19105799.926    19105803.811
      1295.228        1009.269
   8253689.919 9   6430867.75746  21694792.491    21694792.2544   21694797.5204
     -2405.375       -1874.318
  -3393934.566 9  -2633866.27547  21918187.335    21918187.2904   21918191.1164
     -1402.071       -1092.523
  -9676758.617 9  -7533147.84348  19317129.545    19317128.7864   19317133.1344
       596.523         464.823
 -16946078.028 9 -13173212.58847  21444821.644    21444821.2824   21444825.8864
      3958.247        3084.348
 96 10  8 17  8 29.9950000  0  9 23 22 21  1 28  6 26 17  3         -0.004425005
 -15211628.834 9 -11838150.53248  19301790.524    19301789.7194   19301794.1644
       816.441         636.188
  -5237869.196 9  -4071077.71846  22946675.165    22946674.0994   22946680.2844
      -711.798        -554.648
 -26024392.210 9 -19738795.01948  20478467.002    20478466.3974   20478471.5084
      2940.016        2290.921
  -8997051.039 9  -6977718.88246  22870700.379    22870699.7454   22870706.4954
      4851.341        3780.266
 -21477221.771 9 -16715951.431 9  19098462.020    19098461.544    19098465.415
      1276.093         994.358
   8325950.418 9   6487174.60546  21708543.180    21708542.9814   21708548.2604
     -2411.537       -1879.120
  -3351682.055 9  -2600942.24947  21926227.824    21926227.7554   21926231.4794
     -1414.377       -1102.112
  -9694532.376 9  -7546997.52548  19313747.336    19313746.5644   19313750.9094
       588.751         458.767
 -17064653.858 9 -13265609.32047  21422257.431    21422257.0364   21422261.6624
      3947.195        3075.736
 96 10  8 17  8 59.9950000  0  9 23 22 21  1 28  6 26 17  3         -0.004447021
 -15235987.472 9 -11857131.28648  19297155.184    19297154.4064   19297158.8384
       807.525         629.240
  -5216409.342 9  -4054355.78646  22950758.865    22950757.7634   22950764.1044
      -718.750        -560.065
 -26112476.098 9 -19807431.78848  20461705.199    20461704.5824   20461709.6724
      2932.227        2284.852
  -9142583.414 9  -7091120.65446  22843006.481    22843005.8524   22843012.5504
      4850.939        3779.952
 -21515220.180 9 -16745560.588 9  19091231.159    19091230.682    19091234.564
      1257.196         979.633
   8398385.899 9   6543617.79346  21722327.209    21722326.9544   21722332.3314
     -2417.233       -1883.558
  -3309061.919 9  -2567731.77847  21934338.244    21934338.1854   21934341.8254
     -1426.931       -1111.894
  -9712078.399 9  -7560669.75748  19310408.419    19310407.6544   19310412.0164
       580.959         452.695
 -17182906.295 9 -13357754.06947  21399754.674    21399754.2984   21399758.9364
      3936.383        3067.311
 96 10  8 17  9 29.9950000  0  9 23 22 21  1 28  6 26 17  3         -0.004469049
 -15260059.295 9 -11875888.53748  19292574.479    19292573.7134   19292578.1274
       798.107         621.902
  -5194723.371 9  -4037457.66346  22954885.607    22954884.5124   22954890.9324
      -726.272        -565.926
 -26200309.449 9 -19875873.32448  20444991.058    20444990.4094   20444995.4974
      2924.159        2278.565
  -9288087.842 9  -7204500.65446  22815317.771    22815317.1854   22815323.8414
      4850.052        3779.261
 -21552636.993 9 -16774716.545 9  19084110.984    19084110.512    19084114.399
      1238.032         964.700
   8470997.707 9   6600198.38946  21736144.793    21736144.4814   21736149.8954
     -2422.882       -1887.960
  -3266046.127 9  -2534213.00247  21942523.884    21942523.7704   21942527.4634
     -1439.894       -1121.995
  -9729367.774 9  -7574141.99548  19307118.385    19307117.6164   19307121.9774
       572.220         445.886
 -17300822.874 9 -13449637.09947  21377315.841    21377315.5254   21377320.1594
      3925.481        3058.816
 96 10  8 17  9 59.9950000  0  9 23 22 21  1 28  6 26 17  3         -0.004491086
 -15283835.691 9 -11894415.59148  19288050.014    19288049.2234   19288053.6354
       787.120         613.340
  -5172795.385 9  -4020370.93946  22959058.367    22959057.3394   22959063.6554
      -735.399        -573.038
 -26287887.433 9 -19944115.88148  20428325.496    20428324.8564   20428329.9334
      2914.467        2271.013
  -9433557.208 9  -7317853.32946  22787635.750    22787635.1864   22787641.7464
      4848.112        3777.750
 -21589469.942 9 -16803417.547 9  19077101.943    19077101.451    19077105.325
      1217.670         948.834
   8543789.704 9   6656919.37946  21749996.626    21749996.3674   21750001.8464
     -2429.888       -1893.419
  -3222639.743 9  -2500389.88847  21950783.806    21950783.7174   21950787.5024
     -1453.588       -1132.666
  -9746379.816 9  -7587398.13348  19303881.114    19303880.3504   19303884.7174
       562.161         438.048
 -17418398.051 9 -13541254.11047  21354942.057    21354941.6634   21354946.3604
      3913.184        3049.234
 96 10  8 17 10 29.9950000  0 10 23 22 21  1 28  6 26 17  3  9      -0.004513145
 -15307326.538 9 -11912720.14548  19283579.846    19283579.0594   19283583.4734
       778.181         606.375
  -5150642.493 9  -4003108.98646  22963273.929    22963272.9304   22963279.3764
      -742.357        -578.460
 -26375221.475 9 -20012168.35848  20411706.378    20411705.7224   20411710.7924
      2906.866        2265.090
  -9579008.865 9  -7431192.21646  22759957.174    22759956.6454   22759963.0704
      4847.811        3777.515
 -21625736.701 9 -16831677.364 9  19070200.640    19070200.143    19070204.001
      1199.184         934.429
   8616754.345 9   6713774.89746  21763881.351    21763881.1304   21763886.6074
     -2435.258       -1897.604
  -3178868.757 9  -2466282.65447  21959113.149    21959113.0504   21959116.9054
     -1465.337       -1141.821
  -9763129.996 9  -7600450.22648  19300693.679    19300692.9194   19300697.2834
       553.623         431.394
 -17535655.310 9 -13632623.38847  21332628.771    21332628.3594   21332633.0444
      3902.984        3041.286
  -3630431.09218  -2792421.16755  23735523.498    23735522.7445   23735528.7615
      3348.418        2609.157
 96 10  8 17 10 59.9950000  0 10 23 22 21  1 28  6 26 17  3  9      -0.004535223
 -15330554.407 9 -11930819.77548  19279159.773    19279158.9464   19279163.3644
       770.199         600.155
  -5128274.058 9  -3985679.06446  22967530.469    22967529.4894   22967536.0294
      -748.962        -583.607
 -26462315.005 9 -20080033.41848  20395133.037    20395132.3894   20395137.4364
      2899.316        2259.207
  -9724447.110 9  -7544520.66146  22732281.178    22732280.7004   22732287.0224
      4847.877        3777.566
 -21661438.595 9 -16859497.022 9  19063406.809    19063406.300    19063410.143
      1180.791         920.097
   8689894.755 9   6770767.38246  21777799.584    21777799.3434   21777804.8864
     -2440.719       -1901.859
  -3134732.685 9  -2431890.93947  21967512.006    21967511.9014   21967515.8134
     -1477.215       -1151.077
  -9779610.801 9  -7613292.40848  19297557.459    19297556.7014   19297561.0814
       544.950         424.636
 -17652591.393 9 -13723742.39047  21310376.594    21310376.1874   21310380.8894
      3892.497        3033.115
  -3730855.084 8  -2870673.55645  23716413.208    23716412.3654   23716419.0714
      3346.438        2607.614
 96 10  8 17 11 29.9950000  0 10 23 22 21  1 28  6 26 17  3  9      -0.004557309
 -15353512.232 9 -11948708.98048  19274791.042    19274790.2194   19274794.6284
       760.444         592.554
  -5105682.764 9  -3968075.49546  22971829.438    22971828.4364   22971835.0274
      -756.888        -589.783
 -26549160.977 9 -20147705.58248  20378606.778    20378606.1354   20378611.1884
      2890.617        2252.429
  -9869855.084 9  -7657825.52446  22704610.906    22704610.2954   22704616.6174
      4846.128        3776.204
 -21696561.339 9 -16886865.398 9  19056723.188    19056722.689    19056726.509
      1160.846         904.555
   8763222.946 9   6827906.19146  21791753.610    21791753.3194   21791758.8194
     -2447.750       -1907.338
  -3090224.578 9  -2397209.33247  21975981.701    21975981.5194   21975985.5104
     -1489.811       -1160.892
  -9795803.792 9  -7625910.32948  19294476.048    19294475.2844   19294479.6954
       534.712         416.659
 -17769181.056 9 -13814591.47347  21288190.336    21288189.9554   21288194.6324
      3880.146        3023.490
  -3831194.388 8  -2948859.97645  23697319.306    23697318.4844   23697324.9684
      3342.988        2604.926
 96 10  8 17 11 59.9950000  0 10 23 22 21  1 28  6 26 17  3  9      -0.004579406
 -15376201.505 9 -11966388.92548  19270473.422    19270472.5934   19270477.0034
       751.472         585.562
  -5082879.420 9  -3950306.68346  22976168.840    22976167.9254   22976174.2754
      -764.095        -595.399
 -26635762.248 9 -20215187.06648  20362127.099    20362126.4644   20362131.4764
      2882.150        2245.831
 -10015234.558 9  -7771108.16946  22676945.999    22676945.2984   22676951.6984
      4844.962        3775.295
 -21731101.922 9 -16913780.139 9  19050150.359    19050149.857    19050153.651
      1141.128         889.191
   8836747.234 9   6885197.80046  21805744.853    21805744.5724   21805749.9984
     -2454.568       -1912.650
  -3045364.038 9  -2362253.10747  21984518.328    21984518.1944   21984522.2414
     -1501.721       -1170.172
  -9811712.707 9  -7638306.89048  19291448.718    19291447.9364   19291452.3674
       525.258         409.292
 -17885408.773 9 -13905158.50547  21266072.968    21266072.5304   21266077.2604
      3867.601        3013.715
  -3931447.266 8  -3026979.05345  23678241.672    23678240.9514   23678247.2084
      3339.803        2602.444
 96 10  8 17 12 29.9950000  0 10 23 22 21  1 28  6 26 17  3  9      -0.004601504
 -15398625.085 9 -11983861.83448  19266206.376    19266205.5414   19266209.9124
       743.212         579.126
  -5059869.543 9  -3932376.93146  22980547.524    22980546.5534   22980552.8094
      -770.187        -600.146
 -26722122.073 9 -20282480.41548  20345693.392    20345692.7464   20345697.7424
      2874.950        2240.221
 -10160568.586 9  -7884355.41146  22649289.753    22649289.0774   22649295.5364
      4843.833        3774.415
 -21765048.807 9 -16940232.259 9  19043690.508    19043689.994    19043693.784
      1121.789         874.121
   8910475.689 9   6942648.51446  21819775.006    21819774.7394   21819780.1024
     -2460.576       -1917.332
  -3000144.724 9  -2327017.31747  21993123.233    21993123.1154   21993127.2614
     -1513.036       -1178.989
  -9827337.531 9  -7650482.08148  19288475.437    19288474.6564   19288479.0584
       516.113         402.166
 -18001252.003 9 -13995425.94547  21244028.717    21244028.3094   21244033.0594
      3855.025        3003.916
  -4031600.741 8  -3105020.63245  23659182.937    23659182.0954   23659188.3934
      3337.006        2600.264
 96 10  8 17 12 59.9950000  0 10 23 22 21  1 28  6 26 17  3  9      -0.004623611
 -15420785.889 9 -12001129.99148  19261989.288    19261988.4564   19261992.8114
       734.088         572.017
  -5036668.493 9  -3914298.21446  22984962.606    22984961.6194   22984967.9104
      -776.577        -605.125
 -26808256.880 9 -20349598.41848  20329302.495    20329301.8254   20329306.8464
      2867.467        2234.390
 -10305862.095 9  -7997571.10346  22621641.273    22621640.6614   22621646.9904
      4842.412        3773.308
 -21798406.010 9 -16966224.885 9  19037342.875    19037342.346    19037346.111
      1101.994         858.697
   8984387.635 9   7000242.19446  21833840.030    21833839.7694   21833845.1724
     -2466.924       -1922.278
  -2954578.398 9  -2291511.11847  22001794.298    22001794.1264   22001798.2634
     -1524.727       -1188.099
  -9842682.531 9  -7662439.22448  19285555.406    19285554.6164   19285558.9824
       506.998         395.063
 -18116710.571 9 -14085393.64347  21222057.690    21222057.2354   21222061.9854
      3842.392        2994.072
  -4131661.962 8  -3182990.36545  23640141.769    23640140.9774   23640147.5154
      3333.678        2597.671
 96 10  8 17 13 29.9950000  0 10 23 22 21  1 28  6 26 17  3  9      -0.004645749
 -15442690.000 9 -12018198.12448  19257821.083    19257820.2554   19257824.5654
       725.554         565.367
  -5013296.869 9  -3896086.60046  22989410.099    22989409.0834   22989415.4654
      -782.324        -609.603
 -26894193.052 9 -20416561.64448  20312949.337    20312948.6774   20312953.7374
      2860.831        2229.219
 -10451131.795 9  -8110768.21846  22593997.345    22593996.6634   22594003.0514
      4841.591        3772.668
 -21831191.994 9 -16991772.409 9  19031103.916    19031103.387    19031107.147
      1083.062         843.944
   9058466.804 9   7057966.17346  21847936.932    21847936.6014   21847942.0414
     -2472.475       -1926.604
  -2908683.109 9  -2255748.59447  22010527.958    22010527.7674   22010531.8904
     -1535.758       -1196.695
  -9857788.802 9  -7674210.35048  19282680.818    19282680.0134   19282684.3484
       499.423         389.161
 -18231825.607 9 -14175093.65947  21200152.050    21200151.5844   21200156.2964
      3831.317        2985.442
  -4231643.288 8  -3260897.83145  23621115.896    23621115.3164   23621121.6134
      3331.009        2595.591
 96 10  8 17 13 59.9950000  0 10 23 22 21  1 28  6 26 17  3  9      -0.004667911
 -15464334.558 9 -12035064.00748  19253702.308    19253701.4604   19253705.7624
       717.208         558.863
  -4989742.185 9  -3877732.32046  22993892.418    22993891.3464   22993897.8244
      -788.185        -614.170
 -26979916.502 9 -20483359.10648  20296636.732    20296636.0524   20296641.0774
      2854.046        2223.932
 -10596367.564 9  -8223938.92746  22566360.028    22566359.2514   22566365.5664
      4840.595        3771.892
 -21863404.233 9 -17016872.857 9  19024974.175    19024973.629    19024977.367
      1064.353         829.366
   9132715.297 9   7115822.10646  21862066.016    21862065.6864   21862071.1294
     -2477.387       -1930.431
  -2862441.513 9  -2219716.21747  22019327.473    22019327.2704   22019331.4274
     -1547.087       -1205.522
  -9872662.019 9  -7685799.87048  19279850.564    19279849.7544   19279854.0754
       491.980         383.361
 -18346605.911 9 -14264532.84047  21178310.101    21178309.6314   21178314.3454
      3820.614        2977.102
  -4331535.289 8  -3338735.70645  23602107.222    23602106.5904   23602112.4564
      3328.392        2593.552
 96 10  8 17 14 29.9950000  0 10 23 22 21  1 28  6 26 17  3  9      -0.004690089
 -15485697.729 9 -12051710.62948  19249637.032    19249636.1424   19249640.4604
       707.738         551.484
  -4965989.482 9  -3859223.75946  22998412.456    22998411.4384   22998417.8064
      -794.480        -619.075
 -27065423.747 9 -20549988.10248  20280365.210    20280364.5624   20280369.5684
      2847.052        2218.482
 -10741542.144 9  -8337061.93146  22538734.201    22538733.4164   22538739.7604
      4838.653        3770.379
 -21895036.010 9 -17041520.999 9  19018954.874    19018954.298    19018958.046
      1045.212         814.451
   9207130.390 9   7173807.84446  21876226.763    21876226.4864   21876231.9464
     -2482.659       -1934.539
  -2815834.667 9  -2183399.22947  22028196.511    22028196.3214   22028200.4444
     -1559.205       -1214.965
  -9887282.359 9  -7697192.34948  19277068.431    19277067.6104   19277071.9354
       483.514         376.764
 -18461048.218 9 -14353708.65547  21156532.470    21156531.9934   21156536.7064
      3809.596        2968.516
  -4431328.902 8  -3416496.93445  23583117.093    23583116.6054   23583122.3924
      3325.393        2591.215
 96 10  8 17 14 59.9950000  0 10 23 22 21  1 28  6 26 17  3  9      -0.004712283
 -15506767.318 9 -12068128.48348  19245627.581    19245626.7364   19245631.0454
       697.266         543.324
  -4942038.457 9  -3840560.66346  23002970.206    23002969.1454   23002975.5534
      -801.835        -624.806
 -27150702.089 9 -20616438.73148  20264137.310    20264136.6164   20264141.6284
      2838.464        2211.790
 -10886652.734 9  -8450135.08746  22511120.601    22511119.8874   22511126.1374
      4835.601        3768.001
 -21926085.924 9 -17065715.742 9  19013046.288    19013045.705    19013049.461
      1025.138         798.809
   9281708.257 9   7231920.42946  21890418.498    21890418.2114   21890423.5854
     -2489.032       -1939.505
  -2768853.882 9  -2146790.86247  22037136.700    22037136.4974   22037140.6094
     -1572.490       -1225.317
  -9901644.236 9  -7708383.42548  19274335.469    19274334.6334   19274338.9924
       474.322         369.602
 -18575151.218 9 -14442620.06847  21134819.333    21134818.8884   21134823.6254
      3797.644        2959.203
  -4531022.720 8  -3494180.41545  23564145.884    23564145.3374   23564151.3804
      3321.241        2587.980
 96 10  8 17 15 29.9950000  0 10 23 22 21  1 28  6 26 17  3  9      -0.004734492
 -15527550.306 9 -12084323.01148  19241672.777    19241671.8814   19241676.1674
       688.414         536.426
  -4917889.702 9  -3821743.49246  23007565.665    23007564.5934   23007570.9634
      -808.003        -629.613
 -27235743.101 9 -20682704.42048  20247954.523    20247953.8344   20247958.8364
      2830.857        2205.863
 -11031691.093 9  -8563151.93746  22483520.794    22483519.9854   22483526.3194
      4833.684        3766.507
 -21956559.368 9 -17089461.283 9  19007247.405    19007246.811    19007250.574
      1006.502         784.287
   9356446.316 9   7290157.84046  21904640.677    21904640.3784   21904645.7814
     -2493.304       -1942.834
  -2721504.922 9  -2109895.60147  22046146.945    22046146.7594   22046150.8384
     -1583.886       -1234.197
  -9915747.455 9  -7719372.94648  19271651.726    19271650.9024   19271655.2524
       465.780         362.945
 -18688916.590 9 -14531268.38747  21113170.455    21113170.0264   21113174.8114
      3786.484        2950.507
  -4630619.068 9  -3571787.92445  23545193.263    23545192.9054   23545198.5994
      3318.588        2585.913
 96 10  8 17 15 59.9950000  0 10 23 22 21  1 28  6 26 17  3  9      -0.004756722
 -15548065.317 9 -12100308.72648  19237768.876    19237768.0034   19237772.2704
       680.274         530.084
  -4893555.674 9  -3802781.94046  23012196.371    23012195.2984   23012201.6604
      -813.032        -633.531
 -27320546.840 9 -20748785.22248  20231816.878    20231816.1994   20231821.2154
      2823.895        2200.438
 -11176671.679 9  -8676123.77346  22455931.919    22455931.1274   22455937.4674
      4832.679        3765.724
 -21986467.783 9 -17112766.543 9  19001556.029    19001555.439    19001559.209
       988.401         770.183
   9431313.692 9   7348496.01846  21918887.451    21918887.1784   21918892.5254
     -2496.771       -1945.536
  -2673822.724 9  -2072740.66947  22055220.617    22055220.4134   22055224.4354
     -1593.776       -1241.903
  -9929579.338 9  -7730151.04248  19269019.640    19269018.8004   19269023.1674
       457.494         356.489
 -18802327.459 9 -14619640.48447  21091589.085    21091588.6584   21091593.4294
      3775.180        2941.699
  -4730132.213 9  -3649330.61145  23526256.608    23526256.2264   23526261.9344
      3316.579        2584.347
 96 10  8 17 16 29.9950000  0 10 23 22 21  1 28  6 26 17  3  9      -0.004778971
 -15568301.282 9 -12116077.00448  19233918.095    19233917.2214   19233921.4944
       670.131         522.180
  -4869041.910 9  -3783680.34646  23016861.291    23016860.1634   23016866.6024
      -819.964        -638.933
 -27405112.560 9 -20814680.56048  20215724.577    20215723.8624   20215728.8574
      2814.762        2193.321
 -11321588.952 9  -8789046.27746  22428355.084    22428354.3824   22428360.6444
      4829.661        3763.372
 -22015793.834 9 -17135618.016 9  18995975.480    18995974.873    18995978.645
       967.805         754.134
   9506327.841 9   7406948.56046  21933162.232    21933161.9654   21933167.3004
     -2502.940       -1950.343
  -2625807.830 9  -2035326.49847  22064357.642    22064357.4104   22064361.3714
     -1606.130       -1251.530
  -9943135.148 9  -7740714.01548  19266440.069    19266439.2204   19266443.5994
       447.496         348.698
 -18915353.727 9 -14707712.88547  21070080.897    21070080.4824   21070085.2984
      3761.031        2930.674
  -4829544.343 9  -3726794.60945  23507339.079    23507338.5174   23507344.2454
      3311.953        2580.743
 96 10  8 17 16 59.9950000  0 10 23 22 21  1 28  6 26 17  3  9      -0.004801233
 -15588283.168 9 -12131647.30248  19230115.686    19230114.7864   19230119.0724
       662.239         516.030
  -4844352.905 9  -3764442.19646  23021559.503    23021558.3314   23021564.8224
      -825.745        -643.438
 -27489422.253 9 -20880376.39548  20199680.960    20199680.2584   20199685.2144
      2806.123        2186.589
 -11466455.206 9  -8901929.00446  22400787.989    22400787.2674   22400793.5864
      4828.314        3762.323
 -22044535.123 9 -17158013.832 9  18990506.187    18990505.591    18990509.385
       948.546         739.127
   9581498.062 9   7465522.70446  21947466.634    21947466.3184   21947471.6554
     -2508.156       -1954.407
  -2577461.868 9  -1997654.35047  22073557.586    22073557.3604   22073561.3144
     -1616.618       -1259.702
  -9956430.510 9  -7751074.04048  19263910.061    19263909.2114   19263913.5934
       439.133         342.182
 -19027990.378 9 -14795481.69147  21048646.828    21048646.4084   21048651.2684
      3748.387        2920.821
  -4928851.111 9  -3804176.48945  23488441.560    23488440.9384   23488446.5164
      3308.651        2578.170
 96 10  8 17 17 29.9950000  0 10 23 22 21  1 28  6 26 17  3  9      -0.004823524
 -15608044.633 9 -12147045.83948  19226355.242    19226354.3314   19226358.6144
       655.291         510.616
  -4819503.344 9  -3745078.93146  23026288.279    23026287.1644   23026293.6364
      -830.728        -647.321
 -27573486.256 9 -20945880.78348  20183684.100    20183683.3814   20183688.3474
      2798.256        2180.459
 -11611299.509 9  -9014794.63646  22373225.003    22373224.3244   22373230.6294
      4828.146        3762.192
 -22072715.747 9 -17179972.762 9  18985143.590    18985142.986    18985146.792
       930.254         724.873
   9656801.442 9   7524200.62246  21961796.341    21961796.1164   21961801.4104
     -2511.964       -1957.375
  -2528821.297 9  -1959752.63747  22082813.636    22082813.3754   22082817.3514
     -1626.031       -1267.037
  -9969491.445 9  -7761251.39548  19261424.681    19261423.7864   19261428.1594
       431.641         336.344
 -19140259.711 9 -14882964.27547  21027282.731    21027282.2934   21027287.1384
      3736.255        2911.368
  -5028074.844 9  -3881493.65345  23469559.883    23469559.2624   23469564.9674
      3306.204        2576.263
 96 10  8 17 17 59.9950000  0 10 23 22 21  1 28  6 26 17  3  9      -0.004845840
 -15627581.569 9 -12162269.42348  19222637.495    19222636.5894   19222640.8534
       647.338         504.419
  -4794501.787 9  -3725597.24846  23031045.978    23031044.8794   23031051.3904
      -835.842        -651.305
 -27657304.066 9 -21011193.34348  20167734.082    20167733.3734   20167738.3134
      2790.057        2174.070
 -11756128.351 9  -9127648.21946  22345664.990    22345664.2734   22345670.6324
      4827.195        3761.451
 -22100331.103 9 -17201491.229 9  18979888.582    18979887.976    18979891.777
       911.075         709.928
   9732245.548 9   7582988.18246  21976152.889    21976152.5664   21976158.0044
     -2517.352       -1961.573
  -2479876.451 9  -1921613.82947  22092127.607    22092127.3044   22092131.3214
     -1636.765       -1275.401
  -9982315.521 9  -7771244.19248  19258984.344    19258983.4564   19258987.7974
       423.661         330.125
 -19252150.275 9 -14970151.72547  21005990.658    21005990.2264   21005995.0714
      3723.508        2901.435
  -5127200.608 9  -3958734.49645  23450696.924    23450696.2674   23450701.8904
      3302.472        2573.355
 96 10  8 17 18 29.9950000  0 10 23 22 21  1 28  6 26 17  3  9      -0.004868173
 -15646876.543 9 -12177304.46748  19218965.783    19218964.8854   19218969.1424
       639.254         498.120
  -4769337.332 9  -3705988.62646  23035834.629    23035833.4514   23035840.1114
      -841.586        -655.781
 -27740879.024 9 -21076316.66348  20151830.328    20151829.6284   20151834.4894
      2781.745        2167.593
 -11900918.700 9  -9240471.81446  22318112.252    22318111.5314   22318117.8924
      4825.717        3760.299
 -22127372.458 9 -17222562.421 9  18974742.777    18974742.197    18974745.990
       891.963         695.036
   9807850.453 9   7641901.05746  21990540.118    21990539.8164   21990545.2494
     -2522.599       -1965.662
  -2430604.703 9  -1883220.28447  22101503.727    22101503.4514   22101507.4604
     -1647.608       -1283.850
  -9994900.350 9  -7781050.55548  19256589.530    19256588.6424   19256593.0104
       415.380         323.673
 -19363666.810 9 -15057047.70747  20984769.777    20984769.3134   20984774.1624
      3711.260        2891.891
  -5226219.050 9  -4035891.68445  23431854.344    23431853.5924   23431859.3744
      3298.968        2570.624
 96 10  8 17 18 59.9950000  0 10 23 22 21  1 28  6 26 17  3  9      -0.004890517
 -15665901.185 9 -12192128.85848  19215345.535    19215344.6024   19215348.8604
       629.699         490.675
  -4743974.588 9  -3686225.48846  23040660.993    23040659.8254   23040666.5264
      -848.433        -661.117
 -27824182.023 9 -21141228.06248  20135978.325    20135977.5874   20135982.4364
      2772.742        2160.578
 -12045636.668 9  -9353239.01346  22290573.278    22290572.6274   22290579.0084
      4822.969        3758.158
 -22153821.934 9 -17243172.409 9  18969709.605    18969709.021    18969712.816
       872.132         679.583
   9883624.693 9   7700945.85146  22004959.480    22004959.0434   22004964.7084
     -2528.172       -1970.004
  -2381003.617 9  -1844570.13047  22110942.523    22110942.2684   22110946.2974
     -1658.282       -1292.168
 -10007205.232 9  -7790638.77948  19254248.006    19254247.1164   19254251.4874
       405.646         316.088
 -19474803.843 9 -15143647.98047  20963621.072    20963620.5834   20963625.4274
      3698.601        2882.027
  -5325112.464 9  -4112951.45046  23413035.594    23413034.7394   23413040.5604
      3294.535        2567.170
 96 10  8 17 19 29.9950000  0 10 23 22 21  1 28  6 26 17  3  9      -0.004912885
 -15684638.631 9 -12206729.46748  19211779.904    19211779.0094   19211783.2414
       620.024         483.136
  -4718428.359 9  -3666319.38246  23045522.178    23045521.1014   23045527.7864
      -854.160        -665.579
 -27907239.744 9 -21205948.34948  20120172.978    20120172.2384   20120177.0474
      2765.091        2154.616
 -12190277.684 9  -9465946.24246  22263048.928    22263048.2694   22263054.6794
      4820.132        3755.947
 -22179684.336 9 -17263324.940 9  18964788.172    18964787.579    18964791.380
       852.463         664.257
   9959546.752 9   7760105.84446  22019407.117    22019406.6994   22019412.3744
     -2532.805       -1973.614
  -2331086.249 9  -1805673.50846  22120441.525    22120441.2684   22120445.2924
     -1669.061       -1300.567
 -10019223.845 9  -7800003.94448  19251960.964    19251960.0854   19251964.4374
       395.903         308.496
 -19585570.437 9 -15229959.59847  20942542.902    20942542.3654   20942547.2354
      3686.201        2872.364
  -5423876.423 8  -4189910.35146  23394241.414    23394240.7104   23394246.4494
      3290.179        2563.776
 96 10  8 17 19 59.9950000  0 10 23 22 21  1 28  6 26 17  3  9      -0.004935279
 -15703088.780 9 -12221106.20048  19208268.988    19208268.0784   19208272.2864
       610.284         475.546
  -4692715.384 9  -3646283.34846  23050415.230    23050414.1234   23050420.8664
      -860.063        -670.179
 -27990078.262 9 -21270497.82148  20104409.317    20104408.6084   20104413.3524
      2757.614        2148.790
 -12334826.718 9  -9578581.79146  22235542.014    22235541.3924   22235547.8324
      4816.562        3753.165
 -22204958.139 9 -17283018.819 9  18959978.746    18959978.154    18959981.939
       832.593         648.774
  10035607.645 9   7819374.00346  22033881.179    22033880.6634   22033886.3554
     -2537.635       -1977.378
  -2280850.947 9  -1766529.14846  22130001.080    22130000.8234   22130004.7614
     -1679.756       -1308.901
 -10030946.997 9  -7809138.87148  19249730.169    19249729.2664   19249733.6124
       385.861         300.671
 -19695968.459 9 -15315984.01347  20921534.825    20921534.2974   20921539.1704
      3673.778        2862.684
  -5522515.116 9  -4266771.60446  23375471.189    23375470.3964   23375476.2954
      3285.935        2560.469
 96 10  8 17 20 29.9950000  0 10 23 22 21  1 28  6 26 17  3  9      -0.004957704
 -15721270.870 9 -12235274.06248  19204809.069    19204808.1534   19204812.3204
       601.668         468.832
  -4666835.003 9  -3626116.87046  23055340.140    23055339.0624   23055345.7664
      -865.608        -674.500
 -28072706.341 9 -21334883.32048  20088685.698    20088684.9874   20088689.7174
      2750.493        2143.241
 -12479281.713 9  -9691144.07046  22208053.142    22208052.4524   22208058.9744
      4813.462        3750.750
 -22229651.905 9 -17302260.724 9  18955279.690    18955279.105    18955282.912
       813.319         633.755
  10111787.623 9   7878734.96846  22048377.814    22048377.2884   22048382.9824
     -2541.399       -1980.311
  -2230317.355 9  -1727152.34346  22139617.322    22139617.0304   22139620.9744
     -1689.525       -1316.513
 -10042381.918 9  -7818049.21048  19247554.199    19247553.2884   19247557.6324
       376.032         293.012
 -19806007.851 9 -15401728.97947  20900595.001    20900594.4804   20900599.3724
      3661.801        2853.351
  -5621039.829 8  -4343544.08146  23356722.530    23356721.6754   23356727.6064
      3282.020        2557.418
 96 10  8 17 20 59.9950000  0 10 23 22 21  1 28  6 26 17  3  9      -0.004980153
 -15739201.211 9 -12249245.75848  19201397.012    19201396.0844   19201400.2784
       593.023         462.096
  -4640793.038 9  -3605824.47346  23060295.824    23060294.7844   23060301.4564
      -871.183        -678.844
 -28155122.018 9 -21399103.30948  20073002.493    20073001.7734   20073006.5094
      2743.215        2137.570
 -12623640.621 9  -9803631.48746  22180582.515    22180581.8414   22180588.3414
      4809.772        3747.874
 -22253763.870 9 -17321049.275 9  18950691.348    18950690.749    18950694.576
       793.474         618.291
  10188084.278 9   7938186.84446  22062896.664    22062896.0974   22062901.8884
     -2545.804       -1983.743
  -2179481.654 9  -1687540.14046  22149290.980    22149290.6724   22149294.5324
     -1700.377       -1324.969
 -10053513.658 9  -7826723.30048  19245435.914    19245435.0074   19245439.3744
       365.556         284.849
 -19915673.911 9 -15487183.03447  20879726.199    20879725.7174   20879730.6104
      3648.475        2842.968
  -5719438.305 8  -4420218.16146  23337997.846    23337996.9854   23338002.9764
      3277.087        2553.574
 96 10  8 17 21 29.9950000  0 10 23 22 21  1 28  6 26 17  3  9      -0.005002597
 -15756871.766 9 -12263015.02348  19198034.412    19198033.4944   19198037.6594
       585.123         455.940
  -4614579.227 9  -3585398.18246  23065284.243    23065283.1364   23065289.7934
      -876.616        -683.077
 -28237313.799 9 -21463148.83748  20057361.937    20057361.2144   20057365.9094
      2736.097        2132.024
 -12767878.104 9  -9916024.27146  22153135.027    22153134.2574   22153140.9014
      4806.111        3745.022
 -22277272.362 9 -17339367.593 9  18946217.825    18946217.229    18946221.073
       773.706         602.888
  10264521.188 9   7997748.02046  22077442.119    22077441.5364   22077447.3074
     -2550.090       -1987.083
  -2128296.530 9  -1647655.65046  22159031.128    22159030.8674   22159034.7804
     -1711.921       -1333.964
 -10064327.499 9  -7835149.67948  19243378.115    19243377.2334   19243381.5974
       355.389         276.926
 -20024923.431 9 -15572312.51347  20858936.718    20858936.1994   20858941.1214
      3634.726        2832.254
  -5817679.010 9  -4496769.32446  23319303.270    23319302.6004   23319308.2434
      3272.335        2549.871
 96 10  8 17 21 59.9940000  0 10 23 22 21  1 28  6 26 17  3  9      -0.005025031
 -15774304.636 9 -12276599.07548  19194717.047    19194716.1324   19194720.2714
       577.068         449.663
  -4588192.781 9  -3564837.34246  23070305.393    23070304.2964   23070310.9774
      -882.654        -687.782
 -28319280.431 9 -21527018.92048  20041764.232    20041763.4794   20041768.1734
      2728.394        2126.021
 -12912001.331 9 -10028328.03446  22125709.175    22125708.4264   22125715.1584
      4802.400        3742.130
 -22300185.545 9 -17357222.030 9  18941857.605    18941857.004    18941860.852
       753.875         587.435
  10341088.149 9   8057410.51846  22092012.331    22092011.8404   22092017.6454
     -2554.578       -1990.580
  -2076763.343 9  -1607499.96146  22168837.642    22168837.3114   22168841.3024
     -1723.741       -1343.175
 -10074837.101 9  -7843338.98848  19241378.230    19241377.3364   19241381.6904
       345.379         269.126
 -20133750.628 9 -15657112.91047  20838227.594    20838227.0954   20838232.0154
      3620.765        2821.375
  -5915769.808 8  -4573203.67246  23300637.343    23300636.5374   23300642.0674
      3267.015        2545.726
 96 10  8 17 22 29.9940000  0 10 23 22 21  1 28  6 26 17  3  9      -0.005047459
 -15791502.121 9 -12289999.70948  19191444.470    19191443.5564   19191447.6884
       569.250         443.571
  -4561632.651 9  -3544141.19246  23075359.619    23075358.5394   23075365.1814
      -888.158        -692.071
 -28401022.552 9 -21590714.06048  20026209.235    20026208.4654   20026213.1194
      2720.955        2120.225
 -13056028.978 9 -10140557.31846  22098301.495    22098300.7814   22098307.5554
      4799.299        3739.714
 -22322511.916 9 -17374619.213 9  18937609.068    18937608.464    18937612.306
       734.392         572.254
  10417788.793 9   8117177.19546  22106608.069    22106607.5584   22106613.3674
     -2558.805       -1993.874
  -2024884.323 9  -1567074.78546  22178709.886    22178709.5184   22178713.5994
     -1734.909       -1351.877
 -10085057.207 9  -7851302.71948  19239433.433    19239432.5164   19239436.8644
       335.845         261.697
 -20242171.255 9 -15741596.50347  20817595.844    20817595.3234   20817600.2794
      3607.101        2810.728
  -6013702.849 8  -4649515.09246  23282001.239    23282000.4914   23282006.0864
      3261.647        2541.543
 96 10  8 17 22 59.9940000  0 10 23 22 21  1 28  6 26 17  3  9      -0.005069887
 -15808453.318 9 -12303208.43548  19188218.753    19188217.8184   19188221.9824
       561.079         437.204
  -4534902.769 9  -3523312.76046  23080446.143    23080445.1104   23080451.7754
      -893.543        -696.267
 -28482532.363 9 -21654228.18348  20010698.410    20010697.6534   20010702.2954
      2713.078        2114.087
 -13199957.792 9 -10252709.58446  22070912.637    22070911.9454   22070918.7174
      4796.391        3737.448
 -22344248.356 9 -17391556.707 9  18933472.789    18933472.151    18933476.005
       714.994         557.138
  10494614.284 9   8177041.15846  22121227.580    22121226.9874   22121232.8454
     -2562.628       -1996.853
  -1972666.154 9  -1526385.33346  22188646.623    22188646.3294   22188650.3904
     -1745.882       -1360.428
 -10094997.286 9  -7859048.24348  19237541.892    19237540.9934   19237545.3634
       327.263         255.010
 -20350178.679 9 -15825758.12147  20797042.726    20797042.1824   20797047.1144
      3593.700        2800.286
  -6111469.806 8  -4725697.10145  23263396.678    23263396.0734   23263401.5194
      3256.461        2537.502
 96 10  8 17 23 29.9940000  0 10 23 22 21  1 28  6 26 17  3  9      -0.005092329
 -15825154.951 9 -12316222.68948  19185040.553    19185039.6104   19185043.7634
       552.295         430.360
  -4508006.901 9  -3502354.97346  23085564.377    23085563.2514   23085569.9494
      -899.700        -701.065
 -28563791.845 9 -21717547.23848  19995235.220    19995234.4494   19995239.1024
      2704.040        2107.044
 -13343805.894 9 -10364798.95246  22043539.268    22043538.4684   22043545.2164
      4793.440        3735.148
 -22365400.222 9 -17408038.689 9  18929447.723    18929447.098    18929450.958
       694.966         541.532
  10571553.711 9   8236993.90246  22135868.690    22135868.1224   22135873.9454
     -2566.856       -2000.148
  -1920126.670 9  -1485445.50246  22198644.641    22198644.3404   22198648.4124
     -1756.745       -1368.892
 -10104686.934 9  -7866598.62448  19235698.041    19235697.1174   19235701.5204
       318.471         248.159
 -20457794.462 9 -15909614.55947  20776564.083    20776563.5694   20776568.5114
      3580.408        2789.928
  -6209083.872 8  -4801759.96046  23244821.405    23244820.7844   23244826.2314
      3250.952        2533.209
 96 10  8 17 23 59.9940000  0 10 23 22 21  1 28  6 26 17  3  9      -0.005114796
 -15841605.172 9 -12329041.04148  19181910.205    19181909.2254   19181913.3924
       544.456         424.251
  -4480943.895 9  -3481266.96446  23090714.337    23090713.2534   23090719.9084
      -904.299        -704.649
 -28644789.802 9 -21780662.51648  19979821.832    19979821.0384   19979825.7004
      2695.977        2100.761
 -13487583.587 9 -10476833.47446  22016179.296    22016178.5044   22016185.0974
      4791.649        3733.752
 -22385966.712 9 -17424064.534 9  18925534.074    18925533.425    18925537.298
       676.246         526.945
  10648607.879 9   8297036.05446  22150531.776    22150531.1274   22150536.8874
     -2570.076       -2002.657
  -1867288.929 9  -1444273.28146  22208699.406    22208699.0554   22208703.0904
     -1765.559       -1375.760
 -10114124.101 9  -7873952.27048  19233902.254    19233901.3114   19233905.7184
       310.663         242.075
 -20565023.205 9 -15993169.40147  20756159.144    20756158.6084   20756163.5594
      3568.286        2780.483
  -6306544.474 8  -4877703.27046  23226275.193    23226274.5914   23226280.1324
      3246.403        2529.665
 96 10  8 17 24 29.9940000  0 10 23 22 21  1 28  6 26 17  3  9      -0.005137293
 -15857809.010 9 -12341667.40748  19178826.729    19178825.7464   19178829.9284
       535.772         417.485
  -4453729.019 9  -3460060.62446  23095893.078    23095892.0324   23095898.7634
      -909.865        -708.986
 -28725523.625 9 -21843571.97248  19964458.700    19964457.9184   19964462.5714
      2686.373        2093.278
 -13631282.227 9 -10588806.40846  21988834.296    21988833.5804   21988839.9684
      4788.311        3731.151
 -22405951.106 9 -17439636.802 9  18921731.157    18921730.515    18921734.391
       656.132         511.272
  10725780.572 9   8357170.54946  22165217.266    22165216.6384   22165222.4404
     -2574.719       -2006.274
  -1814179.163 9  -1402889.08446  22218805.897    22218805.5754   22218809.6134
     -1775.028       -1383.139
 -10123301.849 9  -7881103.77448  19232155.786    19232154.8474   19232159.2704
       301.202         234.703
 -20671858.694 9 -16076417.82847  20735829.046    20735828.5004   20735833.4334
      3554.053        2769.392
  -6403849.350 8  -4953525.23046  23207758.677    23207758.0134   23207763.5394
      3240.667        2525.195
 96 10  8 17 24 59.9940000  0 10 23 22 21  1 28  6 26 17  3  9      -0.005159798
 -15873754.360 9 -12354092.35548  19175792.456    19175791.4584   19175795.6374
       527.184         410.793
  -4426351.547 9  -3438727.56746  23101102.981    23101101.7934   23101108.5544
      -915.217        -713.156
 -28805969.948 9 -21906257.39248  19949150.274    19949149.4794   19949154.1414
      2676.853        2085.859
 -13774876.128 9 -10700697.71246  21961509.407    21961508.6894   21961514.8274
      4784.563        3728.231
 -22425332.833 9 -17454739.455 9  18918042.951    18918042.303    18918046.181
       635.977         495.566
  10803095.257 9   8417415.70346  22179929.821    22179929.2424   22179934.9694
     -2579.733       -2010.182
  -1760777.269 9  -1361277.25746  22228968.032    22228967.6894   22228971.6644
     -1785.165       -1391.038
 -10132197.612 9  -7888035.54148  19230463.022    19230462.0764   19230466.5044
       291.726         227.319
 -20778258.254 9 -16159326.56747  20715581.870    20715581.2974   20715586.2194
      3539.255        2757.861
  -6500980.488 8  -5029211.77146  23189275.229    23189274.4074   23189280.0654
      3234.666        2520.519
 96 10  8 17 25 29.9940000  0 10 23 22 21  1 28  6 26 17  3  9      -0.005182304
 -15889448.651 9 -12366321.66848  19172805.966    19172804.9514   19172809.1004
       518.757         404.226
  -4398825.333 9  -3417278.60746  23106341.061    23106339.9194   23106346.5904
      -920.133        -716.987
 -28886146.629 9 -21968732.70948  19933893.174    19933892.3584   19933896.9994
      2668.237        2079.146
 -13918357.800 9 -10812501.56046  21934205.703    21934204.9454   21934211.1134
      4780.503        3725.067
 -22444115.138 9 -17469375.026 9  18914468.777    18914468.140    18914472.016
       615.865         479.895
  10880562.315 8   8477779.57546  22194671.328    22194670.8784   22194676.5914
     -2584.952       -2014.248
  -1707076.985 9  -1319432.91246  22239186.953    22239186.5794   22239190.5514
     -1795.122       -1398.796
 -10140801.137 9  -7894739.59548  19228825.844    19228824.8794   19228829.3034
       281.406         219.277
 -20884210.403 9 -16241886.67347  20695419.845    20695419.2804   20695424.1824
      3523.767        2745.792
  -6597931.757 8  -5104758.17746  23170826.014    23170825.2654   23170830.8844
      3228.340        2515.590
 96 10  8 17 25 59.9940000  0 10 23 22 21  1 28  6 26 17  3  9      -0.005204806
 -15904889.942 9 -12378353.84148  19169867.567    19169866.5364   19169870.6874
       510.677         397.930
  -4371162.070 9  -3395722.85446  23111605.260    23111604.0774   23111610.7174
      -923.988        -719.991
 -28966081.121 9 -22031019.31248  19918682.093    19918681.2914   19918685.9334
      2660.694        2073.268
 -14061705.232 9 -10924200.81746  21906927.578    21906926.8094   21906932.8884
      4775.796        3721.399
 -22462296.780 9 -17483542.549 9  18911008.954    18911008.295    18911012.164
       596.283         464.636
  10958180.697 8   8538261.36146  22209441.651    22209441.3434   22209446.9734
     -2589.479       -2017.776
  -1653081.292 9  -1277358.38447  22249462.009    22249461.6964   22249465.6944
     -1804.630       -1406.205
 -10149091.242 9  -7901199.42648  19227248.261    19227247.3044   19227251.7754
       271.322         211.420
 -20989694.911 9 -16324082.38447  20675346.841    20675346.2284   20675351.1604
      3508.697        2734.050
  -6694691.544 8  -5180155.37346  23152413.181    23152412.4084   23152418.0384
      3222.340        2510.914
 96 10  8 17 26 29.9940000  0 10 23 22 21  1 28  6 26 17  3  9      -0.005227304
 -15920091.808 9 -12390199.45348  19166974.717    19166973.6654   19166977.8584
       503.013         391.958
  -4343381.390 9  -3374075.60646  23116891.776    23116890.5144   23116897.1474
      -927.641        -722.837
 -29045779.951 9 -22093122.27748  19903515.906    19903515.0964   19903519.7144
      2652.985        2067.261
 -14204904.512 9 -11035784.61546  21879677.713    21879676.9474   21879682.9214
      4771.274        3717.876
 -22479887.383 9 -17497249.521 9  18907661.610    18907660.939    18907664.774
       576.850         449.494
  11035932.237 8   8598846.92346  22224237.319    22224237.0064   22224242.5304
     -2593.387       -2020.821
  -1598792.435 9  -1235055.42147  22259792.862    22259792.5334   22259796.5934
     -1814.266       -1413.714
 -10157081.241 9  -7907425.41148  19225727.808    19225726.8464   19225731.3244
       261.815         204.012
 -21094721.407 9 -16405921.20147  20655360.968    20655360.3584   20655365.2854
      3493.604        2722.289
  -6791265.654 8  -5255407.87846  23134035.554    23134034.9414   23134040.4474
      3216.413        2506.296
 96 10  8 17 26 59.9940000  0 10 23 22 21  1 28  6 26 17  3  9      -0.005249820
 -15935066.094 9 -12401867.72648  19164125.219    19164124.1774   19164128.3454
       495.174         385.850
  -4315506.195 9  -3352354.71646  23122196.354    23122195.1054   23122201.6744
      -930.813        -725.309
 -29125268.054 9 -22155061.03548  19888389.785    19888388.9894   19888393.6164
      2646.165        2061.947
 -14347983.727 9 -11147274.86446  21852450.681    21852449.8854   21852455.7384
      4767.225        3714.721
 -22496908.762 9 -17510512.945 9  18904422.560    18904421.872    18904425.719
       557.764         434.621
  11113777.745 8   8659505.65945  22239050.879    22239050.5524   22239055.9894
     -2596.214       -2023.024
  -1544225.243 9  -1192535.57547  22270176.661    22270176.3454   22270180.4084
     -1823.608       -1420.993
 -10164804.500 9  -7913443.54448  19224258.142    19224257.1894   19224261.6584
       252.885         197.053
 -21199319.924 9 -16487426.52947  20635456.518    20635455.9284   20635460.8234
      3479.588        2711.367
  -6887675.989 8  -5330532.77046  23115689.209    23115688.5974   23115694.1004
      3210.883        2501.987
 96 10  8 17 27 29.9940000  0 10 23 22 21  1 28  6 26 17  3  9      -0.005272353
 -15949794.897 9 -12413344.71248  19161322.438    19161321.3944   19161325.5504
       486.988         379.471
  -4287527.523 9  -3330553.19546  23127520.520    23127519.2574   23127525.8264
      -934.243        -727.981
 -29204534.536 9 -22216827.11148  19873305.891    19873305.0644   19873309.7024
      2638.355        2055.861
 -14490928.610 9 -11258660.41846  21825249.176    21825248.3334   21825254.1844
      4762.717        3711.208
 -22513345.376 9 -17523320.703 9  18901294.772    18901294.080    18901297.939
       538.211         419.385
  11191715.679 8   8720236.45045  22253881.978    22253881.6274   22253887.0104
     -2599.272       -2025.407
  -1489374.359 9  -1149794.66247  22280614.519    22280614.1414   22280618.2724
     -1832.771       -1428.133
 -10172236.895 9  -7919235.02148  19222843.865    19222842.8804   19222847.3454
       242.901         189.274
 -21303488.273 9 -16568596.65547  20615633.949    20615633.3834   20615638.2284
      3465.235        2700.183
  -6983908.865 8  -5405519.37846  23097376.582    23097376.0584   23097381.4934
      3204.843        2497.280
 96 10  8 17 27 59.9940000  0 10 23 22 21  1 28  6 26 17  3  9      -0.005294913
 -15964290.112 9 -12424639.68048  19158564.076    19158563.0584   19158567.2234
       478.854         373.133
  -4259457.668 9  -3308680.61146  23132862.117    23132860.9094   23132867.3574
      -937.552        -730.560
 -29283567.661 9 -22278411.34548  19858266.361    19858265.5484   19858270.1784
      2629.994        2049.346
 -14633747.370 9 -11369947.69946  21798071.622    21798070.7574   21798076.6574
      4758.100        3707.610
 -22529206.025 9 -17535679.659 9  18898276.586    18898275.909    18898279.767
       518.748         404.219
  11269727.236 8   8781024.60445  22268727.203    22268726.6444   22268732.0244
     -2601.899       -2027.454
  -1434251.792 9  -1106842.05547  22291104.043    22291103.6544   22291107.7864
     -1842.415       -1435.648
 -10179384.045 9  -7924804.23648  19221483.868    19221482.8514   19221487.2924
       233.128         181.658
 -21407241.408 9 -16649443.23547  20595890.438    20595889.8484   20595894.6864
      3451.164        2689.219
  -7079965.957 9  -5480369.00346  23079097.519    23079096.9734   23079102.4304
      3198.410        2492.267
 96 10  8 17 28 29.9940000  0 10 23 22 21  1 28  6 26 17  3  9      -0.005317491
 -15978533.008 9 -12435738.03648  19155853.745    19155852.6984   19155856.8864
       470.042         366.266
  -4231283.144 9  -3286726.47046  23138223.585    23138222.3464   23138228.7354
      -941.423        -733.576
 -29362344.409 9 -22339795.80248  19843275.634    19843274.8214   19843279.4484
      2621.385        2042.638
 -14776434.878 9 -11481132.70746  21770918.989    21770918.1864   21770924.1394
      4753.932        3704.363
 -22544479.826 9 -17547581.332 9  18895370.109    18895369.397    18895373.271
       498.925         388.773
  11347824.171 8   8841879.29145  22283588.646    22283588.0564   22283593.4884
     -2605.037       -2029.899
  -1378839.158 9  -1063663.41747  22301648.702    22301648.3644   22301652.5104
     -1852.266       -1443.324
 -10186235.063 9  -7930142.69948  19220180.202    19220179.1844   19220183.6344
       222.886         173.677
 -21510564.769 9 -16729954.93747  20576228.674    20576228.0744   20576232.8804
      3436.507        2677.798
  -7175824.683 8  -5555064.06446  23060856.174    23060855.4944   23060861.0594
      3191.634        2486.988
 96 10  8 17 28 59.9940000  0 10 23 22 21  1 28  6 26 17  3  9      -0.005340094
 -15992518.386 9 -12446635.73448  19153192.424    19153191.3534   19153195.5714
       462.795         360.619
  -4202998.675 9  -3264686.64045  23143605.896    23143604.6074   23143611.1314
      -943.943        -735.540
 -29440881.956 9 -22400993.87248  19828330.423    19828329.6104   19828334.2604
      2614.677        2037.411
 -14919013.310 9 -11592232.71946  21743787.099    21743786.3744   21743792.2714
      4751.539        3702.498
 -22559171.048 9 -17559029.047 9  18892574.465    18892573.755    18892577.635
       480.791         374.642
  11426004.943 8   8902799.31145  22298465.888    22298465.2534   22298470.8404
     -2606.726       -2031.215
  -1323139.927 9  -1020261.45347  22312248.026    22312247.6134   22312251.7774
     -1860.706       -1449.901
 -10192782.049 9  -7935244.25548  19218934.377    19218933.3454   19218937.8054
       213.873         166.654
 -21613466.778 9 -16810138.30247  20556647.070    20556646.4684   20556651.2634
      3423.915        2667.986
  -7271485.237 9  -5629604.69046  23042652.579    23042651.9664   23042657.4314
      3186.088        2482.666
